<?xml version="1.0" encoding="UTF-8" standalone="no" ?>
<gpx xmlns="http://www.topografix.com/GPX/1/1" xmlns:xsi="http://www.w3.org/2001/XMLSchema-instance" xsi:schemaLocation="http://www.topografix.com/GPX/1/1 http://www.topografix.com/GPX/1/1/gpx.xsd" version="1.1" creator="VisuGPX - https://www.visugpx.com">
  <metadata>
    <name>91C10/22 Boucle Yerres par Christian 10 km IBP 30</name>
    <desc><![CDATA[20221102 - Yerres 10km]]></desc>
  </metadata>
  <trk>
    <name><![CDATA[91C10/22 Boucle Yerres par Christian 10 km IBP 30_1]]></name>
    <trkseg>
      <trkpt lat="48.71408" lon="2.48336">
        <ele>36</ele>
        <time>2022-11-02T12:36:12Z</time>
      </trkpt>
      <trkpt lat="48.71407" lon="2.48343">
        <ele>36.4</ele>
        <time>2022-11-02T12:36:16Z</time>
      </trkpt>
      <trkpt lat="48.71404" lon="2.48351">
        <ele>36.8</ele>
        <time>2022-11-02T12:36:21Z</time>
      </trkpt>
      <trkpt lat="48.71401" lon="2.48358">
        <ele>37.6</ele>
        <time>2022-11-02T12:36:26Z</time>
      </trkpt>
      <trkpt lat="48.71398" lon="2.48364">
        <ele>38.2</ele>
        <time>2022-11-02T12:36:31Z</time>
      </trkpt>
      <trkpt lat="48.71395" lon="2.48371">
        <ele>39</ele>
        <time>2022-11-02T12:36:36Z</time>
      </trkpt>
      <trkpt lat="48.71392" lon="2.48377">
        <ele>40.2</ele>
        <time>2022-11-02T12:36:41Z</time>
      </trkpt>
      <trkpt lat="48.71388" lon="2.48383">
        <ele>41</ele>
        <time>2022-11-02T12:36:46Z</time>
      </trkpt>
      <trkpt lat="48.71384" lon="2.48388">
        <ele>41.1</ele>
        <time>2022-11-02T12:36:51Z</time>
      </trkpt>
      <trkpt lat="48.7138" lon="2.48393">
        <ele>41.3</ele>
        <time>2022-11-02T12:36:55Z</time>
      </trkpt>
      <trkpt lat="48.71376" lon="2.48397">
        <ele>41.4</ele>
        <time>2022-11-02T12:36:59Z</time>
      </trkpt>
      <trkpt lat="48.71372" lon="2.48402">
        <ele>41.1</ele>
        <time>2022-11-02T12:37:04Z</time>
      </trkpt>
      <trkpt lat="48.71369" lon="2.48408">
        <ele>41.1</ele>
        <time>2022-11-02T12:37:09Z</time>
      </trkpt>
      <trkpt lat="48.71369" lon="2.48415">
        <ele>41.2</ele>
        <time>2022-11-02T12:37:15Z</time>
      </trkpt>
      <trkpt lat="48.71369" lon="2.48423">
        <ele>41.1</ele>
        <time>2022-11-02T12:37:19Z</time>
      </trkpt>
      <trkpt lat="48.71369" lon="2.4843">
        <ele>41</ele>
        <time>2022-11-02T12:37:23Z</time>
      </trkpt>
      <trkpt lat="48.71369" lon="2.48437">
        <ele>40.8</ele>
        <time>2022-11-02T12:37:27Z</time>
      </trkpt>
      <trkpt lat="48.71368" lon="2.48445">
        <ele>39.8</ele>
        <time>2022-11-02T12:37:32Z</time>
      </trkpt>
      <trkpt lat="48.71366" lon="2.48453">
        <ele>39.2</ele>
        <time>2022-11-02T12:37:37Z</time>
      </trkpt>
      <trkpt lat="48.71364" lon="2.4846">
        <ele>39.3</ele>
        <time>2022-11-02T12:37:41Z</time>
      </trkpt>
      <trkpt lat="48.71364" lon="2.48467">
        <ele>39.4</ele>
        <time>2022-11-02T12:37:45Z</time>
      </trkpt>
      <trkpt lat="48.71364" lon="2.48475">
        <ele>39.5</ele>
        <time>2022-11-02T12:37:49Z</time>
      </trkpt>
      <trkpt lat="48.71363" lon="2.48482">
        <ele>39.7</ele>
        <time>2022-11-02T12:37:53Z</time>
      </trkpt>
      <trkpt lat="48.71361" lon="2.48489">
        <ele>39.3</ele>
        <time>2022-11-02T12:37:57Z</time>
      </trkpt>
      <trkpt lat="48.7136" lon="2.48496">
        <ele>39.6</ele>
        <time>2022-11-02T12:38:01Z</time>
      </trkpt>
      <trkpt lat="48.7136" lon="2.48504">
        <ele>40.4</ele>
        <time>2022-11-02T12:38:06Z</time>
      </trkpt>
      <trkpt lat="48.71358" lon="2.48512">
        <ele>40.7</ele>
        <time>2022-11-02T12:38:11Z</time>
      </trkpt>
      <trkpt lat="48.71357" lon="2.4852">
        <ele>41.3</ele>
        <time>2022-11-02T12:38:16Z</time>
      </trkpt>
      <trkpt lat="48.71357" lon="2.48527">
        <ele>41.9</ele>
        <time>2022-11-02T12:38:20Z</time>
      </trkpt>
      <trkpt lat="48.71356" lon="2.48535">
        <ele>43.2</ele>
        <time>2022-11-02T12:38:25Z</time>
      </trkpt>
      <trkpt lat="48.71355" lon="2.48542">
        <ele>43.4</ele>
        <time>2022-11-02T12:38:29Z</time>
      </trkpt>
      <trkpt lat="48.71354" lon="2.4855">
        <ele>43.2</ele>
        <time>2022-11-02T12:38:34Z</time>
      </trkpt>
      <trkpt lat="48.71353" lon="2.48557">
        <ele>43.1</ele>
        <time>2022-11-02T12:38:39Z</time>
      </trkpt>
      <trkpt lat="48.71352" lon="2.48566">
        <ele>43.7</ele>
        <time>2022-11-02T12:38:44Z</time>
      </trkpt>
      <trkpt lat="48.71352" lon="2.48574">
        <ele>43.9</ele>
        <time>2022-11-02T12:38:49Z</time>
      </trkpt>
      <trkpt lat="48.71351" lon="2.48582">
        <ele>43.9</ele>
        <time>2022-11-02T12:38:54Z</time>
      </trkpt>
      <trkpt lat="48.7135" lon="2.4859">
        <ele>43.9</ele>
        <time>2022-11-02T12:38:59Z</time>
      </trkpt>
      <trkpt lat="48.71349" lon="2.48597">
        <ele>44.9</ele>
        <time>2022-11-02T12:39:03Z</time>
      </trkpt>
      <trkpt lat="48.71349" lon="2.48604">
        <ele>45.4</ele>
        <time>2022-11-02T12:39:08Z</time>
      </trkpt>
      <trkpt lat="48.71348" lon="2.48612">
        <ele>46</ele>
        <time>2022-11-02T12:39:13Z</time>
      </trkpt>
      <trkpt lat="48.71349" lon="2.4862">
        <ele>45.5</ele>
        <time>2022-11-02T12:39:19Z</time>
      </trkpt>
      <trkpt lat="48.71348" lon="2.48627">
        <ele>45.2</ele>
        <time>2022-11-02T12:39:24Z</time>
      </trkpt>
      <trkpt lat="48.71347" lon="2.48636">
        <ele>44.7</ele>
        <time>2022-11-02T12:39:29Z</time>
      </trkpt>
      <trkpt lat="48.71347" lon="2.48643">
        <ele>44.1</ele>
        <time>2022-11-02T12:39:33Z</time>
      </trkpt>
      <trkpt lat="48.71346" lon="2.4865">
        <ele>43.9</ele>
        <time>2022-11-02T12:39:37Z</time>
      </trkpt>
      <trkpt lat="48.71345" lon="2.48657">
        <ele>44.6</ele>
        <time>2022-11-02T12:39:41Z</time>
      </trkpt>
      <trkpt lat="48.71344" lon="2.48664">
        <ele>44.6</ele>
        <time>2022-11-02T12:39:45Z</time>
      </trkpt>
      <trkpt lat="48.71343" lon="2.48673">
        <ele>45.5</ele>
        <time>2022-11-02T12:39:50Z</time>
      </trkpt>
      <trkpt lat="48.71342" lon="2.4868">
        <ele>46</ele>
        <time>2022-11-02T12:39:54Z</time>
      </trkpt>
      <trkpt lat="48.71341" lon="2.48688">
        <ele>46.3</ele>
        <time>2022-11-02T12:39:59Z</time>
      </trkpt>
      <trkpt lat="48.71341" lon="2.48695">
        <ele>46.1</ele>
        <time>2022-11-02T12:40:03Z</time>
      </trkpt>
      <trkpt lat="48.7134" lon="2.48702">
        <ele>46.3</ele>
        <time>2022-11-02T12:40:07Z</time>
      </trkpt>
      <trkpt lat="48.71339" lon="2.4871">
        <ele>45.7</ele>
        <time>2022-11-02T12:40:12Z</time>
      </trkpt>
      <trkpt lat="48.71338" lon="2.48717">
        <ele>44.7</ele>
        <time>2022-11-02T12:40:17Z</time>
      </trkpt>
      <trkpt lat="48.71337" lon="2.48724">
        <ele>44.3</ele>
        <time>2022-11-02T12:40:22Z</time>
      </trkpt>
      <trkpt lat="48.71336" lon="2.48732">
        <ele>44.1</ele>
        <time>2022-11-02T12:40:27Z</time>
      </trkpt>
      <trkpt lat="48.71335" lon="2.48739">
        <ele>43.6</ele>
        <time>2022-11-02T12:40:32Z</time>
      </trkpt>
      <trkpt lat="48.71334" lon="2.48748">
        <ele>43.5</ele>
        <time>2022-11-02T12:40:37Z</time>
      </trkpt>
      <trkpt lat="48.71335" lon="2.48755">
        <ele>42.7</ele>
        <time>2022-11-02T12:40:41Z</time>
      </trkpt>
      <trkpt lat="48.71336" lon="2.48763">
        <ele>43.8</ele>
        <time>2022-11-02T12:40:45Z</time>
      </trkpt>
      <trkpt lat="48.71336" lon="2.48771">
        <ele>45</ele>
        <time>2022-11-02T12:40:50Z</time>
      </trkpt>
      <trkpt lat="48.71334" lon="2.48778">
        <ele>44.4</ele>
        <time>2022-11-02T12:40:54Z</time>
      </trkpt>
      <trkpt lat="48.71332" lon="2.48786">
        <ele>42.6</ele>
        <time>2022-11-02T12:40:59Z</time>
      </trkpt>
      <trkpt lat="48.71332" lon="2.48794">
        <ele>41.4</ele>
        <time>2022-11-02T12:41:04Z</time>
      </trkpt>
      <trkpt lat="48.71331" lon="2.48801">
        <ele>41.3</ele>
        <time>2022-11-02T12:41:08Z</time>
      </trkpt>
      <trkpt lat="48.7133" lon="2.48808">
        <ele>41</ele>
        <time>2022-11-02T12:41:12Z</time>
      </trkpt>
      <trkpt lat="48.71329" lon="2.48814">
        <ele>40.7</ele>
        <time>2022-11-02T12:41:16Z</time>
      </trkpt>
      <trkpt lat="48.71328" lon="2.48821">
        <ele>40.2</ele>
        <time>2022-11-02T12:41:20Z</time>
      </trkpt>
      <trkpt lat="48.71326" lon="2.48829">
        <ele>38.8</ele>
        <time>2022-11-02T12:41:25Z</time>
      </trkpt>
      <trkpt lat="48.71326" lon="2.48836">
        <ele>37.2</ele>
        <time>2022-11-02T12:41:30Z</time>
      </trkpt>
      <trkpt lat="48.71325" lon="2.48843">
        <ele>37.1</ele>
        <time>2022-11-02T12:41:34Z</time>
      </trkpt>
      <trkpt lat="48.71325" lon="2.48852">
        <ele>38</ele>
        <time>2022-11-02T12:41:38Z</time>
      </trkpt>
      <trkpt lat="48.71327" lon="2.48858">
        <ele>38.3</ele>
        <time>2022-11-02T12:41:41Z</time>
      </trkpt>
      <trkpt lat="48.71331" lon="2.48863">
        <ele>38.4</ele>
        <time>2022-11-02T12:41:45Z</time>
      </trkpt>
      <trkpt lat="48.71336" lon="2.48865">
        <ele>37.6</ele>
        <time>2022-11-02T12:41:50Z</time>
      </trkpt>
      <trkpt lat="48.71341" lon="2.48868">
        <ele>36.7</ele>
        <time>2022-11-02T12:41:55Z</time>
      </trkpt>
      <trkpt lat="48.71345" lon="2.48873">
        <ele>36.1</ele>
        <time>2022-11-02T12:42:00Z</time>
      </trkpt>
      <trkpt lat="48.71348" lon="2.48878">
        <ele>36.7</ele>
        <time>2022-11-02T12:42:03Z</time>
      </trkpt>
      <trkpt lat="48.71351" lon="2.48884">
        <ele>37.7</ele>
        <time>2022-11-02T12:42:06Z</time>
      </trkpt>
      <trkpt lat="48.71354" lon="2.4889">
        <ele>38.1</ele>
        <time>2022-11-02T12:42:09Z</time>
      </trkpt>
      <trkpt lat="48.71358" lon="2.48895">
        <ele>38.1</ele>
        <time>2022-11-02T12:42:13Z</time>
      </trkpt>
      <trkpt lat="48.71362" lon="2.48899">
        <ele>38.1</ele>
        <time>2022-11-02T12:42:17Z</time>
      </trkpt>
      <trkpt lat="48.71366" lon="2.48902">
        <ele>38</ele>
        <time>2022-11-02T12:42:21Z</time>
      </trkpt>
      <trkpt lat="48.71371" lon="2.48905">
        <ele>37.7</ele>
        <time>2022-11-02T12:42:26Z</time>
      </trkpt>
      <trkpt lat="48.71375" lon="2.48908">
        <ele>38.1</ele>
        <time>2022-11-02T12:42:30Z</time>
      </trkpt>
      <trkpt lat="48.7138" lon="2.48911">
        <ele>38</ele>
        <time>2022-11-02T12:42:37Z</time>
      </trkpt>
      <trkpt lat="48.71385" lon="2.48912">
        <ele>36.8</ele>
        <time>2022-11-02T12:42:41Z</time>
      </trkpt>
      <trkpt lat="48.7139" lon="2.48915">
        <ele>36.9</ele>
        <time>2022-11-02T12:42:46Z</time>
      </trkpt>
      <trkpt lat="48.71394" lon="2.48918">
        <ele>37.4</ele>
        <time>2022-11-02T12:42:50Z</time>
      </trkpt>
      <trkpt lat="48.71399" lon="2.48921">
        <ele>37.8</ele>
        <time>2022-11-02T12:42:54Z</time>
      </trkpt>
      <trkpt lat="48.71403" lon="2.48924">
        <ele>37.4</ele>
        <time>2022-11-02T12:42:59Z</time>
      </trkpt>
      <trkpt lat="48.71408" lon="2.48928">
        <ele>38.5</ele>
        <time>2022-11-02T12:43:04Z</time>
      </trkpt>
      <trkpt lat="48.71413" lon="2.48931">
        <ele>39.4</ele>
        <time>2022-11-02T12:43:08Z</time>
      </trkpt>
      <trkpt lat="48.71418" lon="2.48934">
        <ele>40.8</ele>
        <time>2022-11-02T12:43:12Z</time>
      </trkpt>
      <trkpt lat="48.71422" lon="2.48938">
        <ele>41.2</ele>
        <time>2022-11-02T12:43:17Z</time>
      </trkpt>
      <trkpt lat="48.71427" lon="2.4894">
        <ele>40.1</ele>
        <time>2022-11-02T12:43:22Z</time>
      </trkpt>
      <trkpt lat="48.71433" lon="2.48942">
        <ele>39.4</ele>
        <time>2022-11-02T12:43:26Z</time>
      </trkpt>
      <trkpt lat="48.71438" lon="2.48944">
        <ele>39.4</ele>
        <time>2022-11-02T12:43:30Z</time>
      </trkpt>
      <trkpt lat="48.71443" lon="2.48946">
        <ele>40</ele>
        <time>2022-11-02T12:43:34Z</time>
      </trkpt>
      <trkpt lat="48.71448" lon="2.48949">
        <ele>40.6</ele>
        <time>2022-11-02T12:43:38Z</time>
      </trkpt>
      <trkpt lat="48.71453" lon="2.48952">
        <ele>41.2</ele>
        <time>2022-11-02T12:43:42Z</time>
      </trkpt>
      <trkpt lat="48.71458" lon="2.48955">
        <ele>41.6</ele>
        <time>2022-11-02T12:43:46Z</time>
      </trkpt>
      <trkpt lat="48.71463" lon="2.48957">
        <ele>42.8</ele>
        <time>2022-11-02T12:43:50Z</time>
      </trkpt>
      <trkpt lat="48.71467" lon="2.4896">
        <ele>43.3</ele>
        <time>2022-11-02T12:43:54Z</time>
      </trkpt>
      <trkpt lat="48.71472" lon="2.48962">
        <ele>43.7</ele>
        <time>2022-11-02T12:44:00Z</time>
      </trkpt>
      <trkpt lat="48.71477" lon="2.48966">
        <ele>44.2</ele>
        <time>2022-11-02T12:44:05Z</time>
      </trkpt>
      <trkpt lat="48.71482" lon="2.48969">
        <ele>44.5</ele>
        <time>2022-11-02T12:44:10Z</time>
      </trkpt>
      <trkpt lat="48.71486" lon="2.48973">
        <ele>45.4</ele>
        <time>2022-11-02T12:44:15Z</time>
      </trkpt>
      <trkpt lat="48.71491" lon="2.48976">
        <ele>46.2</ele>
        <time>2022-11-02T12:44:19Z</time>
      </trkpt>
      <trkpt lat="48.71496" lon="2.48979">
        <ele>46.8</ele>
        <time>2022-11-02T12:44:23Z</time>
      </trkpt>
      <trkpt lat="48.71501" lon="2.48983">
        <ele>47.8</ele>
        <time>2022-11-02T12:44:27Z</time>
      </trkpt>
      <trkpt lat="48.71505" lon="2.48986">
        <ele>48.1</ele>
        <time>2022-11-02T12:44:31Z</time>
      </trkpt>
      <trkpt lat="48.71509" lon="2.4899">
        <ele>47.6</ele>
        <time>2022-11-02T12:44:37Z</time>
      </trkpt>
      <trkpt lat="48.71513" lon="2.48995">
        <ele>47.7</ele>
        <time>2022-11-02T12:44:43Z</time>
      </trkpt>
      <trkpt lat="48.71518" lon="2.48998">
        <ele>46.3</ele>
        <time>2022-11-02T12:44:48Z</time>
      </trkpt>
      <trkpt lat="48.71522" lon="2.49002">
        <ele>44.8</ele>
        <time>2022-11-02T12:44:55Z</time>
      </trkpt>
      <trkpt lat="48.71523" lon="2.49009">
        <ele>44.5</ele>
        <time>2022-11-02T12:45:01Z</time>
      </trkpt>
      <trkpt lat="48.71526" lon="2.49015">
        <ele>45</ele>
        <time>2022-11-02T12:45:05Z</time>
      </trkpt>
      <trkpt lat="48.7153" lon="2.49021">
        <ele>44.7</ele>
        <time>2022-11-02T12:45:09Z</time>
      </trkpt>
      <trkpt lat="48.71533" lon="2.49027">
        <ele>44.2</ele>
        <time>2022-11-02T12:45:13Z</time>
      </trkpt>
      <trkpt lat="48.71532" lon="2.49035">
        <ele>43.1</ele>
        <time>2022-11-02T12:45:18Z</time>
      </trkpt>
      <trkpt lat="48.71529" lon="2.49042">
        <ele>41.8</ele>
        <time>2022-11-02T12:45:22Z</time>
      </trkpt>
      <trkpt lat="48.71527" lon="2.49047">
        <ele>40</ele>
        <time>2022-11-02T12:45:27Z</time>
      </trkpt>
      <trkpt lat="48.71528" lon="2.49055">
        <ele>38.9</ele>
        <time>2022-11-02T12:45:33Z</time>
      </trkpt>
      <trkpt lat="48.71526" lon="2.49062">
        <ele>38.7</ele>
        <time>2022-11-02T12:45:38Z</time>
      </trkpt>
      <trkpt lat="48.71524" lon="2.49068">
        <ele>39.1</ele>
        <time>2022-11-02T12:45:42Z</time>
      </trkpt>
      <trkpt lat="48.71522" lon="2.49076">
        <ele>39.9</ele>
        <time>2022-11-02T12:45:47Z</time>
      </trkpt>
      <trkpt lat="48.7152" lon="2.49085">
        <ele>39.5</ele>
        <time>2022-11-02T12:45:50Z</time>
      </trkpt>
      <trkpt lat="48.71517" lon="2.49091">
        <ele>38.9</ele>
        <time>2022-11-02T12:45:53Z</time>
      </trkpt>
      <trkpt lat="48.71514" lon="2.49096">
        <ele>38.3</ele>
        <time>2022-11-02T12:46:05Z</time>
      </trkpt>
      <trkpt lat="48.7151" lon="2.49103">
        <ele>39.1</ele>
        <time>2022-11-02T12:46:10Z</time>
      </trkpt>
      <trkpt lat="48.71507" lon="2.49109">
        <ele>39.6</ele>
        <time>2022-11-02T12:46:14Z</time>
      </trkpt>
      <trkpt lat="48.71505" lon="2.49116">
        <ele>39.8</ele>
        <time>2022-11-02T12:46:18Z</time>
      </trkpt>
      <trkpt lat="48.71503" lon="2.49123">
        <ele>40.3</ele>
        <time>2022-11-02T12:46:22Z</time>
      </trkpt>
      <trkpt lat="48.715" lon="2.49129">
        <ele>40.2</ele>
        <time>2022-11-02T12:46:27Z</time>
      </trkpt>
      <trkpt lat="48.71498" lon="2.49137">
        <ele>40.5</ele>
        <time>2022-11-02T12:46:31Z</time>
      </trkpt>
      <trkpt lat="48.71496" lon="2.49144">
        <ele>40.5</ele>
        <time>2022-11-02T12:46:36Z</time>
      </trkpt>
      <trkpt lat="48.71494" lon="2.49151">
        <ele>40.3</ele>
        <time>2022-11-02T12:46:41Z</time>
      </trkpt>
      <trkpt lat="48.71492" lon="2.49158">
        <ele>40.3</ele>
        <time>2022-11-02T12:46:46Z</time>
      </trkpt>
      <trkpt lat="48.71489" lon="2.49164">
        <ele>41.1</ele>
        <time>2022-11-02T12:46:51Z</time>
      </trkpt>
      <trkpt lat="48.71484" lon="2.49163">
        <ele>41.2</ele>
        <time>2022-11-02T12:46:56Z</time>
      </trkpt>
      <trkpt lat="48.7148" lon="2.49159">
        <ele>40.5</ele>
        <time>2022-11-02T12:47:01Z</time>
      </trkpt>
      <trkpt lat="48.71476" lon="2.49154">
        <ele>40.8</ele>
        <time>2022-11-02T12:47:05Z</time>
      </trkpt>
      <trkpt lat="48.71472" lon="2.4915">
        <ele>40.9</ele>
        <time>2022-11-02T12:47:09Z</time>
      </trkpt>
      <trkpt lat="48.71469" lon="2.49145">
        <ele>39.6</ele>
        <time>2022-11-02T12:47:14Z</time>
      </trkpt>
      <trkpt lat="48.71464" lon="2.49141">
        <ele>38.7</ele>
        <time>2022-11-02T12:47:19Z</time>
      </trkpt>
      <trkpt lat="48.7146" lon="2.49138">
        <ele>38.2</ele>
        <time>2022-11-02T12:47:23Z</time>
      </trkpt>
      <trkpt lat="48.71455" lon="2.49137">
        <ele>37.9</ele>
        <time>2022-11-02T12:47:27Z</time>
      </trkpt>
      <trkpt lat="48.71451" lon="2.4914">
        <ele>37.4</ele>
        <time>2022-11-02T12:47:31Z</time>
      </trkpt>
      <trkpt lat="48.71446" lon="2.49144">
        <ele>37.4</ele>
        <time>2022-11-02T12:47:35Z</time>
      </trkpt>
      <trkpt lat="48.71441" lon="2.49147">
        <ele>37.1</ele>
        <time>2022-11-02T12:47:39Z</time>
      </trkpt>
      <trkpt lat="48.71438" lon="2.49153">
        <ele>36.9</ele>
        <time>2022-11-02T12:47:43Z</time>
      </trkpt>
      <trkpt lat="48.71437" lon="2.4916">
        <ele>36.9</ele>
        <time>2022-11-02T12:47:47Z</time>
      </trkpt>
      <trkpt lat="48.7144" lon="2.49166">
        <ele>37.5</ele>
        <time>2022-11-02T12:47:51Z</time>
      </trkpt>
      <trkpt lat="48.71441" lon="2.49173">
        <ele>38.4</ele>
        <time>2022-11-02T12:47:55Z</time>
      </trkpt>
      <trkpt lat="48.71438" lon="2.4918">
        <ele>37.9</ele>
        <time>2022-11-02T12:47:59Z</time>
      </trkpt>
      <trkpt lat="48.71436" lon="2.49186">
        <ele>36.9</ele>
        <time>2022-11-02T12:48:04Z</time>
      </trkpt>
      <trkpt lat="48.71432" lon="2.49191">
        <ele>37.1</ele>
        <time>2022-11-02T12:48:08Z</time>
      </trkpt>
      <trkpt lat="48.71428" lon="2.49196">
        <ele>36.9</ele>
        <time>2022-11-02T12:48:13Z</time>
      </trkpt>
      <trkpt lat="48.71424" lon="2.49201">
        <ele>36</ele>
        <time>2022-11-02T12:48:17Z</time>
      </trkpt>
      <trkpt lat="48.71421" lon="2.49206">
        <ele>34.8</ele>
        <time>2022-11-02T12:48:22Z</time>
      </trkpt>
      <trkpt lat="48.71418" lon="2.49213">
        <ele>34.5</ele>
        <time>2022-11-02T12:48:27Z</time>
      </trkpt>
      <trkpt lat="48.71416" lon="2.4922">
        <ele>35.1</ele>
        <time>2022-11-02T12:48:31Z</time>
      </trkpt>
      <trkpt lat="48.71413" lon="2.49227">
        <ele>35.6</ele>
        <time>2022-11-02T12:48:35Z</time>
      </trkpt>
      <trkpt lat="48.71411" lon="2.49234">
        <ele>35.4</ele>
        <time>2022-11-02T12:48:39Z</time>
      </trkpt>
      <trkpt lat="48.71409" lon="2.4924">
        <ele>35.2</ele>
        <time>2022-11-02T12:48:43Z</time>
      </trkpt>
      <trkpt lat="48.71408" lon="2.49247">
        <ele>35.2</ele>
        <time>2022-11-02T12:48:48Z</time>
      </trkpt>
      <trkpt lat="48.71403" lon="2.49249">
        <ele>36.8</ele>
        <time>2022-11-02T12:48:54Z</time>
      </trkpt>
      <trkpt lat="48.71399" lon="2.49252">
        <ele>38.3</ele>
        <time>2022-11-02T12:49:07Z</time>
      </trkpt>
      <trkpt lat="48.71397" lon="2.4926">
        <ele>38.3</ele>
        <time>2022-11-02T12:49:13Z</time>
      </trkpt>
      <trkpt lat="48.71395" lon="2.49267">
        <ele>39</ele>
        <time>2022-11-02T12:49:17Z</time>
      </trkpt>
      <trkpt lat="48.71394" lon="2.49274">
        <ele>39.2</ele>
        <time>2022-11-02T12:49:22Z</time>
      </trkpt>
      <trkpt lat="48.7139" lon="2.49278">
        <ele>38.8</ele>
        <time>2022-11-02T12:49:27Z</time>
      </trkpt>
      <trkpt lat="48.71385" lon="2.49281">
        <ele>38.8</ele>
        <time>2022-11-02T12:49:31Z</time>
      </trkpt>
      <trkpt lat="48.71381" lon="2.49283">
        <ele>38.9</ele>
        <time>2022-11-02T12:49:36Z</time>
      </trkpt>
      <trkpt lat="48.71377" lon="2.49287">
        <ele>39.5</ele>
        <time>2022-11-02T12:49:41Z</time>
      </trkpt>
      <trkpt lat="48.71372" lon="2.49292">
        <ele>38.9</ele>
        <time>2022-11-02T12:49:46Z</time>
      </trkpt>
      <trkpt lat="48.71368" lon="2.49298">
        <ele>38.5</ele>
        <time>2022-11-02T12:49:51Z</time>
      </trkpt>
      <trkpt lat="48.71364" lon="2.49303">
        <ele>37.9</ele>
        <time>2022-11-02T12:49:56Z</time>
      </trkpt>
      <trkpt lat="48.7136" lon="2.49307">
        <ele>37.5</ele>
        <time>2022-11-02T12:50:00Z</time>
      </trkpt>
      <trkpt lat="48.71355" lon="2.49311">
        <ele>37.7</ele>
        <time>2022-11-02T12:50:05Z</time>
      </trkpt>
      <trkpt lat="48.7135" lon="2.49315">
        <ele>38.3</ele>
        <time>2022-11-02T12:50:09Z</time>
      </trkpt>
      <trkpt lat="48.71345" lon="2.49313">
        <ele>37.9</ele>
        <time>2022-11-02T12:50:15Z</time>
      </trkpt>
      <trkpt lat="48.71341" lon="2.49309">
        <ele>38</ele>
        <time>2022-11-02T12:50:21Z</time>
      </trkpt>
      <trkpt lat="48.71337" lon="2.49305">
        <ele>38.6</ele>
        <time>2022-11-02T12:50:27Z</time>
      </trkpt>
      <trkpt lat="48.71331" lon="2.49304">
        <ele>39.6</ele>
        <time>2022-11-02T12:50:33Z</time>
      </trkpt>
      <trkpt lat="48.71326" lon="2.49305">
        <ele>40.2</ele>
        <time>2022-11-02T12:50:38Z</time>
      </trkpt>
      <trkpt lat="48.71322" lon="2.49309">
        <ele>40.3</ele>
        <time>2022-11-02T12:50:43Z</time>
      </trkpt>
      <trkpt lat="48.71317" lon="2.49312">
        <ele>40.6</ele>
        <time>2022-11-02T12:50:47Z</time>
      </trkpt>
      <trkpt lat="48.71312" lon="2.49314">
        <ele>40.8</ele>
        <time>2022-11-02T12:50:51Z</time>
      </trkpt>
      <trkpt lat="48.71307" lon="2.49316">
        <ele>40.9</ele>
        <time>2022-11-02T12:50:55Z</time>
      </trkpt>
      <trkpt lat="48.71303" lon="2.49318">
        <ele>41.1</ele>
        <time>2022-11-02T12:50:59Z</time>
      </trkpt>
      <trkpt lat="48.71298" lon="2.49321">
        <ele>40.8</ele>
        <time>2022-11-02T12:51:03Z</time>
      </trkpt>
      <trkpt lat="48.71294" lon="2.49325">
        <ele>40.6</ele>
        <time>2022-11-02T12:51:07Z</time>
      </trkpt>
      <trkpt lat="48.7129" lon="2.49331">
        <ele>40.2</ele>
        <time>2022-11-02T12:51:12Z</time>
      </trkpt>
      <trkpt lat="48.71287" lon="2.49337">
        <ele>40.7</ele>
        <time>2022-11-02T12:51:16Z</time>
      </trkpt>
      <trkpt lat="48.71285" lon="2.49343">
        <ele>42</ele>
        <time>2022-11-02T12:51:20Z</time>
      </trkpt>
      <trkpt lat="48.71283" lon="2.4935">
        <ele>43.1</ele>
        <time>2022-11-02T12:51:24Z</time>
      </trkpt>
      <trkpt lat="48.7128" lon="2.49357">
        <ele>43.9</ele>
        <time>2022-11-02T12:51:29Z</time>
      </trkpt>
      <trkpt lat="48.71277" lon="2.4936">
        <ele>43.6</ele>
        <time>2022-11-02T12:51:33Z</time>
      </trkpt>
      <trkpt lat="48.71272" lon="2.49366">
        <ele>42.5</ele>
        <time>2022-11-02T12:51:38Z</time>
      </trkpt>
      <trkpt lat="48.71268" lon="2.49371">
        <ele>42</ele>
        <time>2022-11-02T12:51:42Z</time>
      </trkpt>
      <trkpt lat="48.71264" lon="2.49375">
        <ele>41.4</ele>
        <time>2022-11-02T12:51:46Z</time>
      </trkpt>
      <trkpt lat="48.7126" lon="2.4938">
        <ele>40.7</ele>
        <time>2022-11-02T12:51:51Z</time>
      </trkpt>
      <trkpt lat="48.71256" lon="2.49383">
        <ele>40.5</ele>
        <time>2022-11-02T12:51:55Z</time>
      </trkpt>
      <trkpt lat="48.71251" lon="2.49386">
        <ele>40.2</ele>
        <time>2022-11-02T12:51:59Z</time>
      </trkpt>
      <trkpt lat="48.71246" lon="2.49388">
        <ele>38.9</ele>
        <time>2022-11-02T12:52:05Z</time>
      </trkpt>
      <trkpt lat="48.71241" lon="2.4939">
        <ele>38.9</ele>
        <time>2022-11-02T12:52:10Z</time>
      </trkpt>
      <trkpt lat="48.71235" lon="2.49391">
        <ele>40.1</ele>
        <time>2022-11-02T12:52:14Z</time>
      </trkpt>
      <trkpt lat="48.7123" lon="2.49393">
        <ele>40.9</ele>
        <time>2022-11-02T12:52:18Z</time>
      </trkpt>
      <trkpt lat="48.71225" lon="2.49394">
        <ele>41</ele>
        <time>2022-11-02T12:52:22Z</time>
      </trkpt>
      <trkpt lat="48.7122" lon="2.49396">
        <ele>40.9</ele>
        <time>2022-11-02T12:52:26Z</time>
      </trkpt>
      <trkpt lat="48.71216" lon="2.49398">
        <ele>41</ele>
        <time>2022-11-02T12:52:30Z</time>
      </trkpt>
      <trkpt lat="48.71211" lon="2.494">
        <ele>41.3</ele>
        <time>2022-11-02T12:52:34Z</time>
      </trkpt>
      <trkpt lat="48.71206" lon="2.49405">
        <ele>41.1</ele>
        <time>2022-11-02T12:52:39Z</time>
      </trkpt>
      <trkpt lat="48.71202" lon="2.49408">
        <ele>41</ele>
        <time>2022-11-02T12:52:43Z</time>
      </trkpt>
      <trkpt lat="48.71198" lon="2.49412">
        <ele>40.9</ele>
        <time>2022-11-02T12:52:48Z</time>
      </trkpt>
      <trkpt lat="48.71194" lon="2.49417">
        <ele>40.8</ele>
        <time>2022-11-02T12:52:53Z</time>
      </trkpt>
      <trkpt lat="48.71191" lon="2.49422">
        <ele>40.7</ele>
        <time>2022-11-02T12:52:58Z</time>
      </trkpt>
      <trkpt lat="48.71186" lon="2.49426">
        <ele>41.6</ele>
        <time>2022-11-02T12:53:03Z</time>
      </trkpt>
      <trkpt lat="48.71182" lon="2.49429">
        <ele>40.5</ele>
        <time>2022-11-02T12:53:08Z</time>
      </trkpt>
      <trkpt lat="48.71178" lon="2.49433">
        <ele>38.6</ele>
        <time>2022-11-02T12:53:13Z</time>
      </trkpt>
      <trkpt lat="48.71173" lon="2.49437">
        <ele>37.4</ele>
        <time>2022-11-02T12:53:17Z</time>
      </trkpt>
      <trkpt lat="48.71168" lon="2.4944">
        <ele>37.7</ele>
        <time>2022-11-02T12:53:21Z</time>
      </trkpt>
      <trkpt lat="48.71163" lon="2.49444">
        <ele>37.9</ele>
        <time>2022-11-02T12:53:26Z</time>
      </trkpt>
      <trkpt lat="48.71159" lon="2.49449">
        <ele>37.8</ele>
        <time>2022-11-02T12:53:31Z</time>
      </trkpt>
      <trkpt lat="48.71156" lon="2.49454">
        <ele>38.8</ele>
        <time>2022-11-02T12:53:35Z</time>
      </trkpt>
      <trkpt lat="48.71153" lon="2.49459">
        <ele>39.1</ele>
        <time>2022-11-02T12:53:39Z</time>
      </trkpt>
      <trkpt lat="48.7115" lon="2.49464">
        <ele>39.8</ele>
        <time>2022-11-02T12:53:43Z</time>
      </trkpt>
      <trkpt lat="48.71145" lon="2.49468">
        <ele>41.6</ele>
        <time>2022-11-02T12:53:48Z</time>
      </trkpt>
      <trkpt lat="48.7114" lon="2.49472">
        <ele>43</ele>
        <time>2022-11-02T12:53:53Z</time>
      </trkpt>
      <trkpt lat="48.71135" lon="2.49477">
        <ele>44.1</ele>
        <time>2022-11-02T12:53:57Z</time>
      </trkpt>
      <trkpt lat="48.71131" lon="2.49482">
        <ele>44.5</ele>
        <time>2022-11-02T12:54:02Z</time>
      </trkpt>
      <trkpt lat="48.71127" lon="2.49486">
        <ele>44.5</ele>
        <time>2022-11-02T12:54:06Z</time>
      </trkpt>
      <trkpt lat="48.71123" lon="2.4949">
        <ele>45.2</ele>
        <time>2022-11-02T12:54:10Z</time>
      </trkpt>
      <trkpt lat="48.71119" lon="2.49493">
        <ele>46.2</ele>
        <time>2022-11-02T12:54:14Z</time>
      </trkpt>
      <trkpt lat="48.71114" lon="2.49496">
        <ele>47</ele>
        <time>2022-11-02T12:54:18Z</time>
      </trkpt>
      <trkpt lat="48.71108" lon="2.49498">
        <ele>47.6</ele>
        <time>2022-11-02T12:54:22Z</time>
      </trkpt>
      <trkpt lat="48.71104" lon="2.49501">
        <ele>47.7</ele>
        <time>2022-11-02T12:54:26Z</time>
      </trkpt>
      <trkpt lat="48.71098" lon="2.49503">
        <ele>47.8</ele>
        <time>2022-11-02T12:54:30Z</time>
      </trkpt>
      <trkpt lat="48.71094" lon="2.49504">
        <ele>48.2</ele>
        <time>2022-11-02T12:54:34Z</time>
      </trkpt>
      <trkpt lat="48.71089" lon="2.49504">
        <ele>48</ele>
        <time>2022-11-02T12:54:38Z</time>
      </trkpt>
      <trkpt lat="48.71084" lon="2.49507">
        <ele>46.8</ele>
        <time>2022-11-02T12:54:43Z</time>
      </trkpt>
      <trkpt lat="48.71079" lon="2.49509">
        <ele>46.3</ele>
        <time>2022-11-02T12:54:49Z</time>
      </trkpt>
      <trkpt lat="48.71074" lon="2.49511">
        <ele>46.5</ele>
        <time>2022-11-02T12:54:54Z</time>
      </trkpt>
      <trkpt lat="48.71069" lon="2.49514">
        <ele>46.5</ele>
        <time>2022-11-02T12:54:59Z</time>
      </trkpt>
      <trkpt lat="48.71064" lon="2.49517">
        <ele>46</ele>
        <time>2022-11-02T12:55:04Z</time>
      </trkpt>
      <trkpt lat="48.7106" lon="2.49519">
        <ele>45.5</ele>
        <time>2022-11-02T12:55:08Z</time>
      </trkpt>
      <trkpt lat="48.71056" lon="2.49522">
        <ele>45.2</ele>
        <time>2022-11-02T12:55:12Z</time>
      </trkpt>
      <trkpt lat="48.71051" lon="2.49526">
        <ele>43.9</ele>
        <time>2022-11-02T12:55:17Z</time>
      </trkpt>
      <trkpt lat="48.71047" lon="2.4953">
        <ele>42.7</ele>
        <time>2022-11-02T12:55:21Z</time>
      </trkpt>
      <trkpt lat="48.71042" lon="2.49533">
        <ele>42</ele>
        <time>2022-11-02T12:55:25Z</time>
      </trkpt>
      <trkpt lat="48.71038" lon="2.49537">
        <ele>41.9</ele>
        <time>2022-11-02T12:55:29Z</time>
      </trkpt>
      <trkpt lat="48.71034" lon="2.49541">
        <ele>42.2</ele>
        <time>2022-11-02T12:55:33Z</time>
      </trkpt>
      <trkpt lat="48.71032" lon="2.49547">
        <ele>42.4</ele>
        <time>2022-11-02T12:55:37Z</time>
      </trkpt>
      <trkpt lat="48.71029" lon="2.49553">
        <ele>42</ele>
        <time>2022-11-02T12:55:41Z</time>
      </trkpt>
      <trkpt lat="48.71026" lon="2.4956">
        <ele>41</ele>
        <time>2022-11-02T12:55:46Z</time>
      </trkpt>
      <trkpt lat="48.71024" lon="2.49566">
        <ele>39.8</ele>
        <time>2022-11-02T12:55:50Z</time>
      </trkpt>
      <trkpt lat="48.71021" lon="2.49573">
        <ele>40.1</ele>
        <time>2022-11-02T12:55:54Z</time>
      </trkpt>
      <trkpt lat="48.71019" lon="2.49579">
        <ele>40.7</ele>
        <time>2022-11-02T12:55:58Z</time>
      </trkpt>
      <trkpt lat="48.71016" lon="2.49586">
        <ele>40.7</ele>
        <time>2022-11-02T12:56:03Z</time>
      </trkpt>
      <trkpt lat="48.71013" lon="2.49592">
        <ele>39.7</ele>
        <time>2022-11-02T12:56:08Z</time>
      </trkpt>
      <trkpt lat="48.7101" lon="2.49599">
        <ele>39.2</ele>
        <time>2022-11-02T12:56:13Z</time>
      </trkpt>
      <trkpt lat="48.71006" lon="2.49605">
        <ele>39.5</ele>
        <time>2022-11-02T12:56:18Z</time>
      </trkpt>
      <trkpt lat="48.71002" lon="2.4961">
        <ele>40.8</ele>
        <time>2022-11-02T12:56:22Z</time>
      </trkpt>
      <trkpt lat="48.70998" lon="2.49615">
        <ele>42.2</ele>
        <time>2022-11-02T12:56:26Z</time>
      </trkpt>
      <trkpt lat="48.70994" lon="2.4962">
        <ele>41.7</ele>
        <time>2022-11-02T12:56:30Z</time>
      </trkpt>
      <trkpt lat="48.7099" lon="2.49625">
        <ele>40.7</ele>
        <time>2022-11-02T12:56:35Z</time>
      </trkpt>
      <trkpt lat="48.70986" lon="2.49629">
        <ele>40.4</ele>
        <time>2022-11-02T12:56:39Z</time>
      </trkpt>
      <trkpt lat="48.70982" lon="2.49632">
        <ele>40.3</ele>
        <time>2022-11-02T12:56:43Z</time>
      </trkpt>
      <trkpt lat="48.70978" lon="2.49635">
        <ele>40.4</ele>
        <time>2022-11-02T12:56:48Z</time>
      </trkpt>
      <trkpt lat="48.70973" lon="2.49637">
        <ele>39.5</ele>
        <time>2022-11-02T12:56:53Z</time>
      </trkpt>
      <trkpt lat="48.70968" lon="2.49639">
        <ele>39.8</ele>
        <time>2022-11-02T12:56:57Z</time>
      </trkpt>
      <trkpt lat="48.70963" lon="2.49642">
        <ele>40.3</ele>
        <time>2022-11-02T12:57:01Z</time>
      </trkpt>
      <trkpt lat="48.70958" lon="2.49643">
        <ele>40.6</ele>
        <time>2022-11-02T12:57:05Z</time>
      </trkpt>
      <trkpt lat="48.70953" lon="2.49644">
        <ele>40.2</ele>
        <time>2022-11-02T12:57:09Z</time>
      </trkpt>
      <trkpt lat="48.70948" lon="2.49644">
        <ele>39.2</ele>
        <time>2022-11-02T12:57:14Z</time>
      </trkpt>
      <trkpt lat="48.70943" lon="2.49643">
        <ele>39.3</ele>
        <time>2022-11-02T12:57:19Z</time>
      </trkpt>
      <trkpt lat="48.70938" lon="2.49643">
        <ele>39.4</ele>
        <time>2022-11-02T12:57:23Z</time>
      </trkpt>
      <trkpt lat="48.70933" lon="2.49643">
        <ele>39.4</ele>
        <time>2022-11-02T12:57:27Z</time>
      </trkpt>
      <trkpt lat="48.70928" lon="2.49642">
        <ele>39.9</ele>
        <time>2022-11-02T12:57:31Z</time>
      </trkpt>
      <trkpt lat="48.70923" lon="2.49641">
        <ele>40.7</ele>
        <time>2022-11-02T12:57:35Z</time>
      </trkpt>
      <trkpt lat="48.70917" lon="2.49639">
        <ele>41.7</ele>
        <time>2022-11-02T12:57:39Z</time>
      </trkpt>
      <trkpt lat="48.70912" lon="2.49639">
        <ele>42.3</ele>
        <time>2022-11-02T12:57:43Z</time>
      </trkpt>
      <trkpt lat="48.70908" lon="2.4964">
        <ele>42.1</ele>
        <time>2022-11-02T12:57:47Z</time>
      </trkpt>
      <trkpt lat="48.70903" lon="2.4964">
        <ele>42</ele>
        <time>2022-11-02T12:57:52Z</time>
      </trkpt>
      <trkpt lat="48.70897" lon="2.49638">
        <ele>41.9</ele>
        <time>2022-11-02T12:57:57Z</time>
      </trkpt>
      <trkpt lat="48.70893" lon="2.49637">
        <ele>42.7</ele>
        <time>2022-11-02T12:58:01Z</time>
      </trkpt>
      <trkpt lat="48.70888" lon="2.49636">
        <ele>43.5</ele>
        <time>2022-11-02T12:58:05Z</time>
      </trkpt>
      <trkpt lat="48.70883" lon="2.49635">
        <ele>44.6</ele>
        <time>2022-11-02T12:58:09Z</time>
      </trkpt>
      <trkpt lat="48.70878" lon="2.49635">
        <ele>44.5</ele>
        <time>2022-11-02T12:58:13Z</time>
      </trkpt>
      <trkpt lat="48.70874" lon="2.49637">
        <ele>43.9</ele>
        <time>2022-11-02T12:58:17Z</time>
      </trkpt>
      <trkpt lat="48.7087" lon="2.4964">
        <ele>43.1</ele>
        <time>2022-11-02T12:58:23Z</time>
      </trkpt>
      <trkpt lat="48.70865" lon="2.49641">
        <ele>42.8</ele>
        <time>2022-11-02T12:58:30Z</time>
      </trkpt>
      <trkpt lat="48.7086" lon="2.49642">
        <ele>42.5</ele>
        <time>2022-11-02T12:58:34Z</time>
      </trkpt>
      <trkpt lat="48.70854" lon="2.49644">
        <ele>42</ele>
        <time>2022-11-02T12:58:38Z</time>
      </trkpt>
      <trkpt lat="48.70849" lon="2.49647">
        <ele>41.6</ele>
        <time>2022-11-02T12:58:42Z</time>
      </trkpt>
      <trkpt lat="48.70844" lon="2.49651">
        <ele>41.2</ele>
        <time>2022-11-02T12:58:46Z</time>
      </trkpt>
      <trkpt lat="48.7084" lon="2.49657">
        <ele>42.3</ele>
        <time>2022-11-02T12:58:50Z</time>
      </trkpt>
      <trkpt lat="48.70837" lon="2.49662">
        <ele>42.4</ele>
        <time>2022-11-02T12:58:54Z</time>
      </trkpt>
      <trkpt lat="48.70834" lon="2.49668">
        <ele>42.7</ele>
        <time>2022-11-02T12:58:58Z</time>
      </trkpt>
      <trkpt lat="48.7083" lon="2.49673">
        <ele>42.6</ele>
        <time>2022-11-02T12:59:03Z</time>
      </trkpt>
      <trkpt lat="48.70826" lon="2.49677">
        <ele>42.3</ele>
        <time>2022-11-02T12:59:08Z</time>
      </trkpt>
      <trkpt lat="48.70821" lon="2.49681">
        <ele>41.8</ele>
        <time>2022-11-02T12:59:13Z</time>
      </trkpt>
      <trkpt lat="48.70817" lon="2.49683">
        <ele>42.1</ele>
        <time>2022-11-02T12:59:16Z</time>
      </trkpt>
      <trkpt lat="48.70812" lon="2.49683">
        <ele>42.2</ele>
        <time>2022-11-02T12:59:19Z</time>
      </trkpt>
      <trkpt lat="48.70807" lon="2.49681">
        <ele>43.1</ele>
        <time>2022-11-02T12:59:22Z</time>
      </trkpt>
      <trkpt lat="48.70801" lon="2.4968">
        <ele>44.1</ele>
        <time>2022-11-02T12:59:26Z</time>
      </trkpt>
      <trkpt lat="48.70796" lon="2.49678">
        <ele>44.4</ele>
        <time>2022-11-02T12:59:30Z</time>
      </trkpt>
      <trkpt lat="48.70791" lon="2.49675">
        <ele>44.1</ele>
        <time>2022-11-02T12:59:34Z</time>
      </trkpt>
      <trkpt lat="48.70787" lon="2.49679">
        <ele>43.7</ele>
        <time>2022-11-02T12:59:40Z</time>
      </trkpt>
      <trkpt lat="48.70788" lon="2.49687">
        <ele>43.5</ele>
        <time>2022-11-02T12:59:45Z</time>
      </trkpt>
      <trkpt lat="48.70788" lon="2.49695">
        <ele>43</ele>
        <time>2022-11-02T12:59:49Z</time>
      </trkpt>
      <trkpt lat="48.70787" lon="2.49703">
        <ele>42.8</ele>
        <time>2022-11-02T12:59:53Z</time>
      </trkpt>
      <trkpt lat="48.70788" lon="2.49711">
        <ele>42.1</ele>
        <time>2022-11-02T12:59:57Z</time>
      </trkpt>
      <trkpt lat="48.70788" lon="2.49719">
        <ele>40.4</ele>
        <time>2022-11-02T13:00:03Z</time>
      </trkpt>
      <trkpt lat="48.70787" lon="2.49726">
        <ele>40</ele>
        <time>2022-11-02T13:00:07Z</time>
      </trkpt>
      <trkpt lat="48.70788" lon="2.49734">
        <ele>39.6</ele>
        <time>2022-11-02T13:00:11Z</time>
      </trkpt>
      <trkpt lat="48.70791" lon="2.49739">
        <ele>39.1</ele>
        <time>2022-11-02T13:00:19Z</time>
      </trkpt>
      <trkpt lat="48.70796" lon="2.49742">
        <ele>39.1</ele>
        <time>2022-11-02T13:00:26Z</time>
      </trkpt>
      <trkpt lat="48.708" lon="2.49748">
        <ele>39.4</ele>
        <time>2022-11-02T13:00:38Z</time>
      </trkpt>
      <trkpt lat="48.70804" lon="2.4975">
        <ele>39.7</ele>
        <time>2022-11-02T13:00:42Z</time>
      </trkpt>
      <trkpt lat="48.70808" lon="2.49751">
        <ele>40.8</ele>
        <time>2022-11-02T13:00:46Z</time>
      </trkpt>
      <trkpt lat="48.70813" lon="2.49753">
        <ele>41.7</ele>
        <time>2022-11-02T13:00:50Z</time>
      </trkpt>
      <trkpt lat="48.70818" lon="2.49755">
        <ele>42.5</ele>
        <time>2022-11-02T13:00:54Z</time>
      </trkpt>
      <trkpt lat="48.70823" lon="2.49756">
        <ele>42.5</ele>
        <time>2022-11-02T13:00:58Z</time>
      </trkpt>
      <trkpt lat="48.70829" lon="2.49755">
        <ele>41.9</ele>
        <time>2022-11-02T13:01:05Z</time>
      </trkpt>
      <trkpt lat="48.70834" lon="2.49755">
        <ele>41.6</ele>
        <time>2022-11-02T13:01:08Z</time>
      </trkpt>
      <trkpt lat="48.70839" lon="2.49754">
        <ele>41.3</ele>
        <time>2022-11-02T13:01:11Z</time>
      </trkpt>
      <trkpt lat="48.70844" lon="2.49754">
        <ele>41.1</ele>
        <time>2022-11-02T13:01:14Z</time>
      </trkpt>
      <trkpt lat="48.70849" lon="2.49753">
        <ele>40.6</ele>
        <time>2022-11-02T13:01:18Z</time>
      </trkpt>
      <trkpt lat="48.70854" lon="2.49751">
        <ele>39.9</ele>
        <time>2022-11-02T13:01:22Z</time>
      </trkpt>
      <trkpt lat="48.7086" lon="2.4975">
        <ele>39.5</ele>
        <time>2022-11-02T13:01:26Z</time>
      </trkpt>
      <trkpt lat="48.70865" lon="2.4975">
        <ele>39.4</ele>
        <time>2022-11-02T13:01:30Z</time>
      </trkpt>
      <trkpt lat="48.7087" lon="2.49749">
        <ele>39.9</ele>
        <time>2022-11-02T13:01:34Z</time>
      </trkpt>
      <trkpt lat="48.70875" lon="2.49747">
        <ele>40.3</ele>
        <time>2022-11-02T13:01:38Z</time>
      </trkpt>
      <trkpt lat="48.7088" lon="2.49747">
        <ele>41.1</ele>
        <time>2022-11-02T13:01:43Z</time>
      </trkpt>
      <trkpt lat="48.70885" lon="2.49748">
        <ele>41.4</ele>
        <time>2022-11-02T13:01:48Z</time>
      </trkpt>
      <trkpt lat="48.70889" lon="2.49754">
        <ele>41.8</ele>
        <time>2022-11-02T13:01:52Z</time>
      </trkpt>
      <trkpt lat="48.70891" lon="2.49762">
        <ele>42</ele>
        <time>2022-11-02T13:01:56Z</time>
      </trkpt>
      <trkpt lat="48.70892" lon="2.49769">
        <ele>42.1</ele>
        <time>2022-11-02T13:01:59Z</time>
      </trkpt>
      <trkpt lat="48.70895" lon="2.49777">
        <ele>42.1</ele>
        <time>2022-11-02T13:02:03Z</time>
      </trkpt>
      <trkpt lat="48.70897" lon="2.49784">
        <ele>42.7</ele>
        <time>2022-11-02T13:02:07Z</time>
      </trkpt>
      <trkpt lat="48.709" lon="2.49792">
        <ele>43.3</ele>
        <time>2022-11-02T13:02:11Z</time>
      </trkpt>
      <trkpt lat="48.70903" lon="2.49798">
        <ele>44</ele>
        <time>2022-11-02T13:02:15Z</time>
      </trkpt>
      <trkpt lat="48.70906" lon="2.49803">
        <ele>44.7</ele>
        <time>2022-11-02T13:02:19Z</time>
      </trkpt>
      <trkpt lat="48.7091" lon="2.49807">
        <ele>45.3</ele>
        <time>2022-11-02T13:02:24Z</time>
      </trkpt>
      <trkpt lat="48.70913" lon="2.49812">
        <ele>45.9</ele>
        <time>2022-11-02T13:02:28Z</time>
      </trkpt>
      <trkpt lat="48.70917" lon="2.49818">
        <ele>46.3</ele>
        <time>2022-11-02T13:02:32Z</time>
      </trkpt>
      <trkpt lat="48.7092" lon="2.49822">
        <ele>46.7</ele>
        <time>2022-11-02T13:02:36Z</time>
      </trkpt>
      <trkpt lat="48.70924" lon="2.49828">
        <ele>47.6</ele>
        <time>2022-11-02T13:02:40Z</time>
      </trkpt>
      <trkpt lat="48.70928" lon="2.49832">
        <ele>48.2</ele>
        <time>2022-11-02T13:02:44Z</time>
      </trkpt>
      <trkpt lat="48.70932" lon="2.49836">
        <ele>48.9</ele>
        <time>2022-11-02T13:02:48Z</time>
      </trkpt>
      <trkpt lat="48.70937" lon="2.4984">
        <ele>48.9</ele>
        <time>2022-11-02T13:02:53Z</time>
      </trkpt>
      <trkpt lat="48.70941" lon="2.49844">
        <ele>49.1</ele>
        <time>2022-11-02T13:02:57Z</time>
      </trkpt>
      <trkpt lat="48.70945" lon="2.49848">
        <ele>48.8</ele>
        <time>2022-11-02T13:03:02Z</time>
      </trkpt>
      <trkpt lat="48.7095" lon="2.4985">
        <ele>48.2</ele>
        <time>2022-11-02T13:03:06Z</time>
      </trkpt>
      <trkpt lat="48.70956" lon="2.49852">
        <ele>47.8</ele>
        <time>2022-11-02T13:03:11Z</time>
      </trkpt>
      <trkpt lat="48.7096" lon="2.49856">
        <ele>47.9</ele>
        <time>2022-11-02T13:03:15Z</time>
      </trkpt>
      <trkpt lat="48.70964" lon="2.49859">
        <ele>47.5</ele>
        <time>2022-11-02T13:03:19Z</time>
      </trkpt>
      <trkpt lat="48.70968" lon="2.49863">
        <ele>46.9</ele>
        <time>2022-11-02T13:03:23Z</time>
      </trkpt>
      <trkpt lat="48.70972" lon="2.49869">
        <ele>46.4</ele>
        <time>2022-11-02T13:03:27Z</time>
      </trkpt>
      <trkpt lat="48.70976" lon="2.49874">
        <ele>46.4</ele>
        <time>2022-11-02T13:03:32Z</time>
      </trkpt>
      <trkpt lat="48.70977" lon="2.49882">
        <ele>46</ele>
        <time>2022-11-02T13:05:02Z</time>
      </trkpt>
      <trkpt lat="48.70977" lon="2.49889">
        <ele>46.1</ele>
        <time>2022-11-02T13:05:07Z</time>
      </trkpt>
      <trkpt lat="48.70976" lon="2.49896">
        <ele>46.5</ele>
        <time>2022-11-02T13:05:14Z</time>
      </trkpt>
      <trkpt lat="48.70971" lon="2.499">
        <ele>47.1</ele>
        <time>2022-11-02T13:05:18Z</time>
      </trkpt>
      <trkpt lat="48.70967" lon="2.49903">
        <ele>47.6</ele>
        <time>2022-11-02T13:05:22Z</time>
      </trkpt>
      <trkpt lat="48.70962" lon="2.49908">
        <ele>48.2</ele>
        <time>2022-11-02T13:05:26Z</time>
      </trkpt>
      <trkpt lat="48.70957" lon="2.49912">
        <ele>48.6</ele>
        <time>2022-11-02T13:05:30Z</time>
      </trkpt>
      <trkpt lat="48.70952" lon="2.49916">
        <ele>48.5</ele>
        <time>2022-11-02T13:05:34Z</time>
      </trkpt>
      <trkpt lat="48.70948" lon="2.49921">
        <ele>48.7</ele>
        <time>2022-11-02T13:05:38Z</time>
      </trkpt>
      <trkpt lat="48.70943" lon="2.49926">
        <ele>49.3</ele>
        <time>2022-11-02T13:05:42Z</time>
      </trkpt>
      <trkpt lat="48.70939" lon="2.49931">
        <ele>49.8</ele>
        <time>2022-11-02T13:05:46Z</time>
      </trkpt>
      <trkpt lat="48.70935" lon="2.49936">
        <ele>49.5</ele>
        <time>2022-11-02T13:05:51Z</time>
      </trkpt>
      <trkpt lat="48.7093" lon="2.49939">
        <ele>49.1</ele>
        <time>2022-11-02T13:05:55Z</time>
      </trkpt>
      <trkpt lat="48.70926" lon="2.49944">
        <ele>48.1</ele>
        <time>2022-11-02T13:06:00Z</time>
      </trkpt>
      <trkpt lat="48.70924" lon="2.4995">
        <ele>47.8</ele>
        <time>2022-11-02T13:06:04Z</time>
      </trkpt>
      <trkpt lat="48.70924" lon="2.49959">
        <ele>47.8</ele>
        <time>2022-11-02T13:06:08Z</time>
      </trkpt>
      <trkpt lat="48.70924" lon="2.49967">
        <ele>47</ele>
        <time>2022-11-02T13:06:12Z</time>
      </trkpt>
      <trkpt lat="48.70922" lon="2.49975">
        <ele>46.1</ele>
        <time>2022-11-02T13:06:16Z</time>
      </trkpt>
      <trkpt lat="48.7092" lon="2.49982">
        <ele>45.4</ele>
        <time>2022-11-02T13:06:20Z</time>
      </trkpt>
      <trkpt lat="48.70918" lon="2.4999">
        <ele>44.8</ele>
        <time>2022-11-02T13:06:24Z</time>
      </trkpt>
      <trkpt lat="48.70916" lon="2.49997">
        <ele>44.1</ele>
        <time>2022-11-02T13:06:28Z</time>
      </trkpt>
      <trkpt lat="48.70915" lon="2.50004">
        <ele>43.2</ele>
        <time>2022-11-02T13:06:33Z</time>
      </trkpt>
      <trkpt lat="48.70917" lon="2.50012">
        <ele>42.4</ele>
        <time>2022-11-02T13:06:38Z</time>
      </trkpt>
      <trkpt lat="48.70919" lon="2.50019">
        <ele>42</ele>
        <time>2022-11-02T13:06:42Z</time>
      </trkpt>
      <trkpt lat="48.70922" lon="2.50024">
        <ele>41.9</ele>
        <time>2022-11-02T13:06:45Z</time>
      </trkpt>
      <trkpt lat="48.70925" lon="2.50032">
        <ele>42.7</ele>
        <time>2022-11-02T13:06:49Z</time>
      </trkpt>
      <trkpt lat="48.70927" lon="2.50038">
        <ele>43</ele>
        <time>2022-11-02T13:06:55Z</time>
      </trkpt>
      <trkpt lat="48.70929" lon="2.50045">
        <ele>42.5</ele>
        <time>2022-11-02T13:07:00Z</time>
      </trkpt>
      <trkpt lat="48.70931" lon="2.50053">
        <ele>42.9</ele>
        <time>2022-11-02T13:07:04Z</time>
      </trkpt>
      <trkpt lat="48.70933" lon="2.50061">
        <ele>43.1</ele>
        <time>2022-11-02T13:07:08Z</time>
      </trkpt>
      <trkpt lat="48.70934" lon="2.5007">
        <ele>43.7</ele>
        <time>2022-11-02T13:07:12Z</time>
      </trkpt>
      <trkpt lat="48.70937" lon="2.50076">
        <ele>43.8</ele>
        <time>2022-11-02T13:07:16Z</time>
      </trkpt>
      <trkpt lat="48.70939" lon="2.50083">
        <ele>43.6</ele>
        <time>2022-11-02T13:07:20Z</time>
      </trkpt>
      <trkpt lat="48.70942" lon="2.50089">
        <ele>43.6</ele>
        <time>2022-11-02T13:07:24Z</time>
      </trkpt>
      <trkpt lat="48.70945" lon="2.50096">
        <ele>43.8</ele>
        <time>2022-11-02T13:07:28Z</time>
      </trkpt>
      <trkpt lat="48.70948" lon="2.50102">
        <ele>44</ele>
        <time>2022-11-02T13:07:32Z</time>
      </trkpt>
      <trkpt lat="48.70949" lon="2.50109">
        <ele>44.1</ele>
        <time>2022-11-02T13:07:36Z</time>
      </trkpt>
      <trkpt lat="48.70949" lon="2.50116">
        <ele>44.1</ele>
        <time>2022-11-02T13:07:41Z</time>
      </trkpt>
      <trkpt lat="48.70945" lon="2.50121">
        <ele>44.1</ele>
        <time>2022-11-02T13:07:46Z</time>
      </trkpt>
      <trkpt lat="48.70941" lon="2.50126">
        <ele>44.6</ele>
        <time>2022-11-02T13:07:50Z</time>
      </trkpt>
      <trkpt lat="48.70938" lon="2.50132">
        <ele>44.2</ele>
        <time>2022-11-02T13:07:54Z</time>
      </trkpt>
      <trkpt lat="48.70935" lon="2.50137">
        <ele>44.6</ele>
        <time>2022-11-02T13:07:59Z</time>
      </trkpt>
      <trkpt lat="48.70934" lon="2.50145">
        <ele>43.5</ele>
        <time>2022-11-02T13:08:05Z</time>
      </trkpt>
      <trkpt lat="48.70936" lon="2.50152">
        <ele>42.8</ele>
        <time>2022-11-02T13:08:09Z</time>
      </trkpt>
      <trkpt lat="48.70939" lon="2.50159">
        <ele>42.6</ele>
        <time>2022-11-02T13:08:13Z</time>
      </trkpt>
      <trkpt lat="48.70941" lon="2.50166">
        <ele>42.9</ele>
        <time>2022-11-02T13:08:17Z</time>
      </trkpt>
      <trkpt lat="48.70943" lon="2.50173">
        <ele>43.6</ele>
        <time>2022-11-02T13:08:21Z</time>
      </trkpt>
      <trkpt lat="48.70945" lon="2.50179">
        <ele>44.2</ele>
        <time>2022-11-02T13:08:25Z</time>
      </trkpt>
      <trkpt lat="48.70947" lon="2.50187">
        <ele>44.6</ele>
        <time>2022-11-02T13:08:29Z</time>
      </trkpt>
      <trkpt lat="48.7095" lon="2.50193">
        <ele>43.9</ele>
        <time>2022-11-02T13:08:34Z</time>
      </trkpt>
      <trkpt lat="48.70952" lon="2.502">
        <ele>45</ele>
        <time>2022-11-02T13:08:40Z</time>
      </trkpt>
      <trkpt lat="48.70955" lon="2.50206">
        <ele>45.9</ele>
        <time>2022-11-02T13:08:44Z</time>
      </trkpt>
      <trkpt lat="48.70958" lon="2.50212">
        <ele>45.7</ele>
        <time>2022-11-02T13:08:49Z</time>
      </trkpt>
      <trkpt lat="48.70962" lon="2.50216">
        <ele>45.3</ele>
        <time>2022-11-02T13:08:53Z</time>
      </trkpt>
      <trkpt lat="48.70967" lon="2.50219">
        <ele>44.3</ele>
        <time>2022-11-02T13:08:57Z</time>
      </trkpt>
      <trkpt lat="48.70971" lon="2.50216">
        <ele>44.2</ele>
        <time>2022-11-02T13:09:01Z</time>
      </trkpt>
      <trkpt lat="48.70974" lon="2.5021">
        <ele>43.4</ele>
        <time>2022-11-02T13:09:06Z</time>
      </trkpt>
      <trkpt lat="48.70979" lon="2.50208">
        <ele>42.6</ele>
        <time>2022-11-02T13:09:12Z</time>
      </trkpt>
      <trkpt lat="48.70983" lon="2.50214">
        <ele>41.8</ele>
        <time>2022-11-02T13:09:17Z</time>
      </trkpt>
      <trkpt lat="48.70986" lon="2.50219">
        <ele>41.3</ele>
        <time>2022-11-02T13:09:21Z</time>
      </trkpt>
      <trkpt lat="48.7099" lon="2.50225">
        <ele>40.5</ele>
        <time>2022-11-02T13:09:26Z</time>
      </trkpt>
      <trkpt lat="48.70993" lon="2.50232">
        <ele>39.1</ele>
        <time>2022-11-02T13:09:32Z</time>
      </trkpt>
      <trkpt lat="48.70996" lon="2.50238">
        <ele>38.1</ele>
        <time>2022-11-02T13:09:37Z</time>
      </trkpt>
      <trkpt lat="48.70999" lon="2.50243">
        <ele>37.5</ele>
        <time>2022-11-02T13:09:42Z</time>
      </trkpt>
      <trkpt lat="48.71002" lon="2.50249">
        <ele>40.5</ele>
        <time>2022-11-02T13:09:47Z</time>
      </trkpt>
      <trkpt lat="48.71002" lon="2.50257">
        <ele>42.9</ele>
        <time>2022-11-02T13:11:49Z</time>
      </trkpt>
      <trkpt lat="48.71004" lon="2.50264">
        <ele>41.8</ele>
        <time>2022-11-02T13:11:56Z</time>
      </trkpt>
      <trkpt lat="48.71007" lon="2.50271">
        <ele>41.8</ele>
        <time>2022-11-02T13:12:03Z</time>
      </trkpt>
      <trkpt lat="48.71007" lon="2.50278">
        <ele>41.8</ele>
        <time>2022-11-02T13:12:09Z</time>
      </trkpt>
      <trkpt lat="48.7101" lon="2.50284">
        <ele>42</ele>
        <time>2022-11-02T13:12:14Z</time>
      </trkpt>
      <trkpt lat="48.71014" lon="2.50291">
        <ele>41.1</ele>
        <time>2022-11-02T13:12:19Z</time>
      </trkpt>
      <trkpt lat="48.71017" lon="2.50297">
        <ele>41.1</ele>
        <time>2022-11-02T13:12:24Z</time>
      </trkpt>
      <trkpt lat="48.71021" lon="2.50302">
        <ele>42.1</ele>
        <time>2022-11-02T13:12:28Z</time>
      </trkpt>
      <trkpt lat="48.71025" lon="2.50306">
        <ele>43.1</ele>
        <time>2022-11-02T13:12:31Z</time>
      </trkpt>
      <trkpt lat="48.7103" lon="2.50308">
        <ele>43.9</ele>
        <time>2022-11-02T13:12:35Z</time>
      </trkpt>
      <trkpt lat="48.71035" lon="2.50307">
        <ele>44.4</ele>
        <time>2022-11-02T13:12:44Z</time>
      </trkpt>
      <trkpt lat="48.7104" lon="2.50305">
        <ele>44.4</ele>
        <time>2022-11-02T13:12:49Z</time>
      </trkpt>
      <trkpt lat="48.71046" lon="2.50307">
        <ele>44.6</ele>
        <time>2022-11-02T13:12:53Z</time>
      </trkpt>
      <trkpt lat="48.71051" lon="2.50309">
        <ele>44.7</ele>
        <time>2022-11-02T13:12:56Z</time>
      </trkpt>
      <trkpt lat="48.71055" lon="2.50311">
        <ele>44.4</ele>
        <time>2022-11-02T13:12:59Z</time>
      </trkpt>
      <trkpt lat="48.71059" lon="2.50316">
        <ele>43.8</ele>
        <time>2022-11-02T13:13:02Z</time>
      </trkpt>
      <trkpt lat="48.71062" lon="2.50323">
        <ele>42.3</ele>
        <time>2022-11-02T13:13:06Z</time>
      </trkpt>
      <trkpt lat="48.71063" lon="2.50329">
        <ele>40.9</ele>
        <time>2022-11-02T13:13:11Z</time>
      </trkpt>
      <trkpt lat="48.71065" lon="2.50336">
        <ele>38.9</ele>
        <time>2022-11-02T13:13:16Z</time>
      </trkpt>
      <trkpt lat="48.71065" lon="2.50344">
        <ele>38.9</ele>
        <time>2022-11-02T13:13:21Z</time>
      </trkpt>
      <trkpt lat="48.71064" lon="2.5035">
        <ele>39.4</ele>
        <time>2022-11-02T13:13:24Z</time>
      </trkpt>
      <trkpt lat="48.71062" lon="2.50358">
        <ele>40.5</ele>
        <time>2022-11-02T13:13:27Z</time>
      </trkpt>
      <trkpt lat="48.71062" lon="2.50365">
        <ele>41.4</ele>
        <time>2022-11-02T13:13:31Z</time>
      </trkpt>
      <trkpt lat="48.71065" lon="2.50372">
        <ele>41.2</ele>
        <time>2022-11-02T13:13:36Z</time>
      </trkpt>
      <trkpt lat="48.71069" lon="2.50378">
        <ele>42.2</ele>
        <time>2022-11-02T13:13:40Z</time>
      </trkpt>
      <trkpt lat="48.71071" lon="2.50385">
        <ele>42.7</ele>
        <time>2022-11-02T13:13:44Z</time>
      </trkpt>
      <trkpt lat="48.71074" lon="2.50393">
        <ele>42.8</ele>
        <time>2022-11-02T13:13:48Z</time>
      </trkpt>
      <trkpt lat="48.71076" lon="2.504">
        <ele>42</ele>
        <time>2022-11-02T13:13:54Z</time>
      </trkpt>
      <trkpt lat="48.71078" lon="2.50407">
        <ele>41.5</ele>
        <time>2022-11-02T13:13:59Z</time>
      </trkpt>
      <trkpt lat="48.71079" lon="2.50414">
        <ele>41.5</ele>
        <time>2022-11-02T13:14:03Z</time>
      </trkpt>
      <trkpt lat="48.71081" lon="2.5042">
        <ele>41.9</ele>
        <time>2022-11-02T13:14:07Z</time>
      </trkpt>
      <trkpt lat="48.71084" lon="2.50426">
        <ele>42.6</ele>
        <time>2022-11-02T13:14:11Z</time>
      </trkpt>
      <trkpt lat="48.71086" lon="2.50432">
        <ele>42.3</ele>
        <time>2022-11-02T13:14:15Z</time>
      </trkpt>
      <trkpt lat="48.71087" lon="2.5044">
        <ele>41.3</ele>
        <time>2022-11-02T13:14:20Z</time>
      </trkpt>
      <trkpt lat="48.71084" lon="2.50446">
        <ele>41.2</ele>
        <time>2022-11-02T13:14:24Z</time>
      </trkpt>
      <trkpt lat="48.71084" lon="2.50453">
        <ele>41.3</ele>
        <time>2022-11-02T13:14:28Z</time>
      </trkpt>
      <trkpt lat="48.71087" lon="2.5046">
        <ele>41</ele>
        <time>2022-11-02T13:14:32Z</time>
      </trkpt>
      <trkpt lat="48.71091" lon="2.50465">
        <ele>40.5</ele>
        <time>2022-11-02T13:14:37Z</time>
      </trkpt>
      <trkpt lat="48.71094" lon="2.50471">
        <ele>40.5</ele>
        <time>2022-11-02T13:14:41Z</time>
      </trkpt>
      <trkpt lat="48.71096" lon="2.50477">
        <ele>40.7</ele>
        <time>2022-11-02T13:14:45Z</time>
      </trkpt>
      <trkpt lat="48.71099" lon="2.50483">
        <ele>41.8</ele>
        <time>2022-11-02T13:14:49Z</time>
      </trkpt>
      <trkpt lat="48.71102" lon="2.50489">
        <ele>42.6</ele>
        <time>2022-11-02T13:14:54Z</time>
      </trkpt>
      <trkpt lat="48.71104" lon="2.50496">
        <ele>43.4</ele>
        <time>2022-11-02T13:14:58Z</time>
      </trkpt>
      <trkpt lat="48.71106" lon="2.50502">
        <ele>43.4</ele>
        <time>2022-11-02T13:15:02Z</time>
      </trkpt>
      <trkpt lat="48.71109" lon="2.50508">
        <ele>44.1</ele>
        <time>2022-11-02T13:15:06Z</time>
      </trkpt>
      <trkpt lat="48.71112" lon="2.50514">
        <ele>45.3</ele>
        <time>2022-11-02T13:15:10Z</time>
      </trkpt>
      <trkpt lat="48.71115" lon="2.5052">
        <ele>46.5</ele>
        <time>2022-11-02T13:15:14Z</time>
      </trkpt>
      <trkpt lat="48.71119" lon="2.50527">
        <ele>48.6</ele>
        <time>2022-11-02T13:15:18Z</time>
      </trkpt>
      <trkpt lat="48.71122" lon="2.50532">
        <ele>50.6</ele>
        <time>2022-11-02T13:15:22Z</time>
      </trkpt>
      <trkpt lat="48.71124" lon="2.50539">
        <ele>51.7</ele>
        <time>2022-11-02T13:15:28Z</time>
      </trkpt>
      <trkpt lat="48.71128" lon="2.50544">
        <ele>51.7</ele>
        <time>2022-11-02T13:15:33Z</time>
      </trkpt>
      <trkpt lat="48.71131" lon="2.50552">
        <ele>52.1</ele>
        <time>2022-11-02T13:15:38Z</time>
      </trkpt>
      <trkpt lat="48.71134" lon="2.50557">
        <ele>52.2</ele>
        <time>2022-11-02T13:15:41Z</time>
      </trkpt>
      <trkpt lat="48.71137" lon="2.50563">
        <ele>52.2</ele>
        <time>2022-11-02T13:15:44Z</time>
      </trkpt>
      <trkpt lat="48.7114" lon="2.50569">
        <ele>51.7</ele>
        <time>2022-11-02T13:15:49Z</time>
      </trkpt>
      <trkpt lat="48.71144" lon="2.50574">
        <ele>52.4</ele>
        <time>2022-11-02T13:15:53Z</time>
      </trkpt>
      <trkpt lat="48.71147" lon="2.50579">
        <ele>53.2</ele>
        <time>2022-11-02T13:15:57Z</time>
      </trkpt>
      <trkpt lat="48.7115" lon="2.50586">
        <ele>54</ele>
        <time>2022-11-02T13:16:01Z</time>
      </trkpt>
      <trkpt lat="48.71154" lon="2.50592">
        <ele>54.5</ele>
        <time>2022-11-02T13:16:05Z</time>
      </trkpt>
      <trkpt lat="48.71156" lon="2.50598">
        <ele>54</ele>
        <time>2022-11-02T13:16:09Z</time>
      </trkpt>
      <trkpt lat="48.71157" lon="2.50605">
        <ele>53.4</ele>
        <time>2022-11-02T13:16:14Z</time>
      </trkpt>
      <trkpt lat="48.71158" lon="2.50612">
        <ele>52.7</ele>
        <time>2022-11-02T13:16:19Z</time>
      </trkpt>
      <trkpt lat="48.7116" lon="2.50618">
        <ele>53</ele>
        <time>2022-11-02T13:16:28Z</time>
      </trkpt>
      <trkpt lat="48.71159" lon="2.50626">
        <ele>53.3</ele>
        <time>2022-11-02T13:16:36Z</time>
      </trkpt>
      <trkpt lat="48.71159" lon="2.50634">
        <ele>53.3</ele>
        <time>2022-11-02T13:16:40Z</time>
      </trkpt>
      <trkpt lat="48.71161" lon="2.50642">
        <ele>53.4</ele>
        <time>2022-11-02T13:16:44Z</time>
      </trkpt>
      <trkpt lat="48.71163" lon="2.50647">
        <ele>52.7</ele>
        <time>2022-11-02T13:16:50Z</time>
      </trkpt>
      <trkpt lat="48.71165" lon="2.50655">
        <ele>51.1</ele>
        <time>2022-11-02T13:16:55Z</time>
      </trkpt>
      <trkpt lat="48.71165" lon="2.50662">
        <ele>51.2</ele>
        <time>2022-11-02T13:16:58Z</time>
      </trkpt>
      <trkpt lat="48.71165" lon="2.50671">
        <ele>50.3</ele>
        <time>2022-11-02T13:17:02Z</time>
      </trkpt>
      <trkpt lat="48.71167" lon="2.50679">
        <ele>50.4</ele>
        <time>2022-11-02T13:17:05Z</time>
      </trkpt>
      <trkpt lat="48.71168" lon="2.50686">
        <ele>51.1</ele>
        <time>2022-11-02T13:17:08Z</time>
      </trkpt>
      <trkpt lat="48.71169" lon="2.50692">
        <ele>51.3</ele>
        <time>2022-11-02T13:17:11Z</time>
      </trkpt>
      <trkpt lat="48.71171" lon="2.507">
        <ele>51.1</ele>
        <time>2022-11-02T13:17:15Z</time>
      </trkpt>
      <trkpt lat="48.71174" lon="2.50706">
        <ele>50</ele>
        <time>2022-11-02T13:17:19Z</time>
      </trkpt>
      <trkpt lat="48.71177" lon="2.50713">
        <ele>49.9</ele>
        <time>2022-11-02T13:17:23Z</time>
      </trkpt>
      <trkpt lat="48.7118" lon="2.5072">
        <ele>49.3</ele>
        <time>2022-11-02T13:17:28Z</time>
      </trkpt>
      <trkpt lat="48.71183" lon="2.50726">
        <ele>48.9</ele>
        <time>2022-11-02T13:17:33Z</time>
      </trkpt>
      <trkpt lat="48.71186" lon="2.50731">
        <ele>49.4</ele>
        <time>2022-11-02T13:17:37Z</time>
      </trkpt>
      <trkpt lat="48.71188" lon="2.50738">
        <ele>50.6</ele>
        <time>2022-11-02T13:17:43Z</time>
      </trkpt>
      <trkpt lat="48.71191" lon="2.50744">
        <ele>50.5</ele>
        <time>2022-11-02T13:17:47Z</time>
      </trkpt>
      <trkpt lat="48.71193" lon="2.50752">
        <ele>51.4</ele>
        <time>2022-11-02T13:17:52Z</time>
      </trkpt>
      <trkpt lat="48.71196" lon="2.50757">
        <ele>51.9</ele>
        <time>2022-11-02T13:17:59Z</time>
      </trkpt>
      <trkpt lat="48.712" lon="2.50761">
        <ele>51.9</ele>
        <time>2022-11-02T13:18:07Z</time>
      </trkpt>
      <trkpt lat="48.71204" lon="2.50767">
        <ele>52.2</ele>
        <time>2022-11-02T13:18:11Z</time>
      </trkpt>
      <trkpt lat="48.71208" lon="2.50773">
        <ele>53.3</ele>
        <time>2022-11-02T13:18:14Z</time>
      </trkpt>
      <trkpt lat="48.71212" lon="2.50778">
        <ele>54.9</ele>
        <time>2022-11-02T13:18:17Z</time>
      </trkpt>
      <trkpt lat="48.71216" lon="2.50784">
        <ele>55.7</ele>
        <time>2022-11-02T13:18:20Z</time>
      </trkpt>
      <trkpt lat="48.71219" lon="2.50791">
        <ele>57.3</ele>
        <time>2022-11-02T13:18:23Z</time>
      </trkpt>
      <trkpt lat="48.71221" lon="2.50799">
        <ele>57.7</ele>
        <time>2022-11-02T13:18:26Z</time>
      </trkpt>
      <trkpt lat="48.71223" lon="2.50805">
        <ele>58</ele>
        <time>2022-11-02T13:18:29Z</time>
      </trkpt>
      <trkpt lat="48.71225" lon="2.50812">
        <ele>59.2</ele>
        <time>2022-11-02T13:18:33Z</time>
      </trkpt>
      <trkpt lat="48.71228" lon="2.50819">
        <ele>59.3</ele>
        <time>2022-11-02T13:18:37Z</time>
      </trkpt>
      <trkpt lat="48.71229" lon="2.50825">
        <ele>59.6</ele>
        <time>2022-11-02T13:18:40Z</time>
      </trkpt>
      <trkpt lat="48.7123" lon="2.50832">
        <ele>58.9</ele>
        <time>2022-11-02T13:18:44Z</time>
      </trkpt>
      <trkpt lat="48.71233" lon="2.50839">
        <ele>58</ele>
        <time>2022-11-02T13:18:49Z</time>
      </trkpt>
      <trkpt lat="48.71235" lon="2.50845">
        <ele>56.6</ele>
        <time>2022-11-02T13:18:53Z</time>
      </trkpt>
      <trkpt lat="48.71235" lon="2.50853">
        <ele>56.6</ele>
        <time>2022-11-02T13:19:00Z</time>
      </trkpt>
      <trkpt lat="48.71237" lon="2.50859">
        <ele>56.9</ele>
        <time>2022-11-02T13:19:04Z</time>
      </trkpt>
      <trkpt lat="48.7124" lon="2.50866">
        <ele>57</ele>
        <time>2022-11-02T13:19:08Z</time>
      </trkpt>
      <trkpt lat="48.71241" lon="2.50873">
        <ele>55.9</ele>
        <time>2022-11-02T13:19:13Z</time>
      </trkpt>
      <trkpt lat="48.71242" lon="2.50881">
        <ele>55.5</ele>
        <time>2022-11-02T13:19:17Z</time>
      </trkpt>
      <trkpt lat="48.71242" lon="2.5089">
        <ele>56.1</ele>
        <time>2022-11-02T13:19:21Z</time>
      </trkpt>
      <trkpt lat="48.71242" lon="2.50898">
        <ele>56.7</ele>
        <time>2022-11-02T13:19:25Z</time>
      </trkpt>
      <trkpt lat="48.71242" lon="2.50906">
        <ele>56.2</ele>
        <time>2022-11-02T13:19:30Z</time>
      </trkpt>
      <trkpt lat="48.71243" lon="2.50913">
        <ele>55.7</ele>
        <time>2022-11-02T13:19:34Z</time>
      </trkpt>
      <trkpt lat="48.71244" lon="2.5092">
        <ele>55.6</ele>
        <time>2022-11-02T13:19:43Z</time>
      </trkpt>
      <trkpt lat="48.71243" lon="2.50927">
        <ele>55.2</ele>
        <time>2022-11-02T13:19:51Z</time>
      </trkpt>
      <trkpt lat="48.71243" lon="2.50935">
        <ele>55.4</ele>
        <time>2022-11-02T13:19:55Z</time>
      </trkpt>
      <trkpt lat="48.71244" lon="2.50943">
        <ele>55.8</ele>
        <time>2022-11-02T13:19:58Z</time>
      </trkpt>
      <trkpt lat="48.71245" lon="2.50949">
        <ele>56.9</ele>
        <time>2022-11-02T13:20:01Z</time>
      </trkpt>
      <trkpt lat="48.71246" lon="2.50957">
        <ele>57.6</ele>
        <time>2022-11-02T13:20:04Z</time>
      </trkpt>
      <trkpt lat="48.71246" lon="2.50965">
        <ele>58.3</ele>
        <time>2022-11-02T13:20:08Z</time>
      </trkpt>
      <trkpt lat="48.7125" lon="2.50972">
        <ele>58.4</ele>
        <time>2022-11-02T13:20:12Z</time>
      </trkpt>
      <trkpt lat="48.71251" lon="2.50979">
        <ele>58.8</ele>
        <time>2022-11-02T13:20:17Z</time>
      </trkpt>
      <trkpt lat="48.7125" lon="2.50986">
        <ele>59</ele>
        <time>2022-11-02T13:20:23Z</time>
      </trkpt>
      <trkpt lat="48.7125" lon="2.50993">
        <ele>59.2</ele>
        <time>2022-11-02T13:20:30Z</time>
      </trkpt>
      <trkpt lat="48.71252" lon="2.51">
        <ele>58.3</ele>
        <time>2022-11-02T13:20:35Z</time>
      </trkpt>
      <trkpt lat="48.71253" lon="2.51007">
        <ele>56.8</ele>
        <time>2022-11-02T13:20:39Z</time>
      </trkpt>
      <trkpt lat="48.71254" lon="2.51014">
        <ele>56.1</ele>
        <time>2022-11-02T13:20:43Z</time>
      </trkpt>
      <trkpt lat="48.71253" lon="2.51022">
        <ele>55.6</ele>
        <time>2022-11-02T13:20:47Z</time>
      </trkpt>
      <trkpt lat="48.71255" lon="2.51029">
        <ele>55</ele>
        <time>2022-11-02T13:20:51Z</time>
      </trkpt>
      <trkpt lat="48.71255" lon="2.51037">
        <ele>54.3</ele>
        <time>2022-11-02T13:20:55Z</time>
      </trkpt>
      <trkpt lat="48.71256" lon="2.51045">
        <ele>53.8</ele>
        <time>2022-11-02T13:20:59Z</time>
      </trkpt>
      <trkpt lat="48.71255" lon="2.51052">
        <ele>53.3</ele>
        <time>2022-11-02T13:21:03Z</time>
      </trkpt>
      <trkpt lat="48.71255" lon="2.51061">
        <ele>53.7</ele>
        <time>2022-11-02T13:21:07Z</time>
      </trkpt>
      <trkpt lat="48.71256" lon="2.5107">
        <ele>54.1</ele>
        <time>2022-11-02T13:21:11Z</time>
      </trkpt>
      <trkpt lat="48.71257" lon="2.51078">
        <ele>53.9</ele>
        <time>2022-11-02T13:21:15Z</time>
      </trkpt>
      <trkpt lat="48.71259" lon="2.51084">
        <ele>53.6</ele>
        <time>2022-11-02T13:21:19Z</time>
      </trkpt>
      <trkpt lat="48.71261" lon="2.5109">
        <ele>54.2</ele>
        <time>2022-11-02T13:21:23Z</time>
      </trkpt>
      <trkpt lat="48.71263" lon="2.51098">
        <ele>55.2</ele>
        <time>2022-11-02T13:21:28Z</time>
      </trkpt>
      <trkpt lat="48.71264" lon="2.51105">
        <ele>55.4</ele>
        <time>2022-11-02T13:21:33Z</time>
      </trkpt>
      <trkpt lat="48.71265" lon="2.51113">
        <ele>55</ele>
        <time>2022-11-02T13:21:37Z</time>
      </trkpt>
      <trkpt lat="48.71267" lon="2.51121">
        <ele>55</ele>
        <time>2022-11-02T13:21:42Z</time>
      </trkpt>
      <trkpt lat="48.71269" lon="2.51129">
        <ele>55.4</ele>
        <time>2022-11-02T13:21:47Z</time>
      </trkpt>
      <trkpt lat="48.71272" lon="2.51135">
        <ele>55.4</ele>
        <time>2022-11-02T13:21:51Z</time>
      </trkpt>
      <trkpt lat="48.71274" lon="2.51141">
        <ele>54.9</ele>
        <time>2022-11-02T13:21:56Z</time>
      </trkpt>
      <trkpt lat="48.71274" lon="2.51148">
        <ele>53.5</ele>
        <time>2022-11-02T13:22:01Z</time>
      </trkpt>
      <trkpt lat="48.71275" lon="2.51156">
        <ele>52.4</ele>
        <time>2022-11-02T13:22:07Z</time>
      </trkpt>
      <trkpt lat="48.71275" lon="2.51164">
        <ele>52.5</ele>
        <time>2022-11-02T13:22:12Z</time>
      </trkpt>
      <trkpt lat="48.71276" lon="2.51171">
        <ele>53</ele>
        <time>2022-11-02T13:22:16Z</time>
      </trkpt>
      <trkpt lat="48.71276" lon="2.51178">
        <ele>53.6</ele>
        <time>2022-11-02T13:22:21Z</time>
      </trkpt>
      <trkpt lat="48.71277" lon="2.51185">
        <ele>54</ele>
        <time>2022-11-02T13:22:25Z</time>
      </trkpt>
      <trkpt lat="48.71277" lon="2.51194">
        <ele>55</ele>
        <time>2022-11-02T13:22:28Z</time>
      </trkpt>
      <trkpt lat="48.71276" lon="2.51202">
        <ele>55.6</ele>
        <time>2022-11-02T13:22:31Z</time>
      </trkpt>
      <trkpt lat="48.71275" lon="2.51208">
        <ele>55.8</ele>
        <time>2022-11-02T13:22:34Z</time>
      </trkpt>
      <trkpt lat="48.71275" lon="2.51216">
        <ele>55.8</ele>
        <time>2022-11-02T13:22:40Z</time>
      </trkpt>
      <trkpt lat="48.71274" lon="2.51222">
        <ele>56.4</ele>
        <time>2022-11-02T13:22:44Z</time>
      </trkpt>
      <trkpt lat="48.71274" lon="2.5123">
        <ele>56.4</ele>
        <time>2022-11-02T13:22:48Z</time>
      </trkpt>
      <trkpt lat="48.71274" lon="2.51238">
        <ele>56</ele>
        <time>2022-11-02T13:22:53Z</time>
      </trkpt>
      <trkpt lat="48.71274" lon="2.51246">
        <ele>56.4</ele>
        <time>2022-11-02T13:22:58Z</time>
      </trkpt>
      <trkpt lat="48.71275" lon="2.51253">
        <ele>56.3</ele>
        <time>2022-11-02T13:23:02Z</time>
      </trkpt>
      <trkpt lat="48.71275" lon="2.51261">
        <ele>55.6</ele>
        <time>2022-11-02T13:23:06Z</time>
      </trkpt>
      <trkpt lat="48.71274" lon="2.51269">
        <ele>55.9</ele>
        <time>2022-11-02T13:23:11Z</time>
      </trkpt>
      <trkpt lat="48.71271" lon="2.51275">
        <ele>56.3</ele>
        <time>2022-11-02T13:23:14Z</time>
      </trkpt>
      <trkpt lat="48.71267" lon="2.51281">
        <ele>56.8</ele>
        <time>2022-11-02T13:23:18Z</time>
      </trkpt>
      <trkpt lat="48.71264" lon="2.51287">
        <ele>57.5</ele>
        <time>2022-11-02T13:23:23Z</time>
      </trkpt>
      <trkpt lat="48.71262" lon="2.51293">
        <ele>57.4</ele>
        <time>2022-11-02T13:23:29Z</time>
      </trkpt>
      <trkpt lat="48.71261" lon="2.513">
        <ele>56.5</ele>
        <time>2022-11-02T13:23:34Z</time>
      </trkpt>
      <trkpt lat="48.71258" lon="2.51308">
        <ele>54.7</ele>
        <time>2022-11-02T13:23:39Z</time>
      </trkpt>
      <trkpt lat="48.71255" lon="2.51314">
        <ele>53.3</ele>
        <time>2022-11-02T13:23:44Z</time>
      </trkpt>
      <trkpt lat="48.71253" lon="2.5132">
        <ele>52.3</ele>
        <time>2022-11-02T13:23:48Z</time>
      </trkpt>
      <trkpt lat="48.7125" lon="2.51326">
        <ele>51.3</ele>
        <time>2022-11-02T13:23:52Z</time>
      </trkpt>
      <trkpt lat="48.71247" lon="2.51332">
        <ele>50.7</ele>
        <time>2022-11-02T13:23:57Z</time>
      </trkpt>
      <trkpt lat="48.71244" lon="2.51339">
        <ele>50.5</ele>
        <time>2022-11-02T13:24:02Z</time>
      </trkpt>
      <trkpt lat="48.71242" lon="2.51347">
        <ele>50.8</ele>
        <time>2022-11-02T13:24:07Z</time>
      </trkpt>
      <trkpt lat="48.71242" lon="2.51355">
        <ele>50.8</ele>
        <time>2022-11-02T13:24:12Z</time>
      </trkpt>
      <trkpt lat="48.71243" lon="2.51363">
        <ele>50.2</ele>
        <time>2022-11-02T13:24:18Z</time>
      </trkpt>
      <trkpt lat="48.71245" lon="2.51371">
        <ele>50</ele>
        <time>2022-11-02T13:24:22Z</time>
      </trkpt>
      <trkpt lat="48.71247" lon="2.51377">
        <ele>49.7</ele>
        <time>2022-11-02T13:24:26Z</time>
      </trkpt>
      <trkpt lat="48.71248" lon="2.51384">
        <ele>49.7</ele>
        <time>2022-11-02T13:24:30Z</time>
      </trkpt>
      <trkpt lat="48.7125" lon="2.51393">
        <ele>50</ele>
        <time>2022-11-02T13:24:34Z</time>
      </trkpt>
      <trkpt lat="48.7125" lon="2.514">
        <ele>50.2</ele>
        <time>2022-11-02T13:24:37Z</time>
      </trkpt>
      <trkpt lat="48.71252" lon="2.51408">
        <ele>51.7</ele>
        <time>2022-11-02T13:24:41Z</time>
      </trkpt>
      <trkpt lat="48.71253" lon="2.51416">
        <ele>52.7</ele>
        <time>2022-11-02T13:24:45Z</time>
      </trkpt>
      <trkpt lat="48.71254" lon="2.51423">
        <ele>53.4</ele>
        <time>2022-11-02T13:24:50Z</time>
      </trkpt>
      <trkpt lat="48.71258" lon="2.51429">
        <ele>53.4</ele>
        <time>2022-11-02T13:24:56Z</time>
      </trkpt>
      <trkpt lat="48.71261" lon="2.51435">
        <ele>52.8</ele>
        <time>2022-11-02T13:25:01Z</time>
      </trkpt>
      <trkpt lat="48.71264" lon="2.51441">
        <ele>51.6</ele>
        <time>2022-11-02T13:25:05Z</time>
      </trkpt>
      <trkpt lat="48.71267" lon="2.51447">
        <ele>50.4</ele>
        <time>2022-11-02T13:25:09Z</time>
      </trkpt>
      <trkpt lat="48.71271" lon="2.51452">
        <ele>49.4</ele>
        <time>2022-11-02T13:25:13Z</time>
      </trkpt>
      <trkpt lat="48.71273" lon="2.51458">
        <ele>48.7</ele>
        <time>2022-11-02T13:25:17Z</time>
      </trkpt>
      <trkpt lat="48.71276" lon="2.51466">
        <ele>49.1</ele>
        <time>2022-11-02T13:25:21Z</time>
      </trkpt>
      <trkpt lat="48.71277" lon="2.51472">
        <ele>50.6</ele>
        <time>2022-11-02T13:25:27Z</time>
      </trkpt>
      <trkpt lat="48.71278" lon="2.51479">
        <ele>53</ele>
        <time>2022-11-02T13:25:39Z</time>
      </trkpt>
      <trkpt lat="48.7128" lon="2.51486">
        <ele>52.7</ele>
        <time>2022-11-02T13:25:44Z</time>
      </trkpt>
      <trkpt lat="48.7128" lon="2.51493">
        <ele>51.8</ele>
        <time>2022-11-02T13:25:48Z</time>
      </trkpt>
      <trkpt lat="48.71282" lon="2.515">
        <ele>51.6</ele>
        <time>2022-11-02T13:25:51Z</time>
      </trkpt>
      <trkpt lat="48.71283" lon="2.51508">
        <ele>51.4</ele>
        <time>2022-11-02T13:25:55Z</time>
      </trkpt>
      <trkpt lat="48.71284" lon="2.51516">
        <ele>51.7</ele>
        <time>2022-11-02T13:25:59Z</time>
      </trkpt>
      <trkpt lat="48.71285" lon="2.51525">
        <ele>52</ele>
        <time>2022-11-02T13:26:03Z</time>
      </trkpt>
      <trkpt lat="48.71287" lon="2.51532">
        <ele>53</ele>
        <time>2022-11-02T13:26:06Z</time>
      </trkpt>
      <trkpt lat="48.71289" lon="2.51539">
        <ele>53.5</ele>
        <time>2022-11-02T13:26:10Z</time>
      </trkpt>
      <trkpt lat="48.71291" lon="2.51546">
        <ele>54</ele>
        <time>2022-11-02T13:26:14Z</time>
      </trkpt>
      <trkpt lat="48.71292" lon="2.51553">
        <ele>54.1</ele>
        <time>2022-11-02T13:26:18Z</time>
      </trkpt>
      <trkpt lat="48.71294" lon="2.51561">
        <ele>54.1</ele>
        <time>2022-11-02T13:26:23Z</time>
      </trkpt>
      <trkpt lat="48.71295" lon="2.51568">
        <ele>53.8</ele>
        <time>2022-11-02T13:26:27Z</time>
      </trkpt>
      <trkpt lat="48.71296" lon="2.51576">
        <ele>53.1</ele>
        <time>2022-11-02T13:26:31Z</time>
      </trkpt>
      <trkpt lat="48.71299" lon="2.51583">
        <ele>52.5</ele>
        <time>2022-11-02T13:26:35Z</time>
      </trkpt>
      <trkpt lat="48.71301" lon="2.5159">
        <ele>52.1</ele>
        <time>2022-11-02T13:26:39Z</time>
      </trkpt>
      <trkpt lat="48.71302" lon="2.51597">
        <ele>51.8</ele>
        <time>2022-11-02T13:26:42Z</time>
      </trkpt>
      <trkpt lat="48.71302" lon="2.51605">
        <ele>52</ele>
        <time>2022-11-02T13:26:45Z</time>
      </trkpt>
      <trkpt lat="48.71305" lon="2.51612">
        <ele>51.5</ele>
        <time>2022-11-02T13:26:49Z</time>
      </trkpt>
      <trkpt lat="48.71307" lon="2.51618">
        <ele>51.6</ele>
        <time>2022-11-02T13:26:53Z</time>
      </trkpt>
      <trkpt lat="48.7131" lon="2.51625">
        <ele>52.8</ele>
        <time>2022-11-02T13:26:57Z</time>
      </trkpt>
      <trkpt lat="48.71312" lon="2.51632">
        <ele>53</ele>
        <time>2022-11-02T13:27:01Z</time>
      </trkpt>
      <trkpt lat="48.71314" lon="2.51639">
        <ele>53.3</ele>
        <time>2022-11-02T13:27:06Z</time>
      </trkpt>
      <trkpt lat="48.71316" lon="2.51645">
        <ele>54.2</ele>
        <time>2022-11-02T13:27:10Z</time>
      </trkpt>
      <trkpt lat="48.7132" lon="2.51649">
        <ele>54.7</ele>
        <time>2022-11-02T13:27:14Z</time>
      </trkpt>
      <trkpt lat="48.71323" lon="2.51655">
        <ele>54.3</ele>
        <time>2022-11-02T13:27:19Z</time>
      </trkpt>
      <trkpt lat="48.71326" lon="2.5166">
        <ele>55.3</ele>
        <time>2022-11-02T13:27:23Z</time>
      </trkpt>
      <trkpt lat="48.7133" lon="2.51665">
        <ele>56.8</ele>
        <time>2022-11-02T13:27:27Z</time>
      </trkpt>
      <trkpt lat="48.71332" lon="2.51672">
        <ele>57.8</ele>
        <time>2022-11-02T13:27:31Z</time>
      </trkpt>
      <trkpt lat="48.71337" lon="2.51672">
        <ele>53.7</ele>
        <time>2022-11-02T13:30:46Z</time>
      </trkpt>
      <trkpt lat="48.71341" lon="2.51676">
        <ele>55.7</ele>
        <time>2022-11-02T13:33:22Z</time>
      </trkpt>
      <trkpt lat="48.71343" lon="2.51682">
        <ele>55.4</ele>
        <time>2022-11-02T13:33:27Z</time>
      </trkpt>
      <trkpt lat="48.71344" lon="2.51688">
        <ele>54.6</ele>
        <time>2022-11-02T13:33:32Z</time>
      </trkpt>
      <trkpt lat="48.71345" lon="2.51695">
        <ele>54.2</ele>
        <time>2022-11-02T13:33:41Z</time>
      </trkpt>
      <trkpt lat="48.71346" lon="2.51703">
        <ele>53.6</ele>
        <time>2022-11-02T13:33:50Z</time>
      </trkpt>
      <trkpt lat="48.71348" lon="2.51711">
        <ele>53.3</ele>
        <time>2022-11-02T13:33:54Z</time>
      </trkpt>
      <trkpt lat="48.71351" lon="2.51718">
        <ele>53.7</ele>
        <time>2022-11-02T13:33:57Z</time>
      </trkpt>
      <trkpt lat="48.71353" lon="2.51724">
        <ele>54.1</ele>
        <time>2022-11-02T13:33:59Z</time>
      </trkpt>
      <trkpt lat="48.71356" lon="2.5173">
        <ele>54.4</ele>
        <time>2022-11-02T13:34:02Z</time>
      </trkpt>
      <trkpt lat="48.71357" lon="2.51738">
        <ele>54.6</ele>
        <time>2022-11-02T13:34:06Z</time>
      </trkpt>
      <trkpt lat="48.71359" lon="2.51747">
        <ele>55.5</ele>
        <time>2022-11-02T13:34:10Z</time>
      </trkpt>
      <trkpt lat="48.71361" lon="2.51755">
        <ele>55.9</ele>
        <time>2022-11-02T13:34:13Z</time>
      </trkpt>
      <trkpt lat="48.71362" lon="2.51762">
        <ele>55.3</ele>
        <time>2022-11-02T13:34:18Z</time>
      </trkpt>
      <trkpt lat="48.71364" lon="2.51769">
        <ele>54.5</ele>
        <time>2022-11-02T13:34:23Z</time>
      </trkpt>
      <trkpt lat="48.71364" lon="2.51777">
        <ele>54</ele>
        <time>2022-11-02T13:34:27Z</time>
      </trkpt>
      <trkpt lat="48.71365" lon="2.51785">
        <ele>55.1</ele>
        <time>2022-11-02T13:34:31Z</time>
      </trkpt>
      <trkpt lat="48.71364" lon="2.51793">
        <ele>55.1</ele>
        <time>2022-11-02T13:34:35Z</time>
      </trkpt>
      <trkpt lat="48.71362" lon="2.518">
        <ele>54.5</ele>
        <time>2022-11-02T13:34:40Z</time>
      </trkpt>
      <trkpt lat="48.7136" lon="2.51807">
        <ele>54.6</ele>
        <time>2022-11-02T13:34:45Z</time>
      </trkpt>
      <trkpt lat="48.7136" lon="2.51814">
        <ele>54.1</ele>
        <time>2022-11-02T13:34:50Z</time>
      </trkpt>
      <trkpt lat="48.7136" lon="2.51822">
        <ele>53.2</ele>
        <time>2022-11-02T13:34:56Z</time>
      </trkpt>
      <trkpt lat="48.71362" lon="2.51828">
        <ele>51.1</ele>
        <time>2022-11-02T13:35:01Z</time>
      </trkpt>
      <trkpt lat="48.71365" lon="2.51834">
        <ele>50.2</ele>
        <time>2022-11-02T13:35:07Z</time>
      </trkpt>
      <trkpt lat="48.71368" lon="2.5184">
        <ele>50.4</ele>
        <time>2022-11-02T13:35:11Z</time>
      </trkpt>
      <trkpt lat="48.71371" lon="2.51845">
        <ele>50.8</ele>
        <time>2022-11-02T13:35:15Z</time>
      </trkpt>
      <trkpt lat="48.71374" lon="2.51852">
        <ele>51.5</ele>
        <time>2022-11-02T13:35:20Z</time>
      </trkpt>
      <trkpt lat="48.71377" lon="2.51858">
        <ele>51.2</ele>
        <time>2022-11-02T13:35:25Z</time>
      </trkpt>
      <trkpt lat="48.71377" lon="2.51866">
        <ele>51.4</ele>
        <time>2022-11-02T13:35:31Z</time>
      </trkpt>
      <trkpt lat="48.71377" lon="2.51873">
        <ele>51.9</ele>
        <time>2022-11-02T13:35:38Z</time>
      </trkpt>
      <trkpt lat="48.71377" lon="2.5188">
        <ele>51.9</ele>
        <time>2022-11-02T13:35:45Z</time>
      </trkpt>
      <trkpt lat="48.71378" lon="2.51887">
        <ele>51.9</ele>
        <time>2022-11-02T13:35:55Z</time>
      </trkpt>
      <trkpt lat="48.7138" lon="2.51894">
        <ele>51.6</ele>
        <time>2022-11-02T13:36:00Z</time>
      </trkpt>
      <trkpt lat="48.71382" lon="2.519">
        <ele>52.9</ele>
        <time>2022-11-02T13:36:04Z</time>
      </trkpt>
      <trkpt lat="48.71383" lon="2.51908">
        <ele>55.1</ele>
        <time>2022-11-02T13:36:07Z</time>
      </trkpt>
      <trkpt lat="48.71385" lon="2.51915">
        <ele>57.1</ele>
        <time>2022-11-02T13:36:10Z</time>
      </trkpt>
      <trkpt lat="48.71388" lon="2.51921">
        <ele>58.9</ele>
        <time>2022-11-02T13:36:13Z</time>
      </trkpt>
      <trkpt lat="48.71392" lon="2.51927">
        <ele>60.9</ele>
        <time>2022-11-02T13:36:17Z</time>
      </trkpt>
      <trkpt lat="48.71396" lon="2.51932">
        <ele>62.3</ele>
        <time>2022-11-02T13:36:21Z</time>
      </trkpt>
      <trkpt lat="48.714" lon="2.51935">
        <ele>62.6</ele>
        <time>2022-11-02T13:36:26Z</time>
      </trkpt>
      <trkpt lat="48.71405" lon="2.51938">
        <ele>63.2</ele>
        <time>2022-11-02T13:36:30Z</time>
      </trkpt>
      <trkpt lat="48.71409" lon="2.51939">
        <ele>63.6</ele>
        <time>2022-11-02T13:36:35Z</time>
      </trkpt>
      <trkpt lat="48.71414" lon="2.51942">
        <ele>62.1</ele>
        <time>2022-11-02T13:36:42Z</time>
      </trkpt>
      <trkpt lat="48.7142" lon="2.51944">
        <ele>61.7</ele>
        <time>2022-11-02T13:36:46Z</time>
      </trkpt>
      <trkpt lat="48.71425" lon="2.51945">
        <ele>61.8</ele>
        <time>2022-11-02T13:36:50Z</time>
      </trkpt>
      <trkpt lat="48.7143" lon="2.51945">
        <ele>61.4</ele>
        <time>2022-11-02T13:36:55Z</time>
      </trkpt>
      <trkpt lat="48.71434" lon="2.51942">
        <ele>61.4</ele>
        <time>2022-11-02T13:37:01Z</time>
      </trkpt>
      <trkpt lat="48.71439" lon="2.51939">
        <ele>61.5</ele>
        <time>2022-11-02T13:37:23Z</time>
      </trkpt>
      <trkpt lat="48.71443" lon="2.51935">
        <ele>60.5</ele>
        <time>2022-11-02T13:37:29Z</time>
      </trkpt>
      <trkpt lat="48.71447" lon="2.51931">
        <ele>59</ele>
        <time>2022-11-02T13:37:36Z</time>
      </trkpt>
      <trkpt lat="48.71451" lon="2.51925">
        <ele>59.1</ele>
        <time>2022-11-02T13:37:40Z</time>
      </trkpt>
      <trkpt lat="48.71456" lon="2.51921">
        <ele>60.1</ele>
        <time>2022-11-02T13:37:44Z</time>
      </trkpt>
      <trkpt lat="48.71459" lon="2.51915">
        <ele>60.6</ele>
        <time>2022-11-02T13:37:48Z</time>
      </trkpt>
      <trkpt lat="48.71463" lon="2.51911">
        <ele>61.1</ele>
        <time>2022-11-02T13:37:53Z</time>
      </trkpt>
      <trkpt lat="48.71466" lon="2.51905">
        <ele>63</ele>
        <time>2022-11-02T13:38:02Z</time>
      </trkpt>
      <trkpt lat="48.7147" lon="2.519">
        <ele>65.7</ele>
        <time>2022-11-02T13:38:12Z</time>
      </trkpt>
      <trkpt lat="48.71475" lon="2.51896">
        <ele>67.8</ele>
        <time>2022-11-02T13:38:16Z</time>
      </trkpt>
      <trkpt lat="48.7148" lon="2.51891">
        <ele>69.4</ele>
        <time>2022-11-02T13:38:20Z</time>
      </trkpt>
      <trkpt lat="48.71484" lon="2.51886">
        <ele>69.7</ele>
        <time>2022-11-02T13:38:23Z</time>
      </trkpt>
      <trkpt lat="48.71488" lon="2.51882">
        <ele>70.1</ele>
        <time>2022-11-02T13:38:26Z</time>
      </trkpt>
      <trkpt lat="48.71492" lon="2.51879">
        <ele>70.3</ele>
        <time>2022-11-02T13:38:29Z</time>
      </trkpt>
      <trkpt lat="48.71496" lon="2.51876">
        <ele>70.7</ele>
        <time>2022-11-02T13:38:32Z</time>
      </trkpt>
      <trkpt lat="48.71501" lon="2.51872">
        <ele>70.7</ele>
        <time>2022-11-02T13:38:36Z</time>
      </trkpt>
      <trkpt lat="48.71506" lon="2.51867">
        <ele>71.3</ele>
        <time>2022-11-02T13:38:40Z</time>
      </trkpt>
      <trkpt lat="48.7151" lon="2.51865">
        <ele>71.6</ele>
        <time>2022-11-02T13:38:44Z</time>
      </trkpt>
      <trkpt lat="48.71514" lon="2.5186">
        <ele>72.4</ele>
        <time>2022-11-02T13:38:48Z</time>
      </trkpt>
      <trkpt lat="48.71518" lon="2.51856">
        <ele>73.4</ele>
        <time>2022-11-02T13:38:52Z</time>
      </trkpt>
      <trkpt lat="48.71521" lon="2.51851">
        <ele>74.2</ele>
        <time>2022-11-02T13:38:59Z</time>
      </trkpt>
      <trkpt lat="48.71523" lon="2.51845">
        <ele>74.9</ele>
        <time>2022-11-02T13:39:05Z</time>
      </trkpt>
      <trkpt lat="48.71526" lon="2.51839">
        <ele>73.9</ele>
        <time>2022-11-02T13:39:10Z</time>
      </trkpt>
      <trkpt lat="48.71527" lon="2.51831">
        <ele>74.3</ele>
        <time>2022-11-02T13:39:15Z</time>
      </trkpt>
      <trkpt lat="48.71529" lon="2.51825">
        <ele>75.4</ele>
        <time>2022-11-02T13:39:19Z</time>
      </trkpt>
      <trkpt lat="48.71532" lon="2.51818">
        <ele>76.8</ele>
        <time>2022-11-02T13:39:24Z</time>
      </trkpt>
      <trkpt lat="48.71534" lon="2.51812">
        <ele>77.8</ele>
        <time>2022-11-02T13:39:30Z</time>
      </trkpt>
      <trkpt lat="48.71535" lon="2.51805">
        <ele>79.9</ele>
        <time>2022-11-02T13:39:47Z</time>
      </trkpt>
      <trkpt lat="48.71534" lon="2.51798">
        <ele>79.2</ele>
        <time>2022-11-02T13:41:44Z</time>
      </trkpt>
      <trkpt lat="48.71533" lon="2.51791">
        <ele>77.3</ele>
        <time>2022-11-02T13:41:49Z</time>
      </trkpt>
      <trkpt lat="48.71534" lon="2.51785">
        <ele>76.6</ele>
        <time>2022-11-02T13:41:53Z</time>
      </trkpt>
      <trkpt lat="48.71537" lon="2.51778">
        <ele>75.9</ele>
        <time>2022-11-02T13:41:58Z</time>
      </trkpt>
      <trkpt lat="48.71539" lon="2.51771">
        <ele>75.6</ele>
        <time>2022-11-02T13:42:02Z</time>
      </trkpt>
      <trkpt lat="48.71543" lon="2.51765">
        <ele>76</ele>
        <time>2022-11-02T13:42:06Z</time>
      </trkpt>
      <trkpt lat="48.71546" lon="2.5176">
        <ele>75.7</ele>
        <time>2022-11-02T13:42:10Z</time>
      </trkpt>
      <trkpt lat="48.7155" lon="2.51755">
        <ele>75.5</ele>
        <time>2022-11-02T13:42:14Z</time>
      </trkpt>
      <trkpt lat="48.71553" lon="2.51749">
        <ele>76.9</ele>
        <time>2022-11-02T13:42:19Z</time>
      </trkpt>
      <trkpt lat="48.71556" lon="2.51745">
        <ele>78.7</ele>
        <time>2022-11-02T13:42:28Z</time>
      </trkpt>
      <trkpt lat="48.71562" lon="2.51743">
        <ele>80.7</ele>
        <time>2022-11-02T13:42:39Z</time>
      </trkpt>
      <trkpt lat="48.71566" lon="2.51743">
        <ele>80.5</ele>
        <time>2022-11-02T13:42:42Z</time>
      </trkpt>
      <trkpt lat="48.71571" lon="2.51747">
        <ele>80.3</ele>
        <time>2022-11-02T13:42:46Z</time>
      </trkpt>
      <trkpt lat="48.71574" lon="2.51753">
        <ele>80.2</ele>
        <time>2022-11-02T13:42:50Z</time>
      </trkpt>
      <trkpt lat="48.71577" lon="2.5176">
        <ele>80.5</ele>
        <time>2022-11-02T13:42:54Z</time>
      </trkpt>
      <trkpt lat="48.7158" lon="2.51767">
        <ele>80.4</ele>
        <time>2022-11-02T13:42:59Z</time>
      </trkpt>
      <trkpt lat="48.71581" lon="2.51774">
        <ele>81</ele>
        <time>2022-11-02T13:43:05Z</time>
      </trkpt>
      <trkpt lat="48.71582" lon="2.51781">
        <ele>81.7</ele>
        <time>2022-11-02T13:43:13Z</time>
      </trkpt>
      <trkpt lat="48.71585" lon="2.51788">
        <ele>81.9</ele>
        <time>2022-11-02T13:43:17Z</time>
      </trkpt>
      <trkpt lat="48.71588" lon="2.51794">
        <ele>82</ele>
        <time>2022-11-02T13:43:21Z</time>
      </trkpt>
      <trkpt lat="48.71589" lon="2.51801">
        <ele>82</ele>
        <time>2022-11-02T13:43:25Z</time>
      </trkpt>
      <trkpt lat="48.7159" lon="2.51809">
        <ele>82</ele>
        <time>2022-11-02T13:43:29Z</time>
      </trkpt>
      <trkpt lat="48.71592" lon="2.51816">
        <ele>82</ele>
        <time>2022-11-02T13:43:35Z</time>
      </trkpt>
      <trkpt lat="48.71597" lon="2.51818">
        <ele>81.6</ele>
        <time>2022-11-02T13:43:40Z</time>
      </trkpt>
      <trkpt lat="48.71602" lon="2.51819">
        <ele>82</ele>
        <time>2022-11-02T13:43:47Z</time>
      </trkpt>
      <trkpt lat="48.71607" lon="2.51817">
        <ele>81.7</ele>
        <time>2022-11-02T13:43:55Z</time>
      </trkpt>
      <trkpt lat="48.71611" lon="2.51814">
        <ele>80.9</ele>
        <time>2022-11-02T13:44:00Z</time>
      </trkpt>
      <trkpt lat="48.71615" lon="2.51811">
        <ele>81</ele>
        <time>2022-11-02T13:44:05Z</time>
      </trkpt>
      <trkpt lat="48.7162" lon="2.51808">
        <ele>81.2</ele>
        <time>2022-11-02T13:44:12Z</time>
      </trkpt>
      <trkpt lat="48.71625" lon="2.51807">
        <ele>82.3</ele>
        <time>2022-11-02T13:44:21Z</time>
      </trkpt>
      <trkpt lat="48.7163" lon="2.51804">
        <ele>82.5</ele>
        <time>2022-11-02T13:44:25Z</time>
      </trkpt>
      <trkpt lat="48.71636" lon="2.518">
        <ele>82.6</ele>
        <time>2022-11-02T13:44:28Z</time>
      </trkpt>
      <trkpt lat="48.7164" lon="2.51796">
        <ele>83.1</ele>
        <time>2022-11-02T13:44:31Z</time>
      </trkpt>
      <trkpt lat="48.71645" lon="2.51793">
        <ele>83.6</ele>
        <time>2022-11-02T13:44:37Z</time>
      </trkpt>
      <trkpt lat="48.71649" lon="2.5179">
        <ele>85.1</ele>
        <time>2022-11-02T13:44:48Z</time>
      </trkpt>
      <trkpt lat="48.71654" lon="2.51788">
        <ele>85.4</ele>
        <time>2022-11-02T13:44:52Z</time>
      </trkpt>
      <trkpt lat="48.71659" lon="2.51787">
        <ele>85.6</ele>
        <time>2022-11-02T13:44:55Z</time>
      </trkpt>
      <trkpt lat="48.71664" lon="2.51786">
        <ele>86.2</ele>
        <time>2022-11-02T13:44:58Z</time>
      </trkpt>
      <trkpt lat="48.7167" lon="2.51783">
        <ele>86.9</ele>
        <time>2022-11-02T13:45:02Z</time>
      </trkpt>
      <trkpt lat="48.71676" lon="2.51782">
        <ele>87.2</ele>
        <time>2022-11-02T13:45:05Z</time>
      </trkpt>
      <trkpt lat="48.7168" lon="2.51781">
        <ele>87.6</ele>
        <time>2022-11-02T13:45:08Z</time>
      </trkpt>
      <trkpt lat="48.71685" lon="2.51779">
        <ele>87.1</ele>
        <time>2022-11-02T13:45:13Z</time>
      </trkpt>
      <trkpt lat="48.71691" lon="2.51778">
        <ele>86.1</ele>
        <time>2022-11-02T13:45:17Z</time>
      </trkpt>
      <trkpt lat="48.71695" lon="2.51775">
        <ele>86.3</ele>
        <time>2022-11-02T13:45:22Z</time>
      </trkpt>
      <trkpt lat="48.71699" lon="2.51771">
        <ele>87.3</ele>
        <time>2022-11-02T13:45:26Z</time>
      </trkpt>
      <trkpt lat="48.71703" lon="2.51768">
        <ele>87.8</ele>
        <time>2022-11-02T13:45:29Z</time>
      </trkpt>
      <trkpt lat="48.71708" lon="2.51764">
        <ele>88</ele>
        <time>2022-11-02T13:45:33Z</time>
      </trkpt>
      <trkpt lat="48.71712" lon="2.51761">
        <ele>88.1</ele>
        <time>2022-11-02T13:45:38Z</time>
      </trkpt>
      <trkpt lat="48.71715" lon="2.51755">
        <ele>88.8</ele>
        <time>2022-11-02T13:45:48Z</time>
      </trkpt>
      <trkpt lat="48.7172" lon="2.51753">
        <ele>88.7</ele>
        <time>2022-11-02T13:45:55Z</time>
      </trkpt>
      <trkpt lat="48.71724" lon="2.5175">
        <ele>88.5</ele>
        <time>2022-11-02T13:46:00Z</time>
      </trkpt>
      <trkpt lat="48.71731" lon="2.51749">
        <ele>89.2</ele>
        <time>2022-11-02T13:46:05Z</time>
      </trkpt>
      <trkpt lat="48.71735" lon="2.51749">
        <ele>89.8</ele>
        <time>2022-11-02T13:46:08Z</time>
      </trkpt>
      <trkpt lat="48.7174" lon="2.51749">
        <ele>90.8</ele>
        <time>2022-11-02T13:46:14Z</time>
      </trkpt>
      <trkpt lat="48.71746" lon="2.51748">
        <ele>91.5</ele>
        <time>2022-11-02T13:46:20Z</time>
      </trkpt>
      <trkpt lat="48.71751" lon="2.51745">
        <ele>90.9</ele>
        <time>2022-11-02T13:46:24Z</time>
      </trkpt>
      <trkpt lat="48.71756" lon="2.51743">
        <ele>91</ele>
        <time>2022-11-02T13:46:28Z</time>
      </trkpt>
      <trkpt lat="48.71761" lon="2.51742">
        <ele>90.9</ele>
        <time>2022-11-02T13:46:32Z</time>
      </trkpt>
      <trkpt lat="48.71768" lon="2.51741">
        <ele>91.9</ele>
        <time>2022-11-02T13:46:36Z</time>
      </trkpt>
      <trkpt lat="48.71774" lon="2.51741">
        <ele>92.8</ele>
        <time>2022-11-02T13:46:40Z</time>
      </trkpt>
      <trkpt lat="48.71779" lon="2.5174">
        <ele>93.3</ele>
        <time>2022-11-02T13:46:43Z</time>
      </trkpt>
      <trkpt lat="48.71784" lon="2.5174">
        <ele>93</ele>
        <time>2022-11-02T13:46:47Z</time>
      </trkpt>
      <trkpt lat="48.71789" lon="2.51736">
        <ele>93.9</ele>
        <time>2022-11-02T13:46:52Z</time>
      </trkpt>
      <trkpt lat="48.71794" lon="2.51735">
        <ele>93.2</ele>
        <time>2022-11-02T13:46:58Z</time>
      </trkpt>
      <trkpt lat="48.71799" lon="2.51736">
        <ele>92.7</ele>
        <time>2022-11-02T13:47:01Z</time>
      </trkpt>
      <trkpt lat="48.71804" lon="2.51735">
        <ele>93</ele>
        <time>2022-11-02T13:47:06Z</time>
      </trkpt>
      <trkpt lat="48.71809" lon="2.51734">
        <ele>92.9</ele>
        <time>2022-11-02T13:47:18Z</time>
      </trkpt>
      <trkpt lat="48.71814" lon="2.51734">
        <ele>91.8</ele>
        <time>2022-11-02T13:47:23Z</time>
      </trkpt>
      <trkpt lat="48.71819" lon="2.51733">
        <ele>91.4</ele>
        <time>2022-11-02T13:47:27Z</time>
      </trkpt>
      <trkpt lat="48.71824" lon="2.51731">
        <ele>90.4</ele>
        <time>2022-11-02T13:47:32Z</time>
      </trkpt>
      <trkpt lat="48.71828" lon="2.5173">
        <ele>90.4</ele>
        <time>2022-11-02T13:47:41Z</time>
      </trkpt>
      <trkpt lat="48.71832" lon="2.51735">
        <ele>90.8</ele>
        <time>2022-11-02T13:48:03Z</time>
      </trkpt>
      <trkpt lat="48.71836" lon="2.51735">
        <ele>90.4</ele>
        <time>2022-11-02T13:48:14Z</time>
      </trkpt>
      <trkpt lat="48.7184" lon="2.51731">
        <ele>91.4</ele>
        <time>2022-11-02T13:48:19Z</time>
      </trkpt>
      <trkpt lat="48.71843" lon="2.51725">
        <ele>91</ele>
        <time>2022-11-02T13:48:30Z</time>
      </trkpt>
      <trkpt lat="48.71847" lon="2.51722">
        <ele>91.7</ele>
        <time>2022-11-02T13:48:35Z</time>
      </trkpt>
      <trkpt lat="48.71852" lon="2.51723">
        <ele>92.2</ele>
        <time>2022-11-02T13:48:41Z</time>
      </trkpt>
      <trkpt lat="48.71857" lon="2.51723">
        <ele>92</ele>
        <time>2022-11-02T13:48:45Z</time>
      </trkpt>
      <trkpt lat="48.71863" lon="2.51724">
        <ele>91.1</ele>
        <time>2022-11-02T13:48:49Z</time>
      </trkpt>
      <trkpt lat="48.71867" lon="2.51725">
        <ele>91.2</ele>
        <time>2022-11-02T13:48:52Z</time>
      </trkpt>
      <trkpt lat="48.71873" lon="2.51725">
        <ele>91.5</ele>
        <time>2022-11-02T13:48:56Z</time>
      </trkpt>
      <trkpt lat="48.71878" lon="2.51725">
        <ele>92.1</ele>
        <time>2022-11-02T13:49:00Z</time>
      </trkpt>
      <trkpt lat="48.71883" lon="2.51723">
        <ele>93</ele>
        <time>2022-11-02T13:49:06Z</time>
      </trkpt>
      <trkpt lat="48.71888" lon="2.51722">
        <ele>93.3</ele>
        <time>2022-11-02T13:49:11Z</time>
      </trkpt>
      <trkpt lat="48.71893" lon="2.51722">
        <ele>92.8</ele>
        <time>2022-11-02T13:49:15Z</time>
      </trkpt>
      <trkpt lat="48.71898" lon="2.51723">
        <ele>92.4</ele>
        <time>2022-11-02T13:49:19Z</time>
      </trkpt>
      <trkpt lat="48.71903" lon="2.51723">
        <ele>91.3</ele>
        <time>2022-11-02T13:49:23Z</time>
      </trkpt>
      <trkpt lat="48.71909" lon="2.51723">
        <ele>90.3</ele>
        <time>2022-11-02T13:49:27Z</time>
      </trkpt>
      <trkpt lat="48.71914" lon="2.51722">
        <ele>89.3</ele>
        <time>2022-11-02T13:49:31Z</time>
      </trkpt>
      <trkpt lat="48.71918" lon="2.51721">
        <ele>88.8</ele>
        <time>2022-11-02T13:49:35Z</time>
      </trkpt>
      <trkpt lat="48.71924" lon="2.51719">
        <ele>89.6</ele>
        <time>2022-11-02T13:49:39Z</time>
      </trkpt>
      <trkpt lat="48.7193" lon="2.51717">
        <ele>90.7</ele>
        <time>2022-11-02T13:49:42Z</time>
      </trkpt>
      <trkpt lat="48.71936" lon="2.51715">
        <ele>91.2</ele>
        <time>2022-11-02T13:49:46Z</time>
      </trkpt>
      <trkpt lat="48.7194" lon="2.51715">
        <ele>91.6</ele>
        <time>2022-11-02T13:49:50Z</time>
      </trkpt>
      <trkpt lat="48.71945" lon="2.51713">
        <ele>92.1</ele>
        <time>2022-11-02T13:49:54Z</time>
      </trkpt>
      <trkpt lat="48.7195" lon="2.51713">
        <ele>92.7</ele>
        <time>2022-11-02T13:49:58Z</time>
      </trkpt>
      <trkpt lat="48.71955" lon="2.51713">
        <ele>93.5</ele>
        <time>2022-11-02T13:50:02Z</time>
      </trkpt>
      <trkpt lat="48.7196" lon="2.51713">
        <ele>93.7</ele>
        <time>2022-11-02T13:50:06Z</time>
      </trkpt>
      <trkpt lat="48.71965" lon="2.51715">
        <ele>93.3</ele>
        <time>2022-11-02T13:50:10Z</time>
      </trkpt>
      <trkpt lat="48.7197" lon="2.51715">
        <ele>92.3</ele>
        <time>2022-11-02T13:50:15Z</time>
      </trkpt>
      <trkpt lat="48.71974" lon="2.51714">
        <ele>92</ele>
        <time>2022-11-02T13:50:19Z</time>
      </trkpt>
      <trkpt lat="48.7198" lon="2.51713">
        <ele>92.2</ele>
        <time>2022-11-02T13:50:23Z</time>
      </trkpt>
      <trkpt lat="48.71985" lon="2.51711">
        <ele>92.4</ele>
        <time>2022-11-02T13:50:27Z</time>
      </trkpt>
      <trkpt lat="48.71989" lon="2.5171">
        <ele>92.4</ele>
        <time>2022-11-02T13:50:31Z</time>
      </trkpt>
      <trkpt lat="48.71995" lon="2.51709">
        <ele>91.7</ele>
        <time>2022-11-02T13:50:37Z</time>
      </trkpt>
      <trkpt lat="48.72" lon="2.51707">
        <ele>91.7</ele>
        <time>2022-11-02T13:50:43Z</time>
      </trkpt>
      <trkpt lat="48.72005" lon="2.51707">
        <ele>92.1</ele>
        <time>2022-11-02T13:50:47Z</time>
      </trkpt>
      <trkpt lat="48.72011" lon="2.51705">
        <ele>93.2</ele>
        <time>2022-11-02T13:50:51Z</time>
      </trkpt>
      <trkpt lat="48.72016" lon="2.51703">
        <ele>94.5</ele>
        <time>2022-11-02T13:50:55Z</time>
      </trkpt>
      <trkpt lat="48.72021" lon="2.51702">
        <ele>95.4</ele>
        <time>2022-11-02T13:50:59Z</time>
      </trkpt>
      <trkpt lat="48.72026" lon="2.51702">
        <ele>95.8</ele>
        <time>2022-11-02T13:51:04Z</time>
      </trkpt>
      <trkpt lat="48.72032" lon="2.517">
        <ele>96.6</ele>
        <time>2022-11-02T13:51:08Z</time>
      </trkpt>
      <trkpt lat="48.72037" lon="2.51699">
        <ele>96.7</ele>
        <time>2022-11-02T13:51:13Z</time>
      </trkpt>
      <trkpt lat="48.72042" lon="2.51698">
        <ele>97.2</ele>
        <time>2022-11-02T13:51:17Z</time>
      </trkpt>
      <trkpt lat="48.72046" lon="2.51697">
        <ele>96.9</ele>
        <time>2022-11-02T13:51:22Z</time>
      </trkpt>
      <trkpt lat="48.72051" lon="2.51696">
        <ele>96.4</ele>
        <time>2022-11-02T13:51:27Z</time>
      </trkpt>
      <trkpt lat="48.72057" lon="2.51695">
        <ele>96.1</ele>
        <time>2022-11-02T13:51:32Z</time>
      </trkpt>
      <trkpt lat="48.72061" lon="2.51692">
        <ele>95.6</ele>
        <time>2022-11-02T13:51:37Z</time>
      </trkpt>
      <trkpt lat="48.72067" lon="2.51692">
        <ele>95.1</ele>
        <time>2022-11-02T13:51:42Z</time>
      </trkpt>
      <trkpt lat="48.72071" lon="2.51691">
        <ele>95.2</ele>
        <time>2022-11-02T13:51:50Z</time>
      </trkpt>
      <trkpt lat="48.72077" lon="2.5169">
        <ele>95</ele>
        <time>2022-11-02T13:51:55Z</time>
      </trkpt>
      <trkpt lat="48.72082" lon="2.5169">
        <ele>95</ele>
        <time>2022-11-02T13:51:59Z</time>
      </trkpt>
      <trkpt lat="48.72087" lon="2.5169">
        <ele>95</ele>
        <time>2022-11-02T13:52:03Z</time>
      </trkpt>
      <trkpt lat="48.72092" lon="2.51691">
        <ele>95.8</ele>
        <time>2022-11-02T13:52:09Z</time>
      </trkpt>
      <trkpt lat="48.72097" lon="2.51689">
        <ele>96.7</ele>
        <time>2022-11-02T13:52:13Z</time>
      </trkpt>
      <trkpt lat="48.72102" lon="2.51688">
        <ele>97</ele>
        <time>2022-11-02T13:52:17Z</time>
      </trkpt>
      <trkpt lat="48.72107" lon="2.51688">
        <ele>96.8</ele>
        <time>2022-11-02T13:52:21Z</time>
      </trkpt>
      <trkpt lat="48.72113" lon="2.51687">
        <ele>96.5</ele>
        <time>2022-11-02T13:52:25Z</time>
      </trkpt>
      <trkpt lat="48.72118" lon="2.51688">
        <ele>96.7</ele>
        <time>2022-11-02T13:52:28Z</time>
      </trkpt>
      <trkpt lat="48.72123" lon="2.51688">
        <ele>97.1</ele>
        <time>2022-11-02T13:52:33Z</time>
      </trkpt>
      <trkpt lat="48.72128" lon="2.51687">
        <ele>96.9</ele>
        <time>2022-11-02T13:52:39Z</time>
      </trkpt>
      <trkpt lat="48.72132" lon="2.51685">
        <ele>96.6</ele>
        <time>2022-11-02T13:52:42Z</time>
      </trkpt>
      <trkpt lat="48.72137" lon="2.51684">
        <ele>97</ele>
        <time>2022-11-02T13:52:46Z</time>
      </trkpt>
      <trkpt lat="48.72142" lon="2.51683">
        <ele>97.7</ele>
        <time>2022-11-02T13:52:50Z</time>
      </trkpt>
      <trkpt lat="48.72147" lon="2.51682">
        <ele>97.8</ele>
        <time>2022-11-02T13:52:55Z</time>
      </trkpt>
      <trkpt lat="48.72151" lon="2.51681">
        <ele>98.5</ele>
        <time>2022-11-02T13:52:59Z</time>
      </trkpt>
      <trkpt lat="48.72156" lon="2.5168">
        <ele>100.2</ele>
        <time>2022-11-02T13:53:03Z</time>
      </trkpt>
      <trkpt lat="48.72162" lon="2.51678">
        <ele>100.8</ele>
        <time>2022-11-02T13:53:07Z</time>
      </trkpt>
      <trkpt lat="48.72167" lon="2.51677">
        <ele>102.3</ele>
        <time>2022-11-02T13:53:11Z</time>
      </trkpt>
      <trkpt lat="48.72172" lon="2.51676">
        <ele>102.9</ele>
        <time>2022-11-02T13:53:15Z</time>
      </trkpt>
      <trkpt lat="48.72178" lon="2.51677">
        <ele>102.4</ele>
        <time>2022-11-02T13:53:20Z</time>
      </trkpt>
      <trkpt lat="48.72183" lon="2.51676">
        <ele>101.9</ele>
        <time>2022-11-02T13:53:24Z</time>
      </trkpt>
      <trkpt lat="48.72187" lon="2.51675">
        <ele>101.5</ele>
        <time>2022-11-02T13:53:28Z</time>
      </trkpt>
      <trkpt lat="48.72192" lon="2.51674">
        <ele>100.5</ele>
        <time>2022-11-02T13:53:33Z</time>
      </trkpt>
      <trkpt lat="48.72197" lon="2.51674">
        <ele>99.6</ele>
        <time>2022-11-02T13:53:38Z</time>
      </trkpt>
      <trkpt lat="48.72202" lon="2.51674">
        <ele>99.2</ele>
        <time>2022-11-02T13:53:43Z</time>
      </trkpt>
      <trkpt lat="48.72208" lon="2.51674">
        <ele>98.8</ele>
        <time>2022-11-02T13:53:48Z</time>
      </trkpt>
      <trkpt lat="48.72213" lon="2.51673">
        <ele>99.2</ele>
        <time>2022-11-02T13:53:52Z</time>
      </trkpt>
      <trkpt lat="48.72218" lon="2.51672">
        <ele>99.7</ele>
        <time>2022-11-02T13:53:57Z</time>
      </trkpt>
      <trkpt lat="48.72223" lon="2.51671">
        <ele>99.6</ele>
        <time>2022-11-02T13:54:04Z</time>
      </trkpt>
      <trkpt lat="48.72228" lon="2.51669">
        <ele>100.2</ele>
        <time>2022-11-02T13:54:11Z</time>
      </trkpt>
      <trkpt lat="48.72233" lon="2.51667">
        <ele>100.5</ele>
        <time>2022-11-02T13:54:16Z</time>
      </trkpt>
      <trkpt lat="48.72237" lon="2.51666">
        <ele>100.2</ele>
        <time>2022-11-02T13:54:20Z</time>
      </trkpt>
      <trkpt lat="48.72242" lon="2.51663">
        <ele>100.6</ele>
        <time>2022-11-02T13:54:24Z</time>
      </trkpt>
      <trkpt lat="48.72247" lon="2.51661">
        <ele>101.4</ele>
        <time>2022-11-02T13:54:28Z</time>
      </trkpt>
      <trkpt lat="48.72252" lon="2.51659">
        <ele>101.2</ele>
        <time>2022-11-02T13:54:33Z</time>
      </trkpt>
      <trkpt lat="48.72257" lon="2.51657">
        <ele>101.6</ele>
        <time>2022-11-02T13:54:38Z</time>
      </trkpt>
      <trkpt lat="48.72261" lon="2.51662">
        <ele>102.4</ele>
        <time>2022-11-02T13:55:23Z</time>
      </trkpt>
      <trkpt lat="48.72262" lon="2.51655">
        <ele>101.9</ele>
        <time>2022-11-02T13:55:39Z</time>
      </trkpt>
      <trkpt lat="48.72264" lon="2.51648">
        <ele>101.8</ele>
        <time>2022-11-02T13:55:43Z</time>
      </trkpt>
      <trkpt lat="48.72265" lon="2.5164">
        <ele>101.8</ele>
        <time>2022-11-02T13:55:47Z</time>
      </trkpt>
      <trkpt lat="48.72265" lon="2.51631">
        <ele>102.4</ele>
        <time>2022-11-02T13:55:51Z</time>
      </trkpt>
      <trkpt lat="48.72265" lon="2.51624">
        <ele>102.8</ele>
        <time>2022-11-02T13:55:54Z</time>
      </trkpt>
      <trkpt lat="48.72266" lon="2.51617">
        <ele>102.9</ele>
        <time>2022-11-02T13:55:57Z</time>
      </trkpt>
      <trkpt lat="48.72266" lon="2.51611">
        <ele>103</ele>
        <time>2022-11-02T13:56:01Z</time>
      </trkpt>
      <trkpt lat="48.7227" lon="2.51606">
        <ele>103.8</ele>
        <time>2022-11-02T13:56:35Z</time>
      </trkpt>
      <trkpt lat="48.72272" lon="2.51599">
        <ele>103.4</ele>
        <time>2022-11-02T13:56:40Z</time>
      </trkpt>
      <trkpt lat="48.72275" lon="2.51593">
        <ele>103.9</ele>
        <time>2022-11-02T13:56:44Z</time>
      </trkpt>
      <trkpt lat="48.72277" lon="2.51585">
        <ele>105.2</ele>
        <time>2022-11-02T13:56:48Z</time>
      </trkpt>
      <trkpt lat="48.72279" lon="2.51578">
        <ele>106.3</ele>
        <time>2022-11-02T13:56:52Z</time>
      </trkpt>
      <trkpt lat="48.72281" lon="2.51571">
        <ele>107.6</ele>
        <time>2022-11-02T13:56:56Z</time>
      </trkpt>
      <trkpt lat="48.72283" lon="2.51565">
        <ele>108.8</ele>
        <time>2022-11-02T13:57:01Z</time>
      </trkpt>
      <trkpt lat="48.72286" lon="2.51558">
        <ele>109.8</ele>
        <time>2022-11-02T13:57:08Z</time>
      </trkpt>
      <trkpt lat="48.72288" lon="2.51551">
        <ele>109.6</ele>
        <time>2022-11-02T13:57:12Z</time>
      </trkpt>
      <trkpt lat="48.72287" lon="2.51543">
        <ele>108.9</ele>
        <time>2022-11-02T13:57:17Z</time>
      </trkpt>
      <trkpt lat="48.72286" lon="2.51535">
        <ele>107.3</ele>
        <time>2022-11-02T13:57:22Z</time>
      </trkpt>
      <trkpt lat="48.72284" lon="2.51528">
        <ele>107.5</ele>
        <time>2022-11-02T13:57:26Z</time>
      </trkpt>
      <trkpt lat="48.72284" lon="2.5152">
        <ele>107.9</ele>
        <time>2022-11-02T13:57:30Z</time>
      </trkpt>
      <trkpt lat="48.72284" lon="2.51513">
        <ele>108.1</ele>
        <time>2022-11-02T13:57:35Z</time>
      </trkpt>
      <trkpt lat="48.72285" lon="2.51504">
        <ele>108.6</ele>
        <time>2022-11-02T13:57:40Z</time>
      </trkpt>
      <trkpt lat="48.72285" lon="2.51498">
        <ele>109.3</ele>
        <time>2022-11-02T13:57:43Z</time>
      </trkpt>
      <trkpt lat="48.72285" lon="2.5149">
        <ele>110.3</ele>
        <time>2022-11-02T13:57:47Z</time>
      </trkpt>
      <trkpt lat="48.72285" lon="2.51483">
        <ele>111.9</ele>
        <time>2022-11-02T13:57:55Z</time>
      </trkpt>
      <trkpt lat="48.72283" lon="2.51476">
        <ele>113.2</ele>
        <time>2022-11-02T13:57:59Z</time>
      </trkpt>
      <trkpt lat="48.72281" lon="2.5147">
        <ele>114.4</ele>
        <time>2022-11-02T13:58:04Z</time>
      </trkpt>
      <trkpt lat="48.72279" lon="2.51462">
        <ele>114.6</ele>
        <time>2022-11-02T13:58:12Z</time>
      </trkpt>
      <trkpt lat="48.7228" lon="2.51454">
        <ele>113.7</ele>
        <time>2022-11-02T13:58:17Z</time>
      </trkpt>
      <trkpt lat="48.72281" lon="2.51446">
        <ele>114.5</ele>
        <time>2022-11-02T13:58:21Z</time>
      </trkpt>
      <trkpt lat="48.72284" lon="2.5144">
        <ele>114.2</ele>
        <time>2022-11-02T13:58:24Z</time>
      </trkpt>
      <trkpt lat="48.72286" lon="2.51433">
        <ele>114.3</ele>
        <time>2022-11-02T13:58:28Z</time>
      </trkpt>
      <trkpt lat="48.72286" lon="2.51425">
        <ele>112.8</ele>
        <time>2022-11-02T13:58:33Z</time>
      </trkpt>
      <trkpt lat="48.72287" lon="2.51418">
        <ele>113.1</ele>
        <time>2022-11-02T13:58:37Z</time>
      </trkpt>
      <trkpt lat="48.72287" lon="2.5141">
        <ele>113.6</ele>
        <time>2022-11-02T13:58:41Z</time>
      </trkpt>
      <trkpt lat="48.72289" lon="2.51402">
        <ele>112.8</ele>
        <time>2022-11-02T13:58:46Z</time>
      </trkpt>
      <trkpt lat="48.7229" lon="2.51394">
        <ele>112.9</ele>
        <time>2022-11-02T13:58:50Z</time>
      </trkpt>
      <trkpt lat="48.72291" lon="2.51386">
        <ele>111.9</ele>
        <time>2022-11-02T13:58:54Z</time>
      </trkpt>
      <trkpt lat="48.72292" lon="2.51379">
        <ele>110.9</ele>
        <time>2022-11-02T13:58:58Z</time>
      </trkpt>
      <trkpt lat="48.72296" lon="2.51374">
        <ele>109.6</ele>
        <time>2022-11-02T13:59:02Z</time>
      </trkpt>
      <trkpt lat="48.72296" lon="2.51366">
        <ele>108.7</ele>
        <time>2022-11-02T13:59:10Z</time>
      </trkpt>
      <trkpt lat="48.72293" lon="2.51361">
        <ele>108.8</ele>
        <time>2022-11-02T13:59:15Z</time>
      </trkpt>
      <trkpt lat="48.7229" lon="2.51354">
        <ele>109.4</ele>
        <time>2022-11-02T13:59:20Z</time>
      </trkpt>
      <trkpt lat="48.72287" lon="2.51349">
        <ele>109.8</ele>
        <time>2022-11-02T13:59:24Z</time>
      </trkpt>
      <trkpt lat="48.72283" lon="2.51346">
        <ele>109.7</ele>
        <time>2022-11-02T13:59:28Z</time>
      </trkpt>
      <trkpt lat="48.72277" lon="2.51343">
        <ele>109.5</ele>
        <time>2022-11-02T13:59:33Z</time>
      </trkpt>
      <trkpt lat="48.72273" lon="2.5134">
        <ele>109.2</ele>
        <time>2022-11-02T13:59:37Z</time>
      </trkpt>
      <trkpt lat="48.72269" lon="2.51337">
        <ele>110.3</ele>
        <time>2022-11-02T13:59:42Z</time>
      </trkpt>
      <trkpt lat="48.72264" lon="2.51334">
        <ele>112.4</ele>
        <time>2022-11-02T13:59:47Z</time>
      </trkpt>
      <trkpt lat="48.72259" lon="2.51329">
        <ele>113.1</ele>
        <time>2022-11-02T13:59:52Z</time>
      </trkpt>
      <trkpt lat="48.72255" lon="2.51325">
        <ele>113.3</ele>
        <time>2022-11-02T13:59:57Z</time>
      </trkpt>
      <trkpt lat="48.72251" lon="2.51321">
        <ele>113.5</ele>
        <time>2022-11-02T14:00:02Z</time>
      </trkpt>
      <trkpt lat="48.72246" lon="2.51318">
        <ele>114.6</ele>
        <time>2022-11-02T14:00:07Z</time>
      </trkpt>
      <trkpt lat="48.72241" lon="2.51316">
        <ele>114.6</ele>
        <time>2022-11-02T14:00:11Z</time>
      </trkpt>
      <trkpt lat="48.72237" lon="2.51312">
        <ele>113.5</ele>
        <time>2022-11-02T14:00:15Z</time>
      </trkpt>
      <trkpt lat="48.72232" lon="2.51308">
        <ele>113.5</ele>
        <time>2022-11-02T14:00:19Z</time>
      </trkpt>
      <trkpt lat="48.72227" lon="2.51304">
        <ele>113.4</ele>
        <time>2022-11-02T14:00:24Z</time>
      </trkpt>
      <trkpt lat="48.72223" lon="2.51301">
        <ele>112.8</ele>
        <time>2022-11-02T14:00:28Z</time>
      </trkpt>
      <trkpt lat="48.72218" lon="2.51298">
        <ele>112</ele>
        <time>2022-11-02T14:00:32Z</time>
      </trkpt>
      <trkpt lat="48.72214" lon="2.51294">
        <ele>111.5</ele>
        <time>2022-11-02T14:00:39Z</time>
      </trkpt>
      <trkpt lat="48.72213" lon="2.51286">
        <ele>111.7</ele>
        <time>2022-11-02T14:00:44Z</time>
      </trkpt>
      <trkpt lat="48.72213" lon="2.51279">
        <ele>111.8</ele>
        <time>2022-11-02T14:00:48Z</time>
      </trkpt>
      <trkpt lat="48.72213" lon="2.51273">
        <ele>111.4</ele>
        <time>2022-11-02T14:00:52Z</time>
      </trkpt>
      <trkpt lat="48.72213" lon="2.51266">
        <ele>110.6</ele>
        <time>2022-11-02T14:00:56Z</time>
      </trkpt>
      <trkpt lat="48.72214" lon="2.51259">
        <ele>109.7</ele>
        <time>2022-11-02T14:01:00Z</time>
      </trkpt>
      <trkpt lat="48.72214" lon="2.51251">
        <ele>109.9</ele>
        <time>2022-11-02T14:01:04Z</time>
      </trkpt>
      <trkpt lat="48.72214" lon="2.51243">
        <ele>109.8</ele>
        <time>2022-11-02T14:01:08Z</time>
      </trkpt>
      <trkpt lat="48.72215" lon="2.51235">
        <ele>109.4</ele>
        <time>2022-11-02T14:01:12Z</time>
      </trkpt>
      <trkpt lat="48.72216" lon="2.51228">
        <ele>109.6</ele>
        <time>2022-11-02T14:01:17Z</time>
      </trkpt>
      <trkpt lat="48.72215" lon="2.51221">
        <ele>109.5</ele>
        <time>2022-11-02T14:01:24Z</time>
      </trkpt>
      <trkpt lat="48.72215" lon="2.51214">
        <ele>109.8</ele>
        <time>2022-11-02T14:01:28Z</time>
      </trkpt>
      <trkpt lat="48.72214" lon="2.51207">
        <ele>110.6</ele>
        <time>2022-11-02T14:01:32Z</time>
      </trkpt>
      <trkpt lat="48.72213" lon="2.51199">
        <ele>111.5</ele>
        <time>2022-11-02T14:01:36Z</time>
      </trkpt>
      <trkpt lat="48.72213" lon="2.51192">
        <ele>111.8</ele>
        <time>2022-11-02T14:01:40Z</time>
      </trkpt>
      <trkpt lat="48.72213" lon="2.51184">
        <ele>111.8</ele>
        <time>2022-11-02T14:01:44Z</time>
      </trkpt>
      <trkpt lat="48.72213" lon="2.51176">
        <ele>111.8</ele>
        <time>2022-11-02T14:01:48Z</time>
      </trkpt>
      <trkpt lat="48.72212" lon="2.51167">
        <ele>112.1</ele>
        <time>2022-11-02T14:01:52Z</time>
      </trkpt>
      <trkpt lat="48.72212" lon="2.51158">
        <ele>112.4</ele>
        <time>2022-11-02T14:01:56Z</time>
      </trkpt>
      <trkpt lat="48.72212" lon="2.5115">
        <ele>112.7</ele>
        <time>2022-11-02T14:02:01Z</time>
      </trkpt>
      <trkpt lat="48.72213" lon="2.51143">
        <ele>111.9</ele>
        <time>2022-11-02T14:02:05Z</time>
      </trkpt>
      <trkpt lat="48.72214" lon="2.51136">
        <ele>112.8</ele>
        <time>2022-11-02T14:02:09Z</time>
      </trkpt>
      <trkpt lat="48.72214" lon="2.51129">
        <ele>113.2</ele>
        <time>2022-11-02T14:02:13Z</time>
      </trkpt>
      <trkpt lat="48.72215" lon="2.51122">
        <ele>112.7</ele>
        <time>2022-11-02T14:02:17Z</time>
      </trkpt>
      <trkpt lat="48.72215" lon="2.51115">
        <ele>112.7</ele>
        <time>2022-11-02T14:02:21Z</time>
      </trkpt>
      <trkpt lat="48.72214" lon="2.51107">
        <ele>113</ele>
        <time>2022-11-02T14:02:25Z</time>
      </trkpt>
      <trkpt lat="48.72214" lon="2.511">
        <ele>113</ele>
        <time>2022-11-02T14:02:29Z</time>
      </trkpt>
      <trkpt lat="48.72213" lon="2.51093">
        <ele>112.9</ele>
        <time>2022-11-02T14:02:33Z</time>
      </trkpt>
      <trkpt lat="48.72213" lon="2.51085">
        <ele>112.8</ele>
        <time>2022-11-02T14:02:37Z</time>
      </trkpt>
      <trkpt lat="48.72214" lon="2.51078">
        <ele>112.7</ele>
        <time>2022-11-02T14:02:41Z</time>
      </trkpt>
      <trkpt lat="48.72216" lon="2.51072">
        <ele>112.5</ele>
        <time>2022-11-02T14:02:46Z</time>
      </trkpt>
      <trkpt lat="48.72221" lon="2.51067">
        <ele>113.2</ele>
        <time>2022-11-02T14:02:52Z</time>
      </trkpt>
      <trkpt lat="48.72225" lon="2.51065">
        <ele>113.8</ele>
        <time>2022-11-02T14:02:57Z</time>
      </trkpt>
      <trkpt lat="48.7223" lon="2.51068">
        <ele>115</ele>
        <time>2022-11-02T14:03:02Z</time>
      </trkpt>
      <trkpt lat="48.72234" lon="2.5107">
        <ele>115.8</ele>
        <time>2022-11-02T14:03:07Z</time>
      </trkpt>
      <trkpt lat="48.72239" lon="2.51073">
        <ele>116.6</ele>
        <time>2022-11-02T14:03:12Z</time>
      </trkpt>
      <trkpt lat="48.72244" lon="2.51074">
        <ele>117.2</ele>
        <time>2022-11-02T14:03:18Z</time>
      </trkpt>
      <trkpt lat="48.72248" lon="2.51072">
        <ele>113.5</ele>
        <time>2022-11-02T14:06:27Z</time>
      </trkpt>
      <trkpt lat="48.72248" lon="2.51063">
        <ele>113.6</ele>
        <time>2022-11-02T14:06:32Z</time>
      </trkpt>
      <trkpt lat="48.72249" lon="2.51055">
        <ele>114.1</ele>
        <time>2022-11-02T14:06:36Z</time>
      </trkpt>
      <trkpt lat="48.72252" lon="2.51048">
        <ele>114.5</ele>
        <time>2022-11-02T14:06:40Z</time>
      </trkpt>
      <trkpt lat="48.72255" lon="2.51042">
        <ele>113.9</ele>
        <time>2022-11-02T14:06:45Z</time>
      </trkpt>
      <trkpt lat="48.72258" lon="2.51036">
        <ele>113.8</ele>
        <time>2022-11-02T14:06:49Z</time>
      </trkpt>
      <trkpt lat="48.72261" lon="2.51031">
        <ele>114.3</ele>
        <time>2022-11-02T14:06:52Z</time>
      </trkpt>
      <trkpt lat="48.72264" lon="2.51025">
        <ele>115.5</ele>
        <time>2022-11-02T14:06:55Z</time>
      </trkpt>
      <trkpt lat="48.72268" lon="2.51019">
        <ele>116.9</ele>
        <time>2022-11-02T14:06:59Z</time>
      </trkpt>
      <trkpt lat="48.72272" lon="2.51013">
        <ele>117.6</ele>
        <time>2022-11-02T14:07:03Z</time>
      </trkpt>
      <trkpt lat="48.72276" lon="2.51007">
        <ele>117.7</ele>
        <time>2022-11-02T14:07:08Z</time>
      </trkpt>
      <trkpt lat="48.72279" lon="2.51001">
        <ele>117.7</ele>
        <time>2022-11-02T14:07:13Z</time>
      </trkpt>
      <trkpt lat="48.72282" lon="2.50995">
        <ele>117.2</ele>
        <time>2022-11-02T14:07:17Z</time>
      </trkpt>
      <trkpt lat="48.72284" lon="2.50988">
        <ele>115.9</ele>
        <time>2022-11-02T14:07:22Z</time>
      </trkpt>
      <trkpt lat="48.7228" lon="2.50983">
        <ele>115.2</ele>
        <time>2022-11-02T14:07:32Z</time>
      </trkpt>
      <trkpt lat="48.72278" lon="2.50975">
        <ele>115.4</ele>
        <time>2022-11-02T14:07:39Z</time>
      </trkpt>
      <trkpt lat="48.72275" lon="2.50967">
        <ele>114.2</ele>
        <time>2022-11-02T14:07:43Z</time>
      </trkpt>
      <trkpt lat="48.72272" lon="2.50961">
        <ele>114.1</ele>
        <time>2022-11-02T14:07:46Z</time>
      </trkpt>
      <trkpt lat="48.72269" lon="2.50955">
        <ele>114.1</ele>
        <time>2022-11-02T14:07:49Z</time>
      </trkpt>
      <trkpt lat="48.72266" lon="2.5095">
        <ele>114.5</ele>
        <time>2022-11-02T14:07:52Z</time>
      </trkpt>
      <trkpt lat="48.72263" lon="2.50943">
        <ele>114</ele>
        <time>2022-11-02T14:07:56Z</time>
      </trkpt>
      <trkpt lat="48.72259" lon="2.50938">
        <ele>114.1</ele>
        <time>2022-11-02T14:08:00Z</time>
      </trkpt>
      <trkpt lat="48.72254" lon="2.50935">
        <ele>114.1</ele>
        <time>2022-11-02T14:08:04Z</time>
      </trkpt>
      <trkpt lat="48.72249" lon="2.50932">
        <ele>114.4</ele>
        <time>2022-11-02T14:08:08Z</time>
      </trkpt>
      <trkpt lat="48.72245" lon="2.50928">
        <ele>114.6</ele>
        <time>2022-11-02T14:08:12Z</time>
      </trkpt>
      <trkpt lat="48.72241" lon="2.50924">
        <ele>115.5</ele>
        <time>2022-11-02T14:08:17Z</time>
      </trkpt>
      <trkpt lat="48.72236" lon="2.50919">
        <ele>115.6</ele>
        <time>2022-11-02T14:08:22Z</time>
      </trkpt>
      <trkpt lat="48.72232" lon="2.50915">
        <ele>115.8</ele>
        <time>2022-11-02T14:08:26Z</time>
      </trkpt>
      <trkpt lat="48.72228" lon="2.50911">
        <ele>116.2</ele>
        <time>2022-11-02T14:08:30Z</time>
      </trkpt>
      <trkpt lat="48.72223" lon="2.50907">
        <ele>116.3</ele>
        <time>2022-11-02T14:08:34Z</time>
      </trkpt>
      <trkpt lat="48.72219" lon="2.50903">
        <ele>116.6</ele>
        <time>2022-11-02T14:08:38Z</time>
      </trkpt>
      <trkpt lat="48.72216" lon="2.50899">
        <ele>116.5</ele>
        <time>2022-11-02T14:08:42Z</time>
      </trkpt>
      <trkpt lat="48.72212" lon="2.50893">
        <ele>116.9</ele>
        <time>2022-11-02T14:08:48Z</time>
      </trkpt>
      <trkpt lat="48.72212" lon="2.50886">
        <ele>116.2</ele>
        <time>2022-11-02T14:08:53Z</time>
      </trkpt>
      <trkpt lat="48.72212" lon="2.50879">
        <ele>115.8</ele>
        <time>2022-11-02T14:08:58Z</time>
      </trkpt>
      <trkpt lat="48.72212" lon="2.50872">
        <ele>115.9</ele>
        <time>2022-11-02T14:09:02Z</time>
      </trkpt>
      <trkpt lat="48.72212" lon="2.50865">
        <ele>115.6</ele>
        <time>2022-11-02T14:09:06Z</time>
      </trkpt>
      <trkpt lat="48.72211" lon="2.50858">
        <ele>114.4</ele>
        <time>2022-11-02T14:09:11Z</time>
      </trkpt>
      <trkpt lat="48.72211" lon="2.50851">
        <ele>114.2</ele>
        <time>2022-11-02T14:09:15Z</time>
      </trkpt>
      <trkpt lat="48.7221" lon="2.50842">
        <ele>114.1</ele>
        <time>2022-11-02T14:09:19Z</time>
      </trkpt>
      <trkpt lat="48.7221" lon="2.50834">
        <ele>114.9</ele>
        <time>2022-11-02T14:09:23Z</time>
      </trkpt>
      <trkpt lat="48.72209" lon="2.50826">
        <ele>115.6</ele>
        <time>2022-11-02T14:09:27Z</time>
      </trkpt>
      <trkpt lat="48.72208" lon="2.50817">
        <ele>115.8</ele>
        <time>2022-11-02T14:09:31Z</time>
      </trkpt>
      <trkpt lat="48.72207" lon="2.5081">
        <ele>115</ele>
        <time>2022-11-02T14:09:35Z</time>
      </trkpt>
      <trkpt lat="48.72208" lon="2.50803">
        <ele>112.5</ele>
        <time>2022-11-02T14:09:41Z</time>
      </trkpt>
      <trkpt lat="48.72208" lon="2.50795">
        <ele>110.8</ele>
        <time>2022-11-02T14:09:46Z</time>
      </trkpt>
      <trkpt lat="48.72208" lon="2.50787">
        <ele>109.6</ele>
        <time>2022-11-02T14:09:51Z</time>
      </trkpt>
      <trkpt lat="48.72208" lon="2.5078">
        <ele>109.4</ele>
        <time>2022-11-02T14:09:55Z</time>
      </trkpt>
      <trkpt lat="48.72209" lon="2.50772">
        <ele>109.8</ele>
        <time>2022-11-02T14:09:59Z</time>
      </trkpt>
      <trkpt lat="48.7221" lon="2.50765">
        <ele>108.8</ele>
        <time>2022-11-02T14:10:05Z</time>
      </trkpt>
      <trkpt lat="48.7221" lon="2.50758">
        <ele>107.9</ele>
        <time>2022-11-02T14:10:11Z</time>
      </trkpt>
      <trkpt lat="48.72211" lon="2.5075">
        <ele>109.1</ele>
        <time>2022-11-02T14:10:15Z</time>
      </trkpt>
      <trkpt lat="48.72212" lon="2.50741">
        <ele>110.4</ele>
        <time>2022-11-02T14:10:20Z</time>
      </trkpt>
      <trkpt lat="48.72212" lon="2.50734">
        <ele>111.1</ele>
        <time>2022-11-02T14:10:23Z</time>
      </trkpt>
      <trkpt lat="48.72212" lon="2.50726">
        <ele>112</ele>
        <time>2022-11-02T14:10:27Z</time>
      </trkpt>
      <trkpt lat="48.72211" lon="2.50718">
        <ele>111.9</ele>
        <time>2022-11-02T14:10:31Z</time>
      </trkpt>
      <trkpt lat="48.72212" lon="2.5071">
        <ele>111.9</ele>
        <time>2022-11-02T14:10:38Z</time>
      </trkpt>
      <trkpt lat="48.72211" lon="2.50703">
        <ele>112.9</ele>
        <time>2022-11-02T14:10:41Z</time>
      </trkpt>
      <trkpt lat="48.72211" lon="2.50694">
        <ele>113.5</ele>
        <time>2022-11-02T14:10:45Z</time>
      </trkpt>
      <trkpt lat="48.7221" lon="2.50686">
        <ele>114.7</ele>
        <time>2022-11-02T14:10:49Z</time>
      </trkpt>
      <trkpt lat="48.7221" lon="2.50678">
        <ele>115.3</ele>
        <time>2022-11-02T14:10:53Z</time>
      </trkpt>
      <trkpt lat="48.72211" lon="2.50671">
        <ele>115.6</ele>
        <time>2022-11-02T14:10:57Z</time>
      </trkpt>
      <trkpt lat="48.72211" lon="2.50665">
        <ele>115</ele>
        <time>2022-11-02T14:11:01Z</time>
      </trkpt>
      <trkpt lat="48.7221" lon="2.50657">
        <ele>113.6</ele>
        <time>2022-11-02T14:11:05Z</time>
      </trkpt>
      <trkpt lat="48.7221" lon="2.50649">
        <ele>112.4</ele>
        <time>2022-11-02T14:11:09Z</time>
      </trkpt>
      <trkpt lat="48.7221" lon="2.50641">
        <ele>112.2</ele>
        <time>2022-11-02T14:11:13Z</time>
      </trkpt>
      <trkpt lat="48.7221" lon="2.50633">
        <ele>112.2</ele>
        <time>2022-11-02T14:11:17Z</time>
      </trkpt>
      <trkpt lat="48.7221" lon="2.50626">
        <ele>112.1</ele>
        <time>2022-11-02T14:11:21Z</time>
      </trkpt>
      <trkpt lat="48.72211" lon="2.50619">
        <ele>112.6</ele>
        <time>2022-11-02T14:11:26Z</time>
      </trkpt>
      <trkpt lat="48.72212" lon="2.5061">
        <ele>112.8</ele>
        <time>2022-11-02T14:11:31Z</time>
      </trkpt>
      <trkpt lat="48.72212" lon="2.50603">
        <ele>112.4</ele>
        <time>2022-11-02T14:11:35Z</time>
      </trkpt>
      <trkpt lat="48.72213" lon="2.50595">
        <ele>112.9</ele>
        <time>2022-11-02T14:11:38Z</time>
      </trkpt>
      <trkpt lat="48.72214" lon="2.50587">
        <ele>113.3</ele>
        <time>2022-11-02T14:11:43Z</time>
      </trkpt>
      <trkpt lat="48.72213" lon="2.5058">
        <ele>112.4</ele>
        <time>2022-11-02T14:11:48Z</time>
      </trkpt>
      <trkpt lat="48.72213" lon="2.50571">
        <ele>111.1</ele>
        <time>2022-11-02T14:11:52Z</time>
      </trkpt>
      <trkpt lat="48.72213" lon="2.50563">
        <ele>108.2</ele>
        <time>2022-11-02T14:11:58Z</time>
      </trkpt>
      <trkpt lat="48.72212" lon="2.50556">
        <ele>107.1</ele>
        <time>2022-11-02T14:12:03Z</time>
      </trkpt>
      <trkpt lat="48.72212" lon="2.50547">
        <ele>108</ele>
        <time>2022-11-02T14:12:08Z</time>
      </trkpt>
      <trkpt lat="48.72212" lon="2.5054">
        <ele>108.6</ele>
        <time>2022-11-02T14:12:12Z</time>
      </trkpt>
      <trkpt lat="48.72213" lon="2.50532">
        <ele>108.8</ele>
        <time>2022-11-02T14:12:16Z</time>
      </trkpt>
      <trkpt lat="48.72214" lon="2.50525">
        <ele>109.1</ele>
        <time>2022-11-02T14:12:20Z</time>
      </trkpt>
      <trkpt lat="48.72215" lon="2.50517">
        <ele>109.4</ele>
        <time>2022-11-02T14:12:24Z</time>
      </trkpt>
      <trkpt lat="48.72216" lon="2.50511">
        <ele>109.4</ele>
        <time>2022-11-02T14:12:28Z</time>
      </trkpt>
      <trkpt lat="48.72216" lon="2.50503">
        <ele>108.8</ele>
        <time>2022-11-02T14:12:33Z</time>
      </trkpt>
      <trkpt lat="48.72215" lon="2.50496">
        <ele>108.3</ele>
        <time>2022-11-02T14:12:37Z</time>
      </trkpt>
      <trkpt lat="48.72215" lon="2.50488">
        <ele>106.9</ele>
        <time>2022-11-02T14:12:42Z</time>
      </trkpt>
      <trkpt lat="48.72214" lon="2.5048">
        <ele>106</ele>
        <time>2022-11-02T14:12:47Z</time>
      </trkpt>
      <trkpt lat="48.72213" lon="2.50473">
        <ele>104.8</ele>
        <time>2022-11-02T14:12:52Z</time>
      </trkpt>
      <trkpt lat="48.72212" lon="2.50464">
        <ele>104</ele>
        <time>2022-11-02T14:12:57Z</time>
      </trkpt>
      <trkpt lat="48.72211" lon="2.50457">
        <ele>103.1</ele>
        <time>2022-11-02T14:13:02Z</time>
      </trkpt>
      <trkpt lat="48.72211" lon="2.50449">
        <ele>102.1</ele>
        <time>2022-11-02T14:13:07Z</time>
      </trkpt>
      <trkpt lat="48.72211" lon="2.50441">
        <ele>102.7</ele>
        <time>2022-11-02T14:13:13Z</time>
      </trkpt>
      <trkpt lat="48.72211" lon="2.50434">
        <ele>102.5</ele>
        <time>2022-11-02T14:13:17Z</time>
      </trkpt>
      <trkpt lat="48.72211" lon="2.50427">
        <ele>102.3</ele>
        <time>2022-11-02T14:13:21Z</time>
      </trkpt>
      <trkpt lat="48.7221" lon="2.50418">
        <ele>102.7</ele>
        <time>2022-11-02T14:13:26Z</time>
      </trkpt>
      <trkpt lat="48.7221" lon="2.50411">
        <ele>103.4</ele>
        <time>2022-11-02T14:13:30Z</time>
      </trkpt>
      <trkpt lat="48.7221" lon="2.50403">
        <ele>103</ele>
        <time>2022-11-02T14:13:34Z</time>
      </trkpt>
      <trkpt lat="48.7221" lon="2.50393">
        <ele>103.3</ele>
        <time>2022-11-02T14:13:38Z</time>
      </trkpt>
      <trkpt lat="48.72209" lon="2.50385">
        <ele>103.6</ele>
        <time>2022-11-02T14:13:41Z</time>
      </trkpt>
      <trkpt lat="48.72209" lon="2.50377">
        <ele>103.9</ele>
        <time>2022-11-02T14:13:45Z</time>
      </trkpt>
      <trkpt lat="48.72208" lon="2.5037">
        <ele>103.6</ele>
        <time>2022-11-02T14:13:49Z</time>
      </trkpt>
      <trkpt lat="48.72208" lon="2.50362">
        <ele>102.7</ele>
        <time>2022-11-02T14:13:54Z</time>
      </trkpt>
      <trkpt lat="48.72208" lon="2.50354">
        <ele>101.2</ele>
        <time>2022-11-02T14:14:01Z</time>
      </trkpt>
      <trkpt lat="48.7221" lon="2.50347">
        <ele>99.5</ele>
        <time>2022-11-02T14:14:06Z</time>
      </trkpt>
      <trkpt lat="48.7221" lon="2.5034">
        <ele>99.3</ele>
        <time>2022-11-02T14:14:11Z</time>
      </trkpt>
      <trkpt lat="48.7221" lon="2.50332">
        <ele>100.2</ele>
        <time>2022-11-02T14:14:15Z</time>
      </trkpt>
      <trkpt lat="48.72211" lon="2.50325">
        <ele>101.2</ele>
        <time>2022-11-02T14:14:19Z</time>
      </trkpt>
      <trkpt lat="48.7221" lon="2.50318">
        <ele>100.7</ele>
        <time>2022-11-02T14:14:23Z</time>
      </trkpt>
      <trkpt lat="48.7221" lon="2.50311">
        <ele>99.4</ele>
        <time>2022-11-02T14:14:28Z</time>
      </trkpt>
      <trkpt lat="48.7221" lon="2.50303">
        <ele>98.3</ele>
        <time>2022-11-02T14:14:35Z</time>
      </trkpt>
      <trkpt lat="48.7221" lon="2.50295">
        <ele>99.3</ele>
        <time>2022-11-02T14:14:39Z</time>
      </trkpt>
      <trkpt lat="48.7221" lon="2.50288">
        <ele>100.7</ele>
        <time>2022-11-02T14:14:42Z</time>
      </trkpt>
      <trkpt lat="48.7221" lon="2.50281">
        <ele>101.7</ele>
        <time>2022-11-02T14:14:45Z</time>
      </trkpt>
      <trkpt lat="48.7221" lon="2.50273">
        <ele>102.8</ele>
        <time>2022-11-02T14:14:49Z</time>
      </trkpt>
      <trkpt lat="48.7221" lon="2.50265">
        <ele>103.2</ele>
        <time>2022-11-02T14:14:53Z</time>
      </trkpt>
      <trkpt lat="48.72209" lon="2.50258">
        <ele>103.5</ele>
        <time>2022-11-02T14:14:57Z</time>
      </trkpt>
      <trkpt lat="48.7221" lon="2.5025">
        <ele>101.7</ele>
        <time>2022-11-02T14:15:04Z</time>
      </trkpt>
      <trkpt lat="48.7221" lon="2.50241">
        <ele>102.1</ele>
        <time>2022-11-02T14:15:08Z</time>
      </trkpt>
      <trkpt lat="48.7221" lon="2.50234">
        <ele>102.5</ele>
        <time>2022-11-02T14:15:13Z</time>
      </trkpt>
      <trkpt lat="48.72209" lon="2.50226">
        <ele>101.9</ele>
        <time>2022-11-02T14:15:18Z</time>
      </trkpt>
      <trkpt lat="48.72208" lon="2.50219">
        <ele>100.9</ele>
        <time>2022-11-02T14:15:22Z</time>
      </trkpt>
      <trkpt lat="48.72207" lon="2.5021">
        <ele>101.1</ele>
        <time>2022-11-02T14:15:26Z</time>
      </trkpt>
      <trkpt lat="48.72206" lon="2.50202">
        <ele>101</ele>
        <time>2022-11-02T14:15:30Z</time>
      </trkpt>
      <trkpt lat="48.72206" lon="2.50195">
        <ele>100.5</ele>
        <time>2022-11-02T14:15:34Z</time>
      </trkpt>
      <trkpt lat="48.72205" lon="2.50188">
        <ele>99.6</ele>
        <time>2022-11-02T14:15:38Z</time>
      </trkpt>
      <trkpt lat="48.72205" lon="2.5018">
        <ele>99</ele>
        <time>2022-11-02T14:15:42Z</time>
      </trkpt>
      <trkpt lat="48.72206" lon="2.50173">
        <ele>98.5</ele>
        <time>2022-11-02T14:15:46Z</time>
      </trkpt>
      <trkpt lat="48.72208" lon="2.50167">
        <ele>96.5</ele>
        <time>2022-11-02T14:15:57Z</time>
      </trkpt>
      <trkpt lat="48.72209" lon="2.50159">
        <ele>95.6</ele>
        <time>2022-11-02T14:16:02Z</time>
      </trkpt>
      <trkpt lat="48.72207" lon="2.50151">
        <ele>96.3</ele>
        <time>2022-11-02T14:16:05Z</time>
      </trkpt>
      <trkpt lat="48.72205" lon="2.50144">
        <ele>96.1</ele>
        <time>2022-11-02T14:16:09Z</time>
      </trkpt>
      <trkpt lat="48.72202" lon="2.50138">
        <ele>95.3</ele>
        <time>2022-11-02T14:16:13Z</time>
      </trkpt>
      <trkpt lat="48.722" lon="2.50131">
        <ele>96.1</ele>
        <time>2022-11-02T14:16:18Z</time>
      </trkpt>
      <trkpt lat="48.72201" lon="2.50123">
        <ele>96.6</ele>
        <time>2022-11-02T14:16:23Z</time>
      </trkpt>
      <trkpt lat="48.72203" lon="2.50115">
        <ele>96</ele>
        <time>2022-11-02T14:16:28Z</time>
      </trkpt>
      <trkpt lat="48.72205" lon="2.50109">
        <ele>95.1</ele>
        <time>2022-11-02T14:16:33Z</time>
      </trkpt>
      <trkpt lat="48.72207" lon="2.50103">
        <ele>95.2</ele>
        <time>2022-11-02T14:16:47Z</time>
      </trkpt>
      <trkpt lat="48.72207" lon="2.50095">
        <ele>95.6</ele>
        <time>2022-11-02T14:16:52Z</time>
      </trkpt>
      <trkpt lat="48.72206" lon="2.50087">
        <ele>94.7</ele>
        <time>2022-11-02T14:16:57Z</time>
      </trkpt>
      <trkpt lat="48.72207" lon="2.5008">
        <ele>93.5</ele>
        <time>2022-11-02T14:17:02Z</time>
      </trkpt>
      <trkpt lat="48.72208" lon="2.50073">
        <ele>94</ele>
        <time>2022-11-02T14:17:06Z</time>
      </trkpt>
      <trkpt lat="48.72209" lon="2.50066">
        <ele>94.5</ele>
        <time>2022-11-02T14:17:10Z</time>
      </trkpt>
      <trkpt lat="48.72209" lon="2.50059">
        <ele>95</ele>
        <time>2022-11-02T14:17:14Z</time>
      </trkpt>
      <trkpt lat="48.7221" lon="2.50051">
        <ele>96.2</ele>
        <time>2022-11-02T14:17:17Z</time>
      </trkpt>
      <trkpt lat="48.72209" lon="2.50042">
        <ele>97</ele>
        <time>2022-11-02T14:17:21Z</time>
      </trkpt>
      <trkpt lat="48.72209" lon="2.50035">
        <ele>97.3</ele>
        <time>2022-11-02T14:17:24Z</time>
      </trkpt>
      <trkpt lat="48.72209" lon="2.50028">
        <ele>98.3</ele>
        <time>2022-11-02T14:17:28Z</time>
      </trkpt>
      <trkpt lat="48.7221" lon="2.5002">
        <ele>98.8</ele>
        <time>2022-11-02T14:17:32Z</time>
      </trkpt>
      <trkpt lat="48.72209" lon="2.50013">
        <ele>99</ele>
        <time>2022-11-02T14:17:37Z</time>
      </trkpt>
      <trkpt lat="48.72207" lon="2.50006">
        <ele>99.4</ele>
        <time>2022-11-02T14:17:59Z</time>
      </trkpt>
      <trkpt lat="48.72205" lon="2.49999">
        <ele>99.1</ele>
        <time>2022-11-02T14:18:03Z</time>
      </trkpt>
      <trkpt lat="48.72202" lon="2.49994">
        <ele>98.5</ele>
        <time>2022-11-02T14:18:07Z</time>
      </trkpt>
      <trkpt lat="48.72197" lon="2.4999">
        <ele>97.8</ele>
        <time>2022-11-02T14:18:11Z</time>
      </trkpt>
      <trkpt lat="48.72197" lon="2.49983">
        <ele>97.7</ele>
        <time>2022-11-02T14:18:25Z</time>
      </trkpt>
      <trkpt lat="48.72199" lon="2.49976">
        <ele>98.2</ele>
        <time>2022-11-02T14:18:29Z</time>
      </trkpt>
      <trkpt lat="48.72203" lon="2.49973">
        <ele>99.3</ele>
        <time>2022-11-02T14:18:33Z</time>
      </trkpt>
      <trkpt lat="48.72208" lon="2.4997">
        <ele>99.1</ele>
        <time>2022-11-02T14:18:37Z</time>
      </trkpt>
      <trkpt lat="48.72212" lon="2.49965">
        <ele>98.8</ele>
        <time>2022-11-02T14:18:41Z</time>
      </trkpt>
      <trkpt lat="48.72213" lon="2.49958">
        <ele>98</ele>
        <time>2022-11-02T14:18:46Z</time>
      </trkpt>
      <trkpt lat="48.72214" lon="2.4995">
        <ele>97.2</ele>
        <time>2022-11-02T14:18:51Z</time>
      </trkpt>
      <trkpt lat="48.72214" lon="2.49942">
        <ele>96.2</ele>
        <time>2022-11-02T14:18:56Z</time>
      </trkpt>
      <trkpt lat="48.72214" lon="2.49935">
        <ele>95.4</ele>
        <time>2022-11-02T14:19:01Z</time>
      </trkpt>
      <trkpt lat="48.72214" lon="2.49928">
        <ele>94.8</ele>
        <time>2022-11-02T14:19:05Z</time>
      </trkpt>
      <trkpt lat="48.72213" lon="2.4992">
        <ele>94.3</ele>
        <time>2022-11-02T14:19:10Z</time>
      </trkpt>
      <trkpt lat="48.72213" lon="2.49912">
        <ele>94.3</ele>
        <time>2022-11-02T14:19:14Z</time>
      </trkpt>
      <trkpt lat="48.72213" lon="2.49904">
        <ele>94.4</ele>
        <time>2022-11-02T14:19:17Z</time>
      </trkpt>
      <trkpt lat="48.72212" lon="2.49897">
        <ele>94.5</ele>
        <time>2022-11-02T14:19:20Z</time>
      </trkpt>
      <trkpt lat="48.72212" lon="2.49889">
        <ele>95.1</ele>
        <time>2022-11-02T14:19:24Z</time>
      </trkpt>
      <trkpt lat="48.72212" lon="2.49881">
        <ele>94</ele>
        <time>2022-11-02T14:19:29Z</time>
      </trkpt>
      <trkpt lat="48.72212" lon="2.49874">
        <ele>92.2</ele>
        <time>2022-11-02T14:19:34Z</time>
      </trkpt>
      <trkpt lat="48.72212" lon="2.49867">
        <ele>91</ele>
        <time>2022-11-02T14:19:38Z</time>
      </trkpt>
      <trkpt lat="48.72211" lon="2.4986">
        <ele>90.6</ele>
        <time>2022-11-02T14:19:42Z</time>
      </trkpt>
      <trkpt lat="48.72211" lon="2.49852">
        <ele>90.6</ele>
        <time>2022-11-02T14:19:46Z</time>
      </trkpt>
      <trkpt lat="48.72211" lon="2.49844">
        <ele>90.2</ele>
        <time>2022-11-02T14:19:50Z</time>
      </trkpt>
      <trkpt lat="48.7221" lon="2.49837">
        <ele>90.1</ele>
        <time>2022-11-02T14:19:55Z</time>
      </trkpt>
      <trkpt lat="48.7221" lon="2.4983">
        <ele>89.2</ele>
        <time>2022-11-02T14:19:59Z</time>
      </trkpt>
      <trkpt lat="48.72211" lon="2.49823">
        <ele>89.3</ele>
        <time>2022-11-02T14:20:03Z</time>
      </trkpt>
      <trkpt lat="48.72211" lon="2.49816">
        <ele>89.1</ele>
        <time>2022-11-02T14:20:07Z</time>
      </trkpt>
      <trkpt lat="48.72213" lon="2.49809">
        <ele>89.3</ele>
        <time>2022-11-02T14:20:12Z</time>
      </trkpt>
      <trkpt lat="48.72213" lon="2.49801">
        <ele>88.9</ele>
        <time>2022-11-02T14:20:18Z</time>
      </trkpt>
      <trkpt lat="48.72213" lon="2.49794">
        <ele>87.5</ele>
        <time>2022-11-02T14:20:28Z</time>
      </trkpt>
      <trkpt lat="48.72212" lon="2.49785">
        <ele>86.8</ele>
        <time>2022-11-02T14:20:33Z</time>
      </trkpt>
      <trkpt lat="48.72212" lon="2.49778">
        <ele>87.1</ele>
        <time>2022-11-02T14:20:36Z</time>
      </trkpt>
      <trkpt lat="48.72213" lon="2.49771">
        <ele>88.1</ele>
        <time>2022-11-02T14:20:39Z</time>
      </trkpt>
      <trkpt lat="48.72213" lon="2.49762">
        <ele>88.7</ele>
        <time>2022-11-02T14:20:43Z</time>
      </trkpt>
      <trkpt lat="48.72213" lon="2.49755">
        <ele>88.4</ele>
        <time>2022-11-02T14:20:46Z</time>
      </trkpt>
      <trkpt lat="48.72212" lon="2.49747">
        <ele>88.3</ele>
        <time>2022-11-02T14:20:50Z</time>
      </trkpt>
      <trkpt lat="48.72212" lon="2.49739">
        <ele>88.1</ele>
        <time>2022-11-02T14:20:54Z</time>
      </trkpt>
      <trkpt lat="48.72211" lon="2.49732">
        <ele>87.7</ele>
        <time>2022-11-02T14:20:58Z</time>
      </trkpt>
      <trkpt lat="48.72211" lon="2.49725">
        <ele>87.9</ele>
        <time>2022-11-02T14:21:02Z</time>
      </trkpt>
      <trkpt lat="48.72211" lon="2.49718">
        <ele>88.3</ele>
        <time>2022-11-02T14:21:06Z</time>
      </trkpt>
      <trkpt lat="48.72211" lon="2.49711">
        <ele>88.4</ele>
        <time>2022-11-02T14:21:10Z</time>
      </trkpt>
      <trkpt lat="48.72211" lon="2.49704">
        <ele>88.2</ele>
        <time>2022-11-02T14:21:14Z</time>
      </trkpt>
      <trkpt lat="48.72212" lon="2.49697">
        <ele>88.2</ele>
        <time>2022-11-02T14:21:18Z</time>
      </trkpt>
      <trkpt lat="48.72211" lon="2.4969">
        <ele>88.5</ele>
        <time>2022-11-02T14:21:22Z</time>
      </trkpt>
      <trkpt lat="48.72212" lon="2.49681">
        <ele>89.2</ele>
        <time>2022-11-02T14:21:27Z</time>
      </trkpt>
      <trkpt lat="48.72212" lon="2.49673">
        <ele>89.7</ele>
        <time>2022-11-02T14:21:32Z</time>
      </trkpt>
      <trkpt lat="48.72212" lon="2.49665">
        <ele>90</ele>
        <time>2022-11-02T14:21:37Z</time>
      </trkpt>
      <trkpt lat="48.72212" lon="2.49657">
        <ele>90.2</ele>
        <time>2022-11-02T14:21:42Z</time>
      </trkpt>
      <trkpt lat="48.72212" lon="2.4965">
        <ele>90</ele>
        <time>2022-11-02T14:21:46Z</time>
      </trkpt>
      <trkpt lat="48.72213" lon="2.49642">
        <ele>89.6</ele>
        <time>2022-11-02T14:21:51Z</time>
      </trkpt>
      <trkpt lat="48.72213" lon="2.49635">
        <ele>88.9</ele>
        <time>2022-11-02T14:21:55Z</time>
      </trkpt>
      <trkpt lat="48.72213" lon="2.49628">
        <ele>88.4</ele>
        <time>2022-11-02T14:21:59Z</time>
      </trkpt>
      <trkpt lat="48.72213" lon="2.49621">
        <ele>87.8</ele>
        <time>2022-11-02T14:22:03Z</time>
      </trkpt>
      <trkpt lat="48.72212" lon="2.49612">
        <ele>87.2</ele>
        <time>2022-11-02T14:22:08Z</time>
      </trkpt>
      <trkpt lat="48.72211" lon="2.49604">
        <ele>87.9</ele>
        <time>2022-11-02T14:22:12Z</time>
      </trkpt>
      <trkpt lat="48.72211" lon="2.49597">
        <ele>87.7</ele>
        <time>2022-11-02T14:22:16Z</time>
      </trkpt>
      <trkpt lat="48.72212" lon="2.4959">
        <ele>87.8</ele>
        <time>2022-11-02T14:22:21Z</time>
      </trkpt>
      <trkpt lat="48.72212" lon="2.49583">
        <ele>88.1</ele>
        <time>2022-11-02T14:22:26Z</time>
      </trkpt>
      <trkpt lat="48.72211" lon="2.49575">
        <ele>88.5</ele>
        <time>2022-11-02T14:22:31Z</time>
      </trkpt>
      <trkpt lat="48.72209" lon="2.49568">
        <ele>89</ele>
        <time>2022-11-02T14:22:36Z</time>
      </trkpt>
      <trkpt lat="48.72209" lon="2.4956">
        <ele>89.6</ele>
        <time>2022-11-02T14:22:42Z</time>
      </trkpt>
      <trkpt lat="48.72208" lon="2.49553">
        <ele>89.9</ele>
        <time>2022-11-02T14:22:46Z</time>
      </trkpt>
      <trkpt lat="48.72207" lon="2.49545">
        <ele>91.1</ele>
        <time>2022-11-02T14:22:51Z</time>
      </trkpt>
      <trkpt lat="48.72207" lon="2.49538">
        <ele>92</ele>
        <time>2022-11-02T14:22:55Z</time>
      </trkpt>
      <trkpt lat="48.72208" lon="2.4953">
        <ele>92.6</ele>
        <time>2022-11-02T14:23:00Z</time>
      </trkpt>
      <trkpt lat="48.72208" lon="2.49522">
        <ele>92.7</ele>
        <time>2022-11-02T14:23:09Z</time>
      </trkpt>
      <trkpt lat="48.72207" lon="2.49514">
        <ele>94.3</ele>
        <time>2022-11-02T14:23:12Z</time>
      </trkpt>
      <trkpt lat="48.72207" lon="2.49505">
        <ele>95.7</ele>
        <time>2022-11-02T14:23:15Z</time>
      </trkpt>
      <trkpt lat="48.72207" lon="2.49496">
        <ele>96.8</ele>
        <time>2022-11-02T14:23:18Z</time>
      </trkpt>
      <trkpt lat="48.72208" lon="2.49489">
        <ele>97.8</ele>
        <time>2022-11-02T14:23:21Z</time>
      </trkpt>
      <trkpt lat="48.72208" lon="2.49481">
        <ele>98.5</ele>
        <time>2022-11-02T14:23:25Z</time>
      </trkpt>
      <trkpt lat="48.72209" lon="2.49473">
        <ele>98.4</ele>
        <time>2022-11-02T14:23:29Z</time>
      </trkpt>
      <trkpt lat="48.72209" lon="2.49465">
        <ele>97.5</ele>
        <time>2022-11-02T14:23:34Z</time>
      </trkpt>
      <trkpt lat="48.7221" lon="2.49457">
        <ele>97.3</ele>
        <time>2022-11-02T14:23:38Z</time>
      </trkpt>
      <trkpt lat="48.72211" lon="2.4945">
        <ele>96.6</ele>
        <time>2022-11-02T14:23:42Z</time>
      </trkpt>
      <trkpt lat="48.72212" lon="2.49443">
        <ele>95.7</ele>
        <time>2022-11-02T14:23:46Z</time>
      </trkpt>
      <trkpt lat="48.72212" lon="2.49435">
        <ele>95.4</ele>
        <time>2022-11-02T14:23:51Z</time>
      </trkpt>
      <trkpt lat="48.72213" lon="2.49427">
        <ele>95.2</ele>
        <time>2022-11-02T14:23:56Z</time>
      </trkpt>
      <trkpt lat="48.72213" lon="2.49419">
        <ele>95.7</ele>
        <time>2022-11-02T14:24:00Z</time>
      </trkpt>
      <trkpt lat="48.72213" lon="2.49412">
        <ele>96.2</ele>
        <time>2022-11-02T14:24:04Z</time>
      </trkpt>
      <trkpt lat="48.72213" lon="2.49404">
        <ele>97.2</ele>
        <time>2022-11-02T14:24:09Z</time>
      </trkpt>
      <trkpt lat="48.72213" lon="2.49397">
        <ele>97.8</ele>
        <time>2022-11-02T14:24:13Z</time>
      </trkpt>
      <trkpt lat="48.72213" lon="2.49389">
        <ele>97.9</ele>
        <time>2022-11-02T14:24:18Z</time>
      </trkpt>
      <trkpt lat="48.72211" lon="2.49382">
        <ele>99.5</ele>
        <time>2022-11-02T14:24:25Z</time>
      </trkpt>
      <trkpt lat="48.72211" lon="2.49375">
        <ele>100.1</ele>
        <time>2022-11-02T14:24:34Z</time>
      </trkpt>
      <trkpt lat="48.72211" lon="2.49368">
        <ele>101.5</ele>
        <time>2022-11-02T14:24:37Z</time>
      </trkpt>
      <trkpt lat="48.72211" lon="2.49361">
        <ele>102.8</ele>
        <time>2022-11-02T14:24:40Z</time>
      </trkpt>
      <trkpt lat="48.7221" lon="2.49353">
        <ele>103.5</ele>
        <time>2022-11-02T14:24:43Z</time>
      </trkpt>
      <trkpt lat="48.7221" lon="2.49345">
        <ele>104.7</ele>
        <time>2022-11-02T14:24:46Z</time>
      </trkpt>
      <trkpt lat="48.7221" lon="2.49337">
        <ele>104.6</ele>
        <time>2022-11-02T14:24:49Z</time>
      </trkpt>
      <trkpt lat="48.7221" lon="2.4933">
        <ele>103.7</ele>
        <time>2022-11-02T14:24:52Z</time>
      </trkpt>
      <trkpt lat="48.72211" lon="2.49322">
        <ele>103</ele>
        <time>2022-11-02T14:24:55Z</time>
      </trkpt>
      <trkpt lat="48.7221" lon="2.49314">
        <ele>102.3</ele>
        <time>2022-11-02T14:24:58Z</time>
      </trkpt>
      <trkpt lat="48.7221" lon="2.49306">
        <ele>101</ele>
        <time>2022-11-02T14:25:02Z</time>
      </trkpt>
      <trkpt lat="48.72211" lon="2.49299">
        <ele>99.3</ele>
        <time>2022-11-02T14:25:06Z</time>
      </trkpt>
      <trkpt lat="48.7221" lon="2.49292">
        <ele>98.3</ele>
        <time>2022-11-02T14:25:10Z</time>
      </trkpt>
      <trkpt lat="48.72209" lon="2.49285">
        <ele>96.7</ele>
        <time>2022-11-02T14:25:15Z</time>
      </trkpt>
      <trkpt lat="48.72208" lon="2.49277">
        <ele>95.7</ele>
        <time>2022-11-02T14:25:20Z</time>
      </trkpt>
      <trkpt lat="48.72209" lon="2.49271">
        <ele>96.4</ele>
        <time>2022-11-02T14:25:26Z</time>
      </trkpt>
      <trkpt lat="48.7221" lon="2.49264">
        <ele>96</ele>
        <time>2022-11-02T14:25:33Z</time>
      </trkpt>
      <trkpt lat="48.72211" lon="2.49257">
        <ele>96.2</ele>
        <time>2022-11-02T14:25:38Z</time>
      </trkpt>
      <trkpt lat="48.72211" lon="2.4925">
        <ele>96.7</ele>
        <time>2022-11-02T14:25:45Z</time>
      </trkpt>
      <trkpt lat="48.72211" lon="2.49243">
        <ele>98.1</ele>
        <time>2022-11-02T14:25:49Z</time>
      </trkpt>
      <trkpt lat="48.72211" lon="2.49235">
        <ele>99.4</ele>
        <time>2022-11-02T14:25:52Z</time>
      </trkpt>
      <trkpt lat="48.72211" lon="2.49227">
        <ele>101</ele>
        <time>2022-11-02T14:25:55Z</time>
      </trkpt>
      <trkpt lat="48.72211" lon="2.49219">
        <ele>101.9</ele>
        <time>2022-11-02T14:25:58Z</time>
      </trkpt>
      <trkpt lat="48.72211" lon="2.49211">
        <ele>102.7</ele>
        <time>2022-11-02T14:26:01Z</time>
      </trkpt>
      <trkpt lat="48.72211" lon="2.49204">
        <ele>102.1</ele>
        <time>2022-11-02T14:26:05Z</time>
      </trkpt>
      <trkpt lat="48.7221" lon="2.49195">
        <ele>100.9</ele>
        <time>2022-11-02T14:26:09Z</time>
      </trkpt>
      <trkpt lat="48.7221" lon="2.49187">
        <ele>100.9</ele>
        <time>2022-11-02T14:26:13Z</time>
      </trkpt>
      <trkpt lat="48.7221" lon="2.49179">
        <ele>99.9</ele>
        <time>2022-11-02T14:26:17Z</time>
      </trkpt>
      <trkpt lat="48.72211" lon="2.49172">
        <ele>98.5</ele>
        <time>2022-11-02T14:26:22Z</time>
      </trkpt>
      <trkpt lat="48.72211" lon="2.49165">
        <ele>98.2</ele>
        <time>2022-11-02T14:26:26Z</time>
      </trkpt>
      <trkpt lat="48.7221" lon="2.49157">
        <ele>97.5</ele>
        <time>2022-11-02T14:26:33Z</time>
      </trkpt>
      <trkpt lat="48.7221" lon="2.49149">
        <ele>97.1</ele>
        <time>2022-11-02T14:26:39Z</time>
      </trkpt>
      <trkpt lat="48.7221" lon="2.49141">
        <ele>97.1</ele>
        <time>2022-11-02T14:26:42Z</time>
      </trkpt>
      <trkpt lat="48.7221" lon="2.49134">
        <ele>96.9</ele>
        <time>2022-11-02T14:26:45Z</time>
      </trkpt>
      <trkpt lat="48.7221" lon="2.49125">
        <ele>95.4</ele>
        <time>2022-11-02T14:26:49Z</time>
      </trkpt>
      <trkpt lat="48.72212" lon="2.49118">
        <ele>94.4</ele>
        <time>2022-11-02T14:26:53Z</time>
      </trkpt>
      <trkpt lat="48.72212" lon="2.49111">
        <ele>93.9</ele>
        <time>2022-11-02T14:26:57Z</time>
      </trkpt>
      <trkpt lat="48.72213" lon="2.49103">
        <ele>93.2</ele>
        <time>2022-11-02T14:27:02Z</time>
      </trkpt>
      <trkpt lat="48.72209" lon="2.49098">
        <ele>95.9</ele>
        <time>2022-11-02T14:27:28Z</time>
      </trkpt>
      <trkpt lat="48.72206" lon="2.49091">
        <ele>96.6</ele>
        <time>2022-11-02T14:27:33Z</time>
      </trkpt>
      <trkpt lat="48.72203" lon="2.49086">
        <ele>97.4</ele>
        <time>2022-11-02T14:27:38Z</time>
      </trkpt>
      <trkpt lat="48.72199" lon="2.49081">
        <ele>96.4</ele>
        <time>2022-11-02T14:27:43Z</time>
      </trkpt>
      <trkpt lat="48.72195" lon="2.49078">
        <ele>95</ele>
        <time>2022-11-02T14:27:48Z</time>
      </trkpt>
      <trkpt lat="48.72191" lon="2.49073">
        <ele>94.7</ele>
        <time>2022-11-02T14:27:53Z</time>
      </trkpt>
      <trkpt lat="48.72189" lon="2.49067">
        <ele>96.5</ele>
        <time>2022-11-02T14:28:05Z</time>
      </trkpt>
      <trkpt lat="48.72195" lon="2.49071">
        <ele>96.3</ele>
        <time>2022-11-02T14:29:21Z</time>
      </trkpt>
      <trkpt lat="48.72199" lon="2.49074">
        <ele>96.6</ele>
        <time>2022-11-02T14:29:23Z</time>
      </trkpt>
      <trkpt lat="48.72204" lon="2.49078">
        <ele>97</ele>
        <time>2022-11-02T14:29:26Z</time>
      </trkpt>
      <trkpt lat="48.72209" lon="2.49081">
        <ele>98.6</ele>
        <time>2022-11-02T14:29:30Z</time>
      </trkpt>
      <trkpt lat="48.72214" lon="2.49084">
        <ele>100.9</ele>
        <time>2022-11-02T14:29:35Z</time>
      </trkpt>
      <trkpt lat="48.72215" lon="2.49091">
        <ele>102.4</ele>
        <time>2022-11-02T14:29:42Z</time>
      </trkpt>
      <trkpt lat="48.72211" lon="2.49094">
        <ele>102</ele>
        <time>2022-11-02T14:30:24Z</time>
      </trkpt>
      <trkpt lat="48.72213" lon="2.49088">
        <ele>98.3</ele>
        <time>2022-11-02T14:30:56Z</time>
      </trkpt>
      <trkpt lat="48.72215" lon="2.49082">
        <ele>97.6</ele>
        <time>2022-11-02T14:31:00Z</time>
      </trkpt>
      <trkpt lat="48.72216" lon="2.49074">
        <ele>96</ele>
        <time>2022-11-02T14:31:05Z</time>
      </trkpt>
      <trkpt lat="48.72216" lon="2.49065">
        <ele>95.7</ele>
        <time>2022-11-02T14:31:09Z</time>
      </trkpt>
      <trkpt lat="48.72214" lon="2.49058">
        <ele>96.7</ele>
        <time>2022-11-02T14:31:14Z</time>
      </trkpt>
      <trkpt lat="48.72214" lon="2.49051">
        <ele>98</ele>
        <time>2022-11-02T14:31:19Z</time>
      </trkpt>
      <trkpt lat="48.72213" lon="2.49044">
        <ele>99.2</ele>
        <time>2022-11-02T14:31:23Z</time>
      </trkpt>
      <trkpt lat="48.72212" lon="2.49037">
        <ele>98.9</ele>
        <time>2022-11-02T14:31:28Z</time>
      </trkpt>
      <trkpt lat="48.72211" lon="2.4903">
        <ele>98.4</ele>
        <time>2022-11-02T14:31:38Z</time>
      </trkpt>
      <trkpt lat="48.7221" lon="2.49023">
        <ele>98.2</ele>
        <time>2022-11-02T14:31:41Z</time>
      </trkpt>
      <trkpt lat="48.72211" lon="2.49015">
        <ele>96.3</ele>
        <time>2022-11-02T14:31:45Z</time>
      </trkpt>
      <trkpt lat="48.72212" lon="2.49006">
        <ele>94.1</ele>
        <time>2022-11-02T14:31:49Z</time>
      </trkpt>
      <trkpt lat="48.72213" lon="2.48998">
        <ele>92.2</ele>
        <time>2022-11-02T14:31:53Z</time>
      </trkpt>
      <trkpt lat="48.72214" lon="2.4899">
        <ele>91.2</ele>
        <time>2022-11-02T14:31:57Z</time>
      </trkpt>
      <trkpt lat="48.72214" lon="2.48982">
        <ele>90.7</ele>
        <time>2022-11-02T14:32:01Z</time>
      </trkpt>
      <trkpt lat="48.72214" lon="2.48975">
        <ele>90.6</ele>
        <time>2022-11-02T14:32:05Z</time>
      </trkpt>
      <trkpt lat="48.72214" lon="2.48967">
        <ele>89.6</ele>
        <time>2022-11-02T14:32:10Z</time>
      </trkpt>
      <trkpt lat="48.72214" lon="2.4896">
        <ele>88.7</ele>
        <time>2022-11-02T14:32:15Z</time>
      </trkpt>
      <trkpt lat="48.72215" lon="2.48953">
        <ele>87.6</ele>
        <time>2022-11-02T14:32:20Z</time>
      </trkpt>
      <trkpt lat="48.72215" lon="2.48945">
        <ele>88</ele>
        <time>2022-11-02T14:32:24Z</time>
      </trkpt>
      <trkpt lat="48.72215" lon="2.48938">
        <ele>88.3</ele>
        <time>2022-11-02T14:32:27Z</time>
      </trkpt>
      <trkpt lat="48.72214" lon="2.48929">
        <ele>88.3</ele>
        <time>2022-11-02T14:32:31Z</time>
      </trkpt>
      <trkpt lat="48.72213" lon="2.48921">
        <ele>88.9</ele>
        <time>2022-11-02T14:32:35Z</time>
      </trkpt>
      <trkpt lat="48.72213" lon="2.48912">
        <ele>89.8</ele>
        <time>2022-11-02T14:32:39Z</time>
      </trkpt>
      <trkpt lat="48.72214" lon="2.48904">
        <ele>90.7</ele>
        <time>2022-11-02T14:32:43Z</time>
      </trkpt>
      <trkpt lat="48.72213" lon="2.48897">
        <ele>92</ele>
        <time>2022-11-02T14:32:47Z</time>
      </trkpt>
      <trkpt lat="48.72213" lon="2.4889">
        <ele>92.6</ele>
        <time>2022-11-02T14:32:51Z</time>
      </trkpt>
      <trkpt lat="48.72214" lon="2.48881">
        <ele>94.2</ele>
        <time>2022-11-02T14:32:56Z</time>
      </trkpt>
      <trkpt lat="48.72216" lon="2.48875">
        <ele>95.6</ele>
        <time>2022-11-02T14:33:00Z</time>
      </trkpt>
      <trkpt lat="48.72218" lon="2.48868">
        <ele>98.1</ele>
        <time>2022-11-02T14:33:04Z</time>
      </trkpt>
      <trkpt lat="48.72218" lon="2.48861">
        <ele>98.6</ele>
        <time>2022-11-02T14:33:08Z</time>
      </trkpt>
      <trkpt lat="48.72218" lon="2.48853">
        <ele>98.8</ele>
        <time>2022-11-02T14:33:13Z</time>
      </trkpt>
      <trkpt lat="48.72215" lon="2.48847">
        <ele>97.2</ele>
        <time>2022-11-02T14:33:18Z</time>
      </trkpt>
      <trkpt lat="48.7221" lon="2.48843">
        <ele>96.5</ele>
        <time>2022-11-02T14:33:22Z</time>
      </trkpt>
      <trkpt lat="48.72205" lon="2.48842">
        <ele>96.5</ele>
        <time>2022-11-02T14:33:26Z</time>
      </trkpt>
      <trkpt lat="48.722" lon="2.48842">
        <ele>96.9</ele>
        <time>2022-11-02T14:33:30Z</time>
      </trkpt>
      <trkpt lat="48.72194" lon="2.48841">
        <ele>97.5</ele>
        <time>2022-11-02T14:33:34Z</time>
      </trkpt>
      <trkpt lat="48.72189" lon="2.48841">
        <ele>97.8</ele>
        <time>2022-11-02T14:33:38Z</time>
      </trkpt>
      <trkpt lat="48.72184" lon="2.48839">
        <ele>97.4</ele>
        <time>2022-11-02T14:33:42Z</time>
      </trkpt>
      <trkpt lat="48.7218" lon="2.48837">
        <ele>96.9</ele>
        <time>2022-11-02T14:33:46Z</time>
      </trkpt>
      <trkpt lat="48.72175" lon="2.48835">
        <ele>96.4</ele>
        <time>2022-11-02T14:33:51Z</time>
      </trkpt>
      <trkpt lat="48.7217" lon="2.48834">
        <ele>96.2</ele>
        <time>2022-11-02T14:33:55Z</time>
      </trkpt>
      <trkpt lat="48.72165" lon="2.48832">
        <ele>95.5</ele>
        <time>2022-11-02T14:34:00Z</time>
      </trkpt>
      <trkpt lat="48.7216" lon="2.48832">
        <ele>95.3</ele>
        <time>2022-11-02T14:34:04Z</time>
      </trkpt>
      <trkpt lat="48.72155" lon="2.48832">
        <ele>93.8</ele>
        <time>2022-11-02T14:34:09Z</time>
      </trkpt>
      <trkpt lat="48.7215" lon="2.48829">
        <ele>92.4</ele>
        <time>2022-11-02T14:34:14Z</time>
      </trkpt>
      <trkpt lat="48.72145" lon="2.48826">
        <ele>92.6</ele>
        <time>2022-11-02T14:34:19Z</time>
      </trkpt>
      <trkpt lat="48.7214" lon="2.48825">
        <ele>94.1</ele>
        <time>2022-11-02T14:34:24Z</time>
      </trkpt>
      <trkpt lat="48.72135" lon="2.48824">
        <ele>95.2</ele>
        <time>2022-11-02T14:34:28Z</time>
      </trkpt>
      <trkpt lat="48.7213" lon="2.48825">
        <ele>95.5</ele>
        <time>2022-11-02T14:34:32Z</time>
      </trkpt>
      <trkpt lat="48.72125" lon="2.48824">
        <ele>96.2</ele>
        <time>2022-11-02T14:34:37Z</time>
      </trkpt>
      <trkpt lat="48.7212" lon="2.48823">
        <ele>95.1</ele>
        <time>2022-11-02T14:34:42Z</time>
      </trkpt>
      <trkpt lat="48.72115" lon="2.48822">
        <ele>93.1</ele>
        <time>2022-11-02T14:34:48Z</time>
      </trkpt>
      <trkpt lat="48.7211" lon="2.48821">
        <ele>93.9</ele>
        <time>2022-11-02T14:34:53Z</time>
      </trkpt>
      <trkpt lat="48.72105" lon="2.4882">
        <ele>95.6</ele>
        <time>2022-11-02T14:34:58Z</time>
      </trkpt>
      <trkpt lat="48.721" lon="2.48819">
        <ele>96.2</ele>
        <time>2022-11-02T14:35:03Z</time>
      </trkpt>
      <trkpt lat="48.72095" lon="2.48816">
        <ele>95.7</ele>
        <time>2022-11-02T14:35:09Z</time>
      </trkpt>
      <trkpt lat="48.72091" lon="2.48813">
        <ele>95.5</ele>
        <time>2022-11-02T14:35:14Z</time>
      </trkpt>
      <trkpt lat="48.72088" lon="2.48807">
        <ele>95.4</ele>
        <time>2022-11-02T14:35:18Z</time>
      </trkpt>
      <trkpt lat="48.72083" lon="2.48803">
        <ele>93.7</ele>
        <time>2022-11-02T14:35:22Z</time>
      </trkpt>
      <trkpt lat="48.72078" lon="2.48801">
        <ele>92.5</ele>
        <time>2022-11-02T14:35:27Z</time>
      </trkpt>
      <trkpt lat="48.72073" lon="2.488">
        <ele>92.1</ele>
        <time>2022-11-02T14:35:32Z</time>
      </trkpt>
      <trkpt lat="48.72068" lon="2.48798">
        <ele>90.1</ele>
        <time>2022-11-02T14:35:37Z</time>
      </trkpt>
      <trkpt lat="48.72063" lon="2.48795">
        <ele>88.5</ele>
        <time>2022-11-02T14:35:42Z</time>
      </trkpt>
      <trkpt lat="48.72059" lon="2.48791">
        <ele>88.2</ele>
        <time>2022-11-02T14:35:47Z</time>
      </trkpt>
      <trkpt lat="48.72054" lon="2.4879">
        <ele>89.5</ele>
        <time>2022-11-02T14:35:53Z</time>
      </trkpt>
      <trkpt lat="48.72049" lon="2.48793">
        <ele>89.8</ele>
        <time>2022-11-02T14:35:57Z</time>
      </trkpt>
      <trkpt lat="48.72045" lon="2.48797">
        <ele>90.3</ele>
        <time>2022-11-02T14:36:01Z</time>
      </trkpt>
      <trkpt lat="48.7204" lon="2.48801">
        <ele>92</ele>
        <time>2022-11-02T14:36:07Z</time>
      </trkpt>
      <trkpt lat="48.72036" lon="2.48803">
        <ele>92.3</ele>
        <time>2022-11-02T14:36:10Z</time>
      </trkpt>
      <trkpt lat="48.72031" lon="2.48805">
        <ele>91.8</ele>
        <time>2022-11-02T14:36:15Z</time>
      </trkpt>
      <trkpt lat="48.72026" lon="2.48806">
        <ele>91.4</ele>
        <time>2022-11-02T14:36:19Z</time>
      </trkpt>
      <trkpt lat="48.72021" lon="2.48808">
        <ele>91</ele>
        <time>2022-11-02T14:36:23Z</time>
      </trkpt>
      <trkpt lat="48.72016" lon="2.48808">
        <ele>90.9</ele>
        <time>2022-11-02T14:36:28Z</time>
      </trkpt>
      <trkpt lat="48.72011" lon="2.48806">
        <ele>90.1</ele>
        <time>2022-11-02T14:36:33Z</time>
      </trkpt>
      <trkpt lat="48.72006" lon="2.48807">
        <ele>89.4</ele>
        <time>2022-11-02T14:36:37Z</time>
      </trkpt>
      <trkpt lat="48.72002" lon="2.48803">
        <ele>88.9</ele>
        <time>2022-11-02T14:36:43Z</time>
      </trkpt>
      <trkpt lat="48.71998" lon="2.48798">
        <ele>89.1</ele>
        <time>2022-11-02T14:36:49Z</time>
      </trkpt>
      <trkpt lat="48.71995" lon="2.48793">
        <ele>90.3</ele>
        <time>2022-11-02T14:36:54Z</time>
      </trkpt>
      <trkpt lat="48.71991" lon="2.48788">
        <ele>90.2</ele>
        <time>2022-11-02T14:36:58Z</time>
      </trkpt>
      <trkpt lat="48.71988" lon="2.48782">
        <ele>90.2</ele>
        <time>2022-11-02T14:37:02Z</time>
      </trkpt>
      <trkpt lat="48.71984" lon="2.48778">
        <ele>88.4</ele>
        <time>2022-11-02T14:37:07Z</time>
      </trkpt>
      <trkpt lat="48.7198" lon="2.48774">
        <ele>86.2</ele>
        <time>2022-11-02T14:37:11Z</time>
      </trkpt>
      <trkpt lat="48.71975" lon="2.4877">
        <ele>85.9</ele>
        <time>2022-11-02T14:37:15Z</time>
      </trkpt>
      <trkpt lat="48.71971" lon="2.48765">
        <ele>86.5</ele>
        <time>2022-11-02T14:37:20Z</time>
      </trkpt>
      <trkpt lat="48.71968" lon="2.48759">
        <ele>85.4</ele>
        <time>2022-11-02T14:37:25Z</time>
      </trkpt>
      <trkpt lat="48.71965" lon="2.48754">
        <ele>85.6</ele>
        <time>2022-11-02T14:37:30Z</time>
      </trkpt>
      <trkpt lat="48.71961" lon="2.4875">
        <ele>84.7</ele>
        <time>2022-11-02T14:37:35Z</time>
      </trkpt>
      <trkpt lat="48.71956" lon="2.48747">
        <ele>82.6</ele>
        <time>2022-11-02T14:37:41Z</time>
      </trkpt>
      <trkpt lat="48.71951" lon="2.48746">
        <ele>81.2</ele>
        <time>2022-11-02T14:37:47Z</time>
      </trkpt>
      <trkpt lat="48.71947" lon="2.48749">
        <ele>81.5</ele>
        <time>2022-11-02T14:37:53Z</time>
      </trkpt>
      <trkpt lat="48.71942" lon="2.48753">
        <ele>80</ele>
        <time>2022-11-02T14:37:58Z</time>
      </trkpt>
      <trkpt lat="48.71938" lon="2.48754">
        <ele>78.5</ele>
        <time>2022-11-02T14:38:04Z</time>
      </trkpt>
      <trkpt lat="48.71933" lon="2.48755">
        <ele>77.6</ele>
        <time>2022-11-02T14:38:09Z</time>
      </trkpt>
      <trkpt lat="48.71928" lon="2.48757">
        <ele>77.9</ele>
        <time>2022-11-02T14:38:19Z</time>
      </trkpt>
      <trkpt lat="48.71923" lon="2.48759">
        <ele>77.6</ele>
        <time>2022-11-02T14:38:23Z</time>
      </trkpt>
      <trkpt lat="48.71917" lon="2.48761">
        <ele>76.4</ele>
        <time>2022-11-02T14:38:27Z</time>
      </trkpt>
      <trkpt lat="48.71911" lon="2.48762">
        <ele>75.2</ele>
        <time>2022-11-02T14:38:31Z</time>
      </trkpt>
      <trkpt lat="48.71906" lon="2.48761">
        <ele>75.1</ele>
        <time>2022-11-02T14:38:35Z</time>
      </trkpt>
      <trkpt lat="48.71903" lon="2.48755">
        <ele>74.4</ele>
        <time>2022-11-02T14:38:42Z</time>
      </trkpt>
      <trkpt lat="48.71901" lon="2.48748">
        <ele>74.7</ele>
        <time>2022-11-02T14:38:47Z</time>
      </trkpt>
      <trkpt lat="48.719" lon="2.48741">
        <ele>76.6</ele>
        <time>2022-11-02T14:38:56Z</time>
      </trkpt>
      <trkpt lat="48.71901" lon="2.48734">
        <ele>79</ele>
        <time>2022-11-02T14:39:02Z</time>
      </trkpt>
      <trkpt lat="48.71901" lon="2.48727">
        <ele>81.4</ele>
        <time>2022-11-02T14:39:06Z</time>
      </trkpt>
      <trkpt lat="48.71901" lon="2.48719">
        <ele>81.4</ele>
        <time>2022-11-02T14:39:14Z</time>
      </trkpt>
      <trkpt lat="48.71898" lon="2.48713">
        <ele>79.9</ele>
        <time>2022-11-02T14:39:20Z</time>
      </trkpt>
      <trkpt lat="48.71895" lon="2.48707">
        <ele>79.2</ele>
        <time>2022-11-02T14:39:25Z</time>
      </trkpt>
      <trkpt lat="48.71891" lon="2.48702">
        <ele>77.2</ele>
        <time>2022-11-02T14:39:30Z</time>
      </trkpt>
      <trkpt lat="48.71887" lon="2.48697">
        <ele>76.8</ele>
        <time>2022-11-02T14:39:39Z</time>
      </trkpt>
      <trkpt lat="48.71885" lon="2.4869">
        <ele>77</ele>
        <time>2022-11-02T14:39:45Z</time>
      </trkpt>
      <trkpt lat="48.71882" lon="2.48683">
        <ele>77.7</ele>
        <time>2022-11-02T14:39:50Z</time>
      </trkpt>
      <trkpt lat="48.71879" lon="2.48676">
        <ele>78.6</ele>
        <time>2022-11-02T14:39:54Z</time>
      </trkpt>
      <trkpt lat="48.71877" lon="2.4867">
        <ele>79.1</ele>
        <time>2022-11-02T14:39:57Z</time>
      </trkpt>
      <trkpt lat="48.71873" lon="2.48663">
        <ele>79.9</ele>
        <time>2022-11-02T14:40:02Z</time>
      </trkpt>
      <trkpt lat="48.71869" lon="2.48658">
        <ele>80.3</ele>
        <time>2022-11-02T14:40:05Z</time>
      </trkpt>
      <trkpt lat="48.71865" lon="2.48652">
        <ele>79.6</ele>
        <time>2022-11-02T14:40:09Z</time>
      </trkpt>
      <trkpt lat="48.71862" lon="2.48646">
        <ele>79.5</ele>
        <time>2022-11-02T14:40:13Z</time>
      </trkpt>
      <trkpt lat="48.71861" lon="2.48639">
        <ele>79.5</ele>
        <time>2022-11-02T14:40:17Z</time>
      </trkpt>
      <trkpt lat="48.71862" lon="2.48632">
        <ele>79.2</ele>
        <time>2022-11-02T14:40:21Z</time>
      </trkpt>
      <trkpt lat="48.71865" lon="2.48625">
        <ele>77.9</ele>
        <time>2022-11-02T14:40:25Z</time>
      </trkpt>
      <trkpt lat="48.71868" lon="2.4862">
        <ele>76.4</ele>
        <time>2022-11-02T14:40:29Z</time>
      </trkpt>
      <trkpt lat="48.71871" lon="2.48614">
        <ele>75.8</ele>
        <time>2022-11-02T14:40:33Z</time>
      </trkpt>
      <trkpt lat="48.71873" lon="2.48607">
        <ele>75.8</ele>
        <time>2022-11-02T14:40:37Z</time>
      </trkpt>
      <trkpt lat="48.71874" lon="2.48601">
        <ele>75.2</ele>
        <time>2022-11-02T14:40:42Z</time>
      </trkpt>
      <trkpt lat="48.71877" lon="2.48594">
        <ele>75.9</ele>
        <time>2022-11-02T14:40:46Z</time>
      </trkpt>
      <trkpt lat="48.7188" lon="2.48588">
        <ele>76.4</ele>
        <time>2022-11-02T14:40:50Z</time>
      </trkpt>
      <trkpt lat="48.71881" lon="2.48581">
        <ele>78.2</ele>
        <time>2022-11-02T14:40:58Z</time>
      </trkpt>
      <trkpt lat="48.71882" lon="2.48574">
        <ele>81.1</ele>
        <time>2022-11-02T14:41:07Z</time>
      </trkpt>
      <trkpt lat="48.71883" lon="2.48567">
        <ele>82.6</ele>
        <time>2022-11-02T14:41:11Z</time>
      </trkpt>
      <trkpt lat="48.71883" lon="2.48559">
        <ele>83.6</ele>
        <time>2022-11-02T14:41:15Z</time>
      </trkpt>
      <trkpt lat="48.71885" lon="2.48552">
        <ele>83.9</ele>
        <time>2022-11-02T14:41:18Z</time>
      </trkpt>
      <trkpt lat="48.71888" lon="2.48546">
        <ele>83.7</ele>
        <time>2022-11-02T14:41:21Z</time>
      </trkpt>
      <trkpt lat="48.71889" lon="2.48538">
        <ele>83.7</ele>
        <time>2022-11-02T14:41:25Z</time>
      </trkpt>
      <trkpt lat="48.71889" lon="2.48531">
        <ele>83.6</ele>
        <time>2022-11-02T14:41:29Z</time>
      </trkpt>
      <trkpt lat="48.71889" lon="2.48523">
        <ele>82.1</ele>
        <time>2022-11-02T14:41:33Z</time>
      </trkpt>
      <trkpt lat="48.71888" lon="2.48515">
        <ele>81.9</ele>
        <time>2022-11-02T14:41:37Z</time>
      </trkpt>
      <trkpt lat="48.71888" lon="2.48506">
        <ele>82</ele>
        <time>2022-11-02T14:41:41Z</time>
      </trkpt>
      <trkpt lat="48.7189" lon="2.48498">
        <ele>82.2</ele>
        <time>2022-11-02T14:41:45Z</time>
      </trkpt>
      <trkpt lat="48.71893" lon="2.48491">
        <ele>81.9</ele>
        <time>2022-11-02T14:41:50Z</time>
      </trkpt>
      <trkpt lat="48.71896" lon="2.48485">
        <ele>82.5</ele>
        <time>2022-11-02T14:41:55Z</time>
      </trkpt>
      <trkpt lat="48.71898" lon="2.48478">
        <ele>82.5</ele>
        <time>2022-11-02T14:41:59Z</time>
      </trkpt>
      <trkpt lat="48.71899" lon="2.48471">
        <ele>82.3</ele>
        <time>2022-11-02T14:42:03Z</time>
      </trkpt>
      <trkpt lat="48.71901" lon="2.48465">
        <ele>81.1</ele>
        <time>2022-11-02T14:42:08Z</time>
      </trkpt>
      <trkpt lat="48.71904" lon="2.48458">
        <ele>81.3</ele>
        <time>2022-11-02T14:42:13Z</time>
      </trkpt>
      <trkpt lat="48.71906" lon="2.4845">
        <ele>82.8</ele>
        <time>2022-11-02T14:42:19Z</time>
      </trkpt>
      <trkpt lat="48.71906" lon="2.48443">
        <ele>83.3</ele>
        <time>2022-11-02T14:42:24Z</time>
      </trkpt>
      <trkpt lat="48.71908" lon="2.48436">
        <ele>83</ele>
        <time>2022-11-02T14:42:29Z</time>
      </trkpt>
      <trkpt lat="48.71909" lon="2.48428">
        <ele>82.7</ele>
        <time>2022-11-02T14:42:35Z</time>
      </trkpt>
      <trkpt lat="48.7191" lon="2.4842">
        <ele>82.9</ele>
        <time>2022-11-02T14:42:40Z</time>
      </trkpt>
      <trkpt lat="48.7191" lon="2.48413">
        <ele>83.1</ele>
        <time>2022-11-02T14:42:44Z</time>
      </trkpt>
      <trkpt lat="48.71909" lon="2.48405">
        <ele>82.5</ele>
        <time>2022-11-02T14:42:48Z</time>
      </trkpt>
      <trkpt lat="48.7191" lon="2.48397">
        <ele>80.8</ele>
        <time>2022-11-02T14:42:53Z</time>
      </trkpt>
      <trkpt lat="48.71912" lon="2.48391">
        <ele>80.1</ele>
        <time>2022-11-02T14:42:58Z</time>
      </trkpt>
      <trkpt lat="48.71913" lon="2.48384">
        <ele>80</ele>
        <time>2022-11-02T14:43:03Z</time>
      </trkpt>
      <trkpt lat="48.71915" lon="2.48378">
        <ele>79.2</ele>
        <time>2022-11-02T14:43:07Z</time>
      </trkpt>
      <trkpt lat="48.71916" lon="2.4837">
        <ele>79.4</ele>
        <time>2022-11-02T14:43:12Z</time>
      </trkpt>
      <trkpt lat="48.71916" lon="2.48362">
        <ele>80</ele>
        <time>2022-11-02T14:43:18Z</time>
      </trkpt>
      <trkpt lat="48.71913" lon="2.48356">
        <ele>80.8</ele>
        <time>2022-11-02T14:43:24Z</time>
      </trkpt>
      <trkpt lat="48.71911" lon="2.48348">
        <ele>81.3</ele>
        <time>2022-11-02T14:43:29Z</time>
      </trkpt>
      <trkpt lat="48.7191" lon="2.48341">
        <ele>81.2</ele>
        <time>2022-11-02T14:43:34Z</time>
      </trkpt>
      <trkpt lat="48.71908" lon="2.48333">
        <ele>81.4</ele>
        <time>2022-11-02T14:43:40Z</time>
      </trkpt>
      <trkpt lat="48.71906" lon="2.48327">
        <ele>81.2</ele>
        <time>2022-11-02T14:43:49Z</time>
      </trkpt>
      <trkpt lat="48.71903" lon="2.48321">
        <ele>81.2</ele>
        <time>2022-11-02T14:43:53Z</time>
      </trkpt>
      <trkpt lat="48.71901" lon="2.48314">
        <ele>81</ele>
        <time>2022-11-02T14:43:58Z</time>
      </trkpt>
      <trkpt lat="48.719" lon="2.48306">
        <ele>81.3</ele>
        <time>2022-11-02T14:44:02Z</time>
      </trkpt>
      <trkpt lat="48.71899" lon="2.48299">
        <ele>81.2</ele>
        <time>2022-11-02T14:44:05Z</time>
      </trkpt>
      <trkpt lat="48.71897" lon="2.48292">
        <ele>81.5</ele>
        <time>2022-11-02T14:44:08Z</time>
      </trkpt>
      <trkpt lat="48.71896" lon="2.48284">
        <ele>82.7</ele>
        <time>2022-11-02T14:44:12Z</time>
      </trkpt>
      <trkpt lat="48.71896" lon="2.48277">
        <ele>82.7</ele>
        <time>2022-11-02T14:44:16Z</time>
      </trkpt>
      <trkpt lat="48.71898" lon="2.48269">
        <ele>81.8</ele>
        <time>2022-11-02T14:44:21Z</time>
      </trkpt>
      <trkpt lat="48.71898" lon="2.4826">
        <ele>82.4</ele>
        <time>2022-11-02T14:44:25Z</time>
      </trkpt>
      <trkpt lat="48.71898" lon="2.48253">
        <ele>83</ele>
        <time>2022-11-02T14:44:28Z</time>
      </trkpt>
      <trkpt lat="48.71896" lon="2.48246">
        <ele>84.1</ele>
        <time>2022-11-02T14:44:32Z</time>
      </trkpt>
      <trkpt lat="48.71894" lon="2.48239">
        <ele>83</ele>
        <time>2022-11-02T14:44:37Z</time>
      </trkpt>
      <trkpt lat="48.71893" lon="2.48232">
        <ele>82.7</ele>
        <time>2022-11-02T14:44:42Z</time>
      </trkpt>
      <trkpt lat="48.71891" lon="2.48226">
        <ele>82.4</ele>
        <time>2022-11-02T14:44:47Z</time>
      </trkpt>
      <trkpt lat="48.71888" lon="2.48219">
        <ele>81.2</ele>
        <time>2022-11-02T14:44:53Z</time>
      </trkpt>
      <trkpt lat="48.71886" lon="2.48212">
        <ele>80.7</ele>
        <time>2022-11-02T14:44:57Z</time>
      </trkpt>
      <trkpt lat="48.71884" lon="2.48205">
        <ele>81.3</ele>
        <time>2022-11-02T14:45:01Z</time>
      </trkpt>
      <trkpt lat="48.71882" lon="2.482">
        <ele>81.8</ele>
        <time>2022-11-02T14:45:05Z</time>
      </trkpt>
      <trkpt lat="48.71877" lon="2.482">
        <ele>81.6</ele>
        <time>2022-11-02T14:45:15Z</time>
      </trkpt>
      <trkpt lat="48.71875" lon="2.48207">
        <ele>81</ele>
        <time>2022-11-02T14:45:28Z</time>
      </trkpt>
      <trkpt lat="48.71872" lon="2.48213">
        <ele>80.8</ele>
        <time>2022-11-02T14:45:35Z</time>
      </trkpt>
      <trkpt lat="48.71867" lon="2.48217">
        <ele>80.2</ele>
        <time>2022-11-02T14:45:40Z</time>
      </trkpt>
      <trkpt lat="48.71865" lon="2.48223">
        <ele>79.6</ele>
        <time>2022-11-02T14:45:45Z</time>
      </trkpt>
      <trkpt lat="48.7186" lon="2.48224">
        <ele>76.1</ele>
        <time>2022-11-02T14:46:00Z</time>
      </trkpt>
      <trkpt lat="48.71858" lon="2.48217">
        <ele>75.8</ele>
        <time>2022-11-02T14:46:07Z</time>
      </trkpt>
      <trkpt lat="48.71858" lon="2.4821">
        <ele>76.2</ele>
        <time>2022-11-02T14:46:11Z</time>
      </trkpt>
      <trkpt lat="48.71859" lon="2.48203">
        <ele>76.7</ele>
        <time>2022-11-02T14:46:15Z</time>
      </trkpt>
      <trkpt lat="48.71862" lon="2.48196">
        <ele>77.6</ele>
        <time>2022-11-02T14:46:20Z</time>
      </trkpt>
      <trkpt lat="48.71864" lon="2.48189">
        <ele>78.1</ele>
        <time>2022-11-02T14:46:24Z</time>
      </trkpt>
      <trkpt lat="48.71863" lon="2.48182">
        <ele>79.1</ele>
        <time>2022-11-02T14:46:31Z</time>
      </trkpt>
      <trkpt lat="48.71859" lon="2.48183">
        <ele>77.6</ele>
        <time>2022-11-02T14:47:08Z</time>
      </trkpt>
      <trkpt lat="48.71857" lon="2.48177">
        <ele>77.3</ele>
        <time>2022-11-02T14:48:01Z</time>
      </trkpt>
      <trkpt lat="48.71854" lon="2.48183">
        <ele>77.7</ele>
        <time>2022-11-02T14:48:08Z</time>
      </trkpt>
      <trkpt lat="48.71853" lon="2.48191">
        <ele>78.4</ele>
        <time>2022-11-02T14:48:12Z</time>
      </trkpt>
      <trkpt lat="48.71852" lon="2.48199">
        <ele>77.8</ele>
        <time>2022-11-02T14:48:16Z</time>
      </trkpt>
      <trkpt lat="48.71851" lon="2.48206">
        <ele>77.7</ele>
        <time>2022-11-02T14:48:21Z</time>
      </trkpt>
      <trkpt lat="48.71849" lon="2.48214">
        <ele>77.6</ele>
        <time>2022-11-02T14:48:25Z</time>
      </trkpt>
      <trkpt lat="48.71847" lon="2.4822">
        <ele>77.4</ele>
        <time>2022-11-02T14:48:30Z</time>
      </trkpt>
      <trkpt lat="48.71842" lon="2.48218">
        <ele>75.8</ele>
        <time>2022-11-02T14:48:35Z</time>
      </trkpt>
      <trkpt lat="48.71844" lon="2.48211">
        <ele>74.7</ele>
        <time>2022-11-02T14:48:38Z</time>
      </trkpt>
      <trkpt lat="48.71843" lon="2.48203">
        <ele>72.7</ele>
        <time>2022-11-02T14:48:43Z</time>
      </trkpt>
      <trkpt lat="48.71839" lon="2.48197">
        <ele>71.9</ele>
        <time>2022-11-02T14:48:47Z</time>
      </trkpt>
      <trkpt lat="48.71834" lon="2.48192">
        <ele>71.3</ele>
        <time>2022-11-02T14:48:51Z</time>
      </trkpt>
      <trkpt lat="48.7183" lon="2.48188">
        <ele>71.7</ele>
        <time>2022-11-02T14:48:56Z</time>
      </trkpt>
      <trkpt lat="48.71826" lon="2.48184">
        <ele>72.9</ele>
        <time>2022-11-02T14:49:04Z</time>
      </trkpt>
      <trkpt lat="48.71823" lon="2.48177">
        <ele>72.8</ele>
        <time>2022-11-02T14:49:09Z</time>
      </trkpt>
      <trkpt lat="48.71821" lon="2.4817">
        <ele>72.8</ele>
        <time>2022-11-02T14:49:14Z</time>
      </trkpt>
      <trkpt lat="48.71819" lon="2.48164">
        <ele>72.2</ele>
        <time>2022-11-02T14:49:18Z</time>
      </trkpt>
      <trkpt lat="48.71817" lon="2.48157">
        <ele>71.5</ele>
        <time>2022-11-02T14:49:22Z</time>
      </trkpt>
      <trkpt lat="48.71815" lon="2.4815">
        <ele>71.4</ele>
        <time>2022-11-02T14:49:27Z</time>
      </trkpt>
      <trkpt lat="48.71814" lon="2.48143">
        <ele>71.3</ele>
        <time>2022-11-02T14:49:31Z</time>
      </trkpt>
      <trkpt lat="48.71813" lon="2.48135">
        <ele>71.4</ele>
        <time>2022-11-02T14:49:36Z</time>
      </trkpt>
      <trkpt lat="48.71813" lon="2.48128">
        <ele>72</ele>
        <time>2022-11-02T14:49:40Z</time>
      </trkpt>
      <trkpt lat="48.71812" lon="2.4812">
        <ele>72.6</ele>
        <time>2022-11-02T14:49:44Z</time>
      </trkpt>
      <trkpt lat="48.71811" lon="2.48113">
        <ele>73.5</ele>
        <time>2022-11-02T14:49:48Z</time>
      </trkpt>
      <trkpt lat="48.71811" lon="2.48106">
        <ele>74.4</ele>
        <time>2022-11-02T14:49:51Z</time>
      </trkpt>
      <trkpt lat="48.71811" lon="2.48098">
        <ele>74.9</ele>
        <time>2022-11-02T14:49:55Z</time>
      </trkpt>
      <trkpt lat="48.71811" lon="2.4809">
        <ele>75.1</ele>
        <time>2022-11-02T14:50:00Z</time>
      </trkpt>
      <trkpt lat="48.71812" lon="2.48083">
        <ele>74.9</ele>
        <time>2022-11-02T14:50:06Z</time>
      </trkpt>
      <trkpt lat="48.71812" lon="2.48075">
        <ele>74.3</ele>
        <time>2022-11-02T14:50:12Z</time>
      </trkpt>
      <trkpt lat="48.7181" lon="2.48068">
        <ele>73.9</ele>
        <time>2022-11-02T14:50:16Z</time>
      </trkpt>
      <trkpt lat="48.71808" lon="2.4806">
        <ele>74.1</ele>
        <time>2022-11-02T14:50:20Z</time>
      </trkpt>
      <trkpt lat="48.71807" lon="2.48054">
        <ele>73.3</ele>
        <time>2022-11-02T14:50:24Z</time>
      </trkpt>
      <trkpt lat="48.71805" lon="2.48047">
        <ele>72.7</ele>
        <time>2022-11-02T14:50:28Z</time>
      </trkpt>
      <trkpt lat="48.71803" lon="2.4804">
        <ele>72.9</ele>
        <time>2022-11-02T14:50:31Z</time>
      </trkpt>
      <trkpt lat="48.71802" lon="2.48032">
        <ele>73.7</ele>
        <time>2022-11-02T14:50:35Z</time>
      </trkpt>
      <trkpt lat="48.71799" lon="2.48026">
        <ele>74</ele>
        <time>2022-11-02T14:50:39Z</time>
      </trkpt>
      <trkpt lat="48.71798" lon="2.48019">
        <ele>73.9</ele>
        <time>2022-11-02T14:50:43Z</time>
      </trkpt>
      <trkpt lat="48.71797" lon="2.48012">
        <ele>74.2</ele>
        <time>2022-11-02T14:50:47Z</time>
      </trkpt>
      <trkpt lat="48.71797" lon="2.48005">
        <ele>73.6</ele>
        <time>2022-11-02T14:50:51Z</time>
      </trkpt>
      <trkpt lat="48.71797" lon="2.47996">
        <ele>73.3</ele>
        <time>2022-11-02T14:50:56Z</time>
      </trkpt>
      <trkpt lat="48.71796" lon="2.47988">
        <ele>73.1</ele>
        <time>2022-11-02T14:51:00Z</time>
      </trkpt>
      <trkpt lat="48.71795" lon="2.47981">
        <ele>72.5</ele>
        <time>2022-11-02T14:51:04Z</time>
      </trkpt>
      <trkpt lat="48.71794" lon="2.47974">
        <ele>71.8</ele>
        <time>2022-11-02T14:51:08Z</time>
      </trkpt>
      <trkpt lat="48.71793" lon="2.47967">
        <ele>70.9</ele>
        <time>2022-11-02T14:51:12Z</time>
      </trkpt>
      <trkpt lat="48.71791" lon="2.47961">
        <ele>70.4</ele>
        <time>2022-11-02T14:51:16Z</time>
      </trkpt>
      <trkpt lat="48.7179" lon="2.47953">
        <ele>70.7</ele>
        <time>2022-11-02T14:51:21Z</time>
      </trkpt>
      <trkpt lat="48.71788" lon="2.47944">
        <ele>70.5</ele>
        <time>2022-11-02T14:51:26Z</time>
      </trkpt>
      <trkpt lat="48.71787" lon="2.47937">
        <ele>70.2</ele>
        <time>2022-11-02T14:51:30Z</time>
      </trkpt>
      <trkpt lat="48.71786" lon="2.47928">
        <ele>70.2</ele>
        <time>2022-11-02T14:51:34Z</time>
      </trkpt>
      <trkpt lat="48.71786" lon="2.47921">
        <ele>69.3</ele>
        <time>2022-11-02T14:51:38Z</time>
      </trkpt>
      <trkpt lat="48.71786" lon="2.47913">
        <ele>68.5</ele>
        <time>2022-11-02T14:51:42Z</time>
      </trkpt>
      <trkpt lat="48.71786" lon="2.47906">
        <ele>67.6</ele>
        <time>2022-11-02T14:51:46Z</time>
      </trkpt>
      <trkpt lat="48.71787" lon="2.47897">
        <ele>67.2</ele>
        <time>2022-11-02T14:51:51Z</time>
      </trkpt>
      <trkpt lat="48.71787" lon="2.4789">
        <ele>67.1</ele>
        <time>2022-11-02T14:51:55Z</time>
      </trkpt>
      <trkpt lat="48.71788" lon="2.47883">
        <ele>67.4</ele>
        <time>2022-11-02T14:51:58Z</time>
      </trkpt>
      <trkpt lat="48.71786" lon="2.47875">
        <ele>68.5</ele>
        <time>2022-11-02T14:52:02Z</time>
      </trkpt>
      <trkpt lat="48.71783" lon="2.47869">
        <ele>69.5</ele>
        <time>2022-11-02T14:52:08Z</time>
      </trkpt>
      <trkpt lat="48.7178" lon="2.47862">
        <ele>67.6</ele>
        <time>2022-11-02T14:52:14Z</time>
      </trkpt>
      <trkpt lat="48.71778" lon="2.47855">
        <ele>67.2</ele>
        <time>2022-11-02T14:52:18Z</time>
      </trkpt>
      <trkpt lat="48.71776" lon="2.47847">
        <ele>66.9</ele>
        <time>2022-11-02T14:52:22Z</time>
      </trkpt>
      <trkpt lat="48.71774" lon="2.4784">
        <ele>66</ele>
        <time>2022-11-02T14:52:26Z</time>
      </trkpt>
      <trkpt lat="48.71773" lon="2.47833">
        <ele>65.2</ele>
        <time>2022-11-02T14:52:30Z</time>
      </trkpt>
      <trkpt lat="48.71771" lon="2.47826">
        <ele>64.2</ele>
        <time>2022-11-02T14:52:34Z</time>
      </trkpt>
      <trkpt lat="48.71769" lon="2.47819">
        <ele>64</ele>
        <time>2022-11-02T14:52:38Z</time>
      </trkpt>
      <trkpt lat="48.71767" lon="2.47812">
        <ele>63.3</ele>
        <time>2022-11-02T14:52:42Z</time>
      </trkpt>
      <trkpt lat="48.71765" lon="2.47805">
        <ele>62.6</ele>
        <time>2022-11-02T14:52:46Z</time>
      </trkpt>
      <trkpt lat="48.71764" lon="2.47797">
        <ele>61.2</ele>
        <time>2022-11-02T14:52:51Z</time>
      </trkpt>
      <trkpt lat="48.71762" lon="2.4779">
        <ele>60.5</ele>
        <time>2022-11-02T14:52:55Z</time>
      </trkpt>
      <trkpt lat="48.71761" lon="2.47783">
        <ele>61</ele>
        <time>2022-11-02T14:52:59Z</time>
      </trkpt>
      <trkpt lat="48.7176" lon="2.47775">
        <ele>63</ele>
        <time>2022-11-02T14:53:03Z</time>
      </trkpt>
      <trkpt lat="48.71759" lon="2.47767">
        <ele>65.4</ele>
        <time>2022-11-02T14:53:07Z</time>
      </trkpt>
      <trkpt lat="48.71758" lon="2.4776">
        <ele>67.8</ele>
        <time>2022-11-02T14:53:11Z</time>
      </trkpt>
      <trkpt lat="48.71757" lon="2.47752">
        <ele>69</ele>
        <time>2022-11-02T14:53:17Z</time>
      </trkpt>
      <trkpt lat="48.71756" lon="2.47745">
        <ele>69.1</ele>
        <time>2022-11-02T14:53:22Z</time>
      </trkpt>
      <trkpt lat="48.71755" lon="2.47737">
        <ele>69.7</ele>
        <time>2022-11-02T14:53:27Z</time>
      </trkpt>
      <trkpt lat="48.71754" lon="2.47729">
        <ele>70.2</ele>
        <time>2022-11-02T14:53:31Z</time>
      </trkpt>
      <trkpt lat="48.71752" lon="2.47722">
        <ele>71.3</ele>
        <time>2022-11-02T14:53:35Z</time>
      </trkpt>
      <trkpt lat="48.7175" lon="2.47714">
        <ele>71</ele>
        <time>2022-11-02T14:53:40Z</time>
      </trkpt>
      <trkpt lat="48.71748" lon="2.47707">
        <ele>71.2</ele>
        <time>2022-11-02T14:53:44Z</time>
      </trkpt>
      <trkpt lat="48.71746" lon="2.477">
        <ele>71.5</ele>
        <time>2022-11-02T14:53:48Z</time>
      </trkpt>
      <trkpt lat="48.71744" lon="2.47694">
        <ele>72.1</ele>
        <time>2022-11-02T14:53:52Z</time>
      </trkpt>
      <trkpt lat="48.71742" lon="2.47687">
        <ele>71.8</ele>
        <time>2022-11-02T14:53:57Z</time>
      </trkpt>
      <trkpt lat="48.7174" lon="2.4768">
        <ele>70.5</ele>
        <time>2022-11-02T14:54:02Z</time>
      </trkpt>
      <trkpt lat="48.71737" lon="2.47674">
        <ele>69.4</ele>
        <time>2022-11-02T14:54:06Z</time>
      </trkpt>
      <trkpt lat="48.71734" lon="2.47667">
        <ele>68.2</ele>
        <time>2022-11-02T14:54:10Z</time>
      </trkpt>
      <trkpt lat="48.71732" lon="2.47659">
        <ele>68.9</ele>
        <time>2022-11-02T14:54:14Z</time>
      </trkpt>
      <trkpt lat="48.7173" lon="2.47651">
        <ele>69.7</ele>
        <time>2022-11-02T14:54:18Z</time>
      </trkpt>
      <trkpt lat="48.71727" lon="2.47645">
        <ele>69</ele>
        <time>2022-11-02T14:54:22Z</time>
      </trkpt>
      <trkpt lat="48.71724" lon="2.47639">
        <ele>69.3</ele>
        <time>2022-11-02T14:54:26Z</time>
      </trkpt>
      <trkpt lat="48.71721" lon="2.47632">
        <ele>69.8</ele>
        <time>2022-11-02T14:54:30Z</time>
      </trkpt>
      <trkpt lat="48.71719" lon="2.47625">
        <ele>69.4</ele>
        <time>2022-11-02T14:54:35Z</time>
      </trkpt>
      <trkpt lat="48.71716" lon="2.47619">
        <ele>68.9</ele>
        <time>2022-11-02T14:54:40Z</time>
      </trkpt>
      <trkpt lat="48.71714" lon="2.47613">
        <ele>69.2</ele>
        <time>2022-11-02T14:54:44Z</time>
      </trkpt>
      <trkpt lat="48.71711" lon="2.47606">
        <ele>68.9</ele>
        <time>2022-11-02T14:54:49Z</time>
      </trkpt>
      <trkpt lat="48.71708" lon="2.47601">
        <ele>68.3</ele>
        <time>2022-11-02T14:54:54Z</time>
      </trkpt>
      <trkpt lat="48.71705" lon="2.47594">
        <ele>67.9</ele>
        <time>2022-11-02T14:54:58Z</time>
      </trkpt>
      <trkpt lat="48.71703" lon="2.47587">
        <ele>67.7</ele>
        <time>2022-11-02T14:55:02Z</time>
      </trkpt>
      <trkpt lat="48.71701" lon="2.4758">
        <ele>67.6</ele>
        <time>2022-11-02T14:55:06Z</time>
      </trkpt>
      <trkpt lat="48.71699" lon="2.47573">
        <ele>66.7</ele>
        <time>2022-11-02T14:55:11Z</time>
      </trkpt>
      <trkpt lat="48.71698" lon="2.47566">
        <ele>65.7</ele>
        <time>2022-11-02T14:55:18Z</time>
      </trkpt>
      <trkpt lat="48.71693" lon="2.47566">
        <ele>64.2</ele>
        <time>2022-11-02T14:55:28Z</time>
      </trkpt>
      <trkpt lat="48.71688" lon="2.4757">
        <ele>63.2</ele>
        <time>2022-11-02T14:55:34Z</time>
      </trkpt>
      <trkpt lat="48.71684" lon="2.47574">
        <ele>62.1</ele>
        <time>2022-11-02T14:55:40Z</time>
      </trkpt>
      <trkpt lat="48.71681" lon="2.47578">
        <ele>61.4</ele>
        <time>2022-11-02T14:55:45Z</time>
      </trkpt>
      <trkpt lat="48.71676" lon="2.4758">
        <ele>60.6</ele>
        <time>2022-11-02T14:55:50Z</time>
      </trkpt>
      <trkpt lat="48.71671" lon="2.4758">
        <ele>60</ele>
        <time>2022-11-02T14:55:55Z</time>
      </trkpt>
      <trkpt lat="48.71667" lon="2.47577">
        <ele>60.6</ele>
        <time>2022-11-02T14:55:59Z</time>
      </trkpt>
      <trkpt lat="48.71663" lon="2.47571">
        <ele>60.9</ele>
        <time>2022-11-02T14:56:04Z</time>
      </trkpt>
      <trkpt lat="48.71661" lon="2.47564">
        <ele>60.2</ele>
        <time>2022-11-02T14:56:09Z</time>
      </trkpt>
      <trkpt lat="48.71659" lon="2.47557">
        <ele>59.7</ele>
        <time>2022-11-02T14:56:14Z</time>
      </trkpt>
      <trkpt lat="48.71656" lon="2.47551">
        <ele>58.4</ele>
        <time>2022-11-02T14:56:19Z</time>
      </trkpt>
      <trkpt lat="48.71653" lon="2.47545">
        <ele>58.9</ele>
        <time>2022-11-02T14:56:23Z</time>
      </trkpt>
      <trkpt lat="48.71651" lon="2.47539">
        <ele>58.8</ele>
        <time>2022-11-02T14:56:27Z</time>
      </trkpt>
      <trkpt lat="48.71649" lon="2.47532">
        <ele>58.6</ele>
        <time>2022-11-02T14:56:31Z</time>
      </trkpt>
      <trkpt lat="48.7165" lon="2.47524">
        <ele>59.1</ele>
        <time>2022-11-02T14:56:35Z</time>
      </trkpt>
      <trkpt lat="48.71649" lon="2.47516">
        <ele>59.7</ele>
        <time>2022-11-02T14:56:39Z</time>
      </trkpt>
      <trkpt lat="48.7165" lon="2.47509">
        <ele>60.5</ele>
        <time>2022-11-02T14:56:44Z</time>
      </trkpt>
      <trkpt lat="48.7165" lon="2.47501">
        <ele>61.3</ele>
        <time>2022-11-02T14:56:49Z</time>
      </trkpt>
      <trkpt lat="48.7165" lon="2.47494">
        <ele>61</ele>
        <time>2022-11-02T14:56:53Z</time>
      </trkpt>
      <trkpt lat="48.71651" lon="2.47486">
        <ele>61.4</ele>
        <time>2022-11-02T14:56:58Z</time>
      </trkpt>
      <trkpt lat="48.71648" lon="2.47481">
        <ele>63.1</ele>
        <time>2022-11-02T14:57:48Z</time>
      </trkpt>
      <trkpt lat="48.71644" lon="2.47478">
        <ele>59.8</ele>
        <time>2022-11-02T14:57:56Z</time>
      </trkpt>
      <trkpt lat="48.71639" lon="2.47479">
        <ele>56.5</ele>
        <time>2022-11-02T14:58:05Z</time>
      </trkpt>
      <trkpt lat="48.71635" lon="2.47482">
        <ele>55.6</ele>
        <time>2022-11-02T14:58:15Z</time>
      </trkpt>
      <trkpt lat="48.71631" lon="2.47486">
        <ele>55.7</ele>
        <time>2022-11-02T14:58:21Z</time>
      </trkpt>
      <trkpt lat="48.71627" lon="2.47489">
        <ele>56.1</ele>
        <time>2022-11-02T14:58:26Z</time>
      </trkpt>
      <trkpt lat="48.71622" lon="2.47492">
        <ele>56.9</ele>
        <time>2022-11-02T14:58:31Z</time>
      </trkpt>
      <trkpt lat="48.71617" lon="2.47496">
        <ele>55.9</ele>
        <time>2022-11-02T14:58:38Z</time>
      </trkpt>
      <trkpt lat="48.71613" lon="2.47497">
        <ele>55.5</ele>
        <time>2022-11-02T14:58:45Z</time>
      </trkpt>
      <trkpt lat="48.71608" lon="2.475">
        <ele>56.1</ele>
        <time>2022-11-02T14:58:52Z</time>
      </trkpt>
      <trkpt lat="48.71604" lon="2.47503">
        <ele>55.1</ele>
        <time>2022-11-02T14:58:57Z</time>
      </trkpt>
      <trkpt lat="48.71599" lon="2.47505">
        <ele>52.7</ele>
        <time>2022-11-02T14:59:06Z</time>
      </trkpt>
      <trkpt lat="48.71595" lon="2.47507">
        <ele>51.1</ele>
        <time>2022-11-02T14:59:14Z</time>
      </trkpt>
      <trkpt lat="48.7159" lon="2.47508">
        <ele>49.9</ele>
        <time>2022-11-02T14:59:22Z</time>
      </trkpt>
      <trkpt lat="48.71586" lon="2.47511">
        <ele>49</ele>
        <time>2022-11-02T14:59:28Z</time>
      </trkpt>
      <trkpt lat="48.71581" lon="2.47514">
        <ele>48</ele>
        <time>2022-11-02T14:59:36Z</time>
      </trkpt>
      <trkpt lat="48.71577" lon="2.47517">
        <ele>47</ele>
        <time>2022-11-02T14:59:41Z</time>
      </trkpt>
      <trkpt lat="48.71573" lon="2.47521">
        <ele>45.4</ele>
        <time>2022-11-02T14:59:47Z</time>
      </trkpt>
      <trkpt lat="48.71574" lon="2.47528">
        <ele>42</ele>
        <time>2022-11-02T14:59:53Z</time>
      </trkpt>
      <trkpt lat="48.71577" lon="2.47534">
        <ele>39.5</ele>
        <time>2022-11-02T14:59:57Z</time>
      </trkpt>
      <trkpt lat="48.7158" lon="2.47541">
        <ele>38</ele>
        <time>2022-11-02T15:00:02Z</time>
      </trkpt>
      <trkpt lat="48.71583" lon="2.47548">
        <ele>38</ele>
        <time>2022-11-02T15:00:06Z</time>
      </trkpt>
      <trkpt lat="48.71583" lon="2.47555">
        <ele>38</ele>
        <time>2022-11-02T15:00:09Z</time>
      </trkpt>
      <trkpt lat="48.71584" lon="2.47563">
        <ele>37.5</ele>
        <time>2022-11-02T15:00:12Z</time>
      </trkpt>
      <trkpt lat="48.71584" lon="2.47571">
        <ele>37.4</ele>
        <time>2022-11-02T15:00:15Z</time>
      </trkpt>
      <trkpt lat="48.71586" lon="2.47577">
        <ele>37.6</ele>
        <time>2022-11-02T15:00:19Z</time>
      </trkpt>
      <trkpt lat="48.71588" lon="2.47585">
        <ele>37.4</ele>
        <time>2022-11-02T15:00:25Z</time>
      </trkpt>
      <trkpt lat="48.71588" lon="2.47592">
        <ele>37</ele>
        <time>2022-11-02T15:00:29Z</time>
      </trkpt>
      <trkpt lat="48.71588" lon="2.47599">
        <ele>37.3</ele>
        <time>2022-11-02T15:00:33Z</time>
      </trkpt>
      <trkpt lat="48.71588" lon="2.47606">
        <ele>36.9</ele>
        <time>2022-11-02T15:00:37Z</time>
      </trkpt>
      <trkpt lat="48.71589" lon="2.47614">
        <ele>37.8</ele>
        <time>2022-11-02T15:00:41Z</time>
      </trkpt>
      <trkpt lat="48.71591" lon="2.47621">
        <ele>37.4</ele>
        <time>2022-11-02T15:00:45Z</time>
      </trkpt>
      <trkpt lat="48.71593" lon="2.47627">
        <ele>36.1</ele>
        <time>2022-11-02T15:00:49Z</time>
      </trkpt>
      <trkpt lat="48.71596" lon="2.47634">
        <ele>36.1</ele>
        <time>2022-11-02T15:00:53Z</time>
      </trkpt>
      <trkpt lat="48.71599" lon="2.47641">
        <ele>37.2</ele>
        <time>2022-11-02T15:00:57Z</time>
      </trkpt>
      <trkpt lat="48.71601" lon="2.47647">
        <ele>38.3</ele>
        <time>2022-11-02T15:01:00Z</time>
      </trkpt>
      <trkpt lat="48.71604" lon="2.47655">
        <ele>40</ele>
        <time>2022-11-02T15:01:04Z</time>
      </trkpt>
      <trkpt lat="48.71607" lon="2.47661">
        <ele>40.5</ele>
        <time>2022-11-02T15:01:08Z</time>
      </trkpt>
      <trkpt lat="48.7161" lon="2.47667">
        <ele>40.2</ele>
        <time>2022-11-02T15:01:13Z</time>
      </trkpt>
      <trkpt lat="48.71613" lon="2.47674">
        <ele>39.3</ele>
        <time>2022-11-02T15:01:18Z</time>
      </trkpt>
      <trkpt lat="48.71616" lon="2.47681">
        <ele>39.6</ele>
        <time>2022-11-02T15:01:22Z</time>
      </trkpt>
      <trkpt lat="48.71618" lon="2.47688">
        <ele>40.1</ele>
        <time>2022-11-02T15:01:26Z</time>
      </trkpt>
      <trkpt lat="48.71621" lon="2.47696">
        <ele>40</ele>
        <time>2022-11-02T15:01:30Z</time>
      </trkpt>
      <trkpt lat="48.71623" lon="2.47703">
        <ele>39</ele>
        <time>2022-11-02T15:01:34Z</time>
      </trkpt>
      <trkpt lat="48.71626" lon="2.47709">
        <ele>38.3</ele>
        <time>2022-11-02T15:01:38Z</time>
      </trkpt>
      <trkpt lat="48.71628" lon="2.47715">
        <ele>37.7</ele>
        <time>2022-11-02T15:01:42Z</time>
      </trkpt>
      <trkpt lat="48.7163" lon="2.47722">
        <ele>36.6</ele>
        <time>2022-11-02T15:01:46Z</time>
      </trkpt>
      <trkpt lat="48.71633" lon="2.47729">
        <ele>35.5</ele>
        <time>2022-11-02T15:01:51Z</time>
      </trkpt>
      <trkpt lat="48.71636" lon="2.47735">
        <ele>33.7</ele>
        <time>2022-11-02T15:01:56Z</time>
      </trkpt>
      <trkpt lat="48.71639" lon="2.4774">
        <ele>31.3</ele>
        <time>2022-11-02T15:02:02Z</time>
      </trkpt>
      <trkpt lat="48.71641" lon="2.47748">
        <ele>31.9</ele>
        <time>2022-11-02T15:02:06Z</time>
      </trkpt>
      <trkpt lat="48.71643" lon="2.47754">
        <ele>33.4</ele>
        <time>2022-11-02T15:02:09Z</time>
      </trkpt>
      <trkpt lat="48.71645" lon="2.47762">
        <ele>35.3</ele>
        <time>2022-11-02T15:02:13Z</time>
      </trkpt>
      <trkpt lat="48.71647" lon="2.47769">
        <ele>36.6</ele>
        <time>2022-11-02T15:02:17Z</time>
      </trkpt>
      <trkpt lat="48.71649" lon="2.47775">
        <ele>37</ele>
        <time>2022-11-02T15:02:21Z</time>
      </trkpt>
      <trkpt lat="48.71651" lon="2.47781">
        <ele>36.8</ele>
        <time>2022-11-02T15:02:25Z</time>
      </trkpt>
      <trkpt lat="48.71652" lon="2.47788">
        <ele>36.9</ele>
        <time>2022-11-02T15:02:29Z</time>
      </trkpt>
      <trkpt lat="48.71654" lon="2.47795">
        <ele>37.7</ele>
        <time>2022-11-02T15:02:33Z</time>
      </trkpt>
      <trkpt lat="48.71654" lon="2.47802">
        <ele>38.2</ele>
        <time>2022-11-02T15:02:37Z</time>
      </trkpt>
      <trkpt lat="48.71655" lon="2.4781">
        <ele>39.1</ele>
        <time>2022-11-02T15:02:41Z</time>
      </trkpt>
      <trkpt lat="48.71655" lon="2.47817">
        <ele>40.3</ele>
        <time>2022-11-02T15:02:46Z</time>
      </trkpt>
      <trkpt lat="48.71656" lon="2.47825">
        <ele>41.5</ele>
        <time>2022-11-02T15:02:53Z</time>
      </trkpt>
      <trkpt lat="48.71655" lon="2.47832">
        <ele>42.4</ele>
        <time>2022-11-02T15:02:58Z</time>
      </trkpt>
      <trkpt lat="48.71651" lon="2.47835">
        <ele>42.6</ele>
        <time>2022-11-02T15:03:02Z</time>
      </trkpt>
      <trkpt lat="48.71646" lon="2.47837">
        <ele>42.8</ele>
        <time>2022-11-02T15:03:06Z</time>
      </trkpt>
      <trkpt lat="48.71641" lon="2.47838">
        <ele>42.7</ele>
        <time>2022-11-02T15:03:10Z</time>
      </trkpt>
      <trkpt lat="48.71636" lon="2.47839">
        <ele>42.7</ele>
        <time>2022-11-02T15:03:14Z</time>
      </trkpt>
      <trkpt lat="48.7163" lon="2.4784">
        <ele>42.3</ele>
        <time>2022-11-02T15:03:19Z</time>
      </trkpt>
      <trkpt lat="48.71625" lon="2.47842">
        <ele>41.7</ele>
        <time>2022-11-02T15:03:24Z</time>
      </trkpt>
      <trkpt lat="48.7162" lon="2.47843">
        <ele>41.1</ele>
        <time>2022-11-02T15:03:29Z</time>
      </trkpt>
      <trkpt lat="48.71615" lon="2.47845">
        <ele>40.4</ele>
        <time>2022-11-02T15:03:34Z</time>
      </trkpt>
      <trkpt lat="48.71611" lon="2.47847">
        <ele>40</ele>
        <time>2022-11-02T15:03:39Z</time>
      </trkpt>
      <trkpt lat="48.71606" lon="2.47849">
        <ele>39.2</ele>
        <time>2022-11-02T15:03:44Z</time>
      </trkpt>
      <trkpt lat="48.71601" lon="2.4785">
        <ele>38.7</ele>
        <time>2022-11-02T15:03:48Z</time>
      </trkpt>
      <trkpt lat="48.71596" lon="2.47851">
        <ele>37.7</ele>
        <time>2022-11-02T15:03:53Z</time>
      </trkpt>
      <trkpt lat="48.71591" lon="2.47852">
        <ele>35.8</ele>
        <time>2022-11-02T15:04:03Z</time>
      </trkpt>
      <trkpt lat="48.71588" lon="2.47857">
        <ele>31</ele>
        <time>2022-11-02T15:04:32Z</time>
      </trkpt>
      <trkpt lat="48.71585" lon="2.47861">
        <ele>30.6</ele>
        <time>2022-11-02T15:05:43Z</time>
      </trkpt>
      <trkpt lat="48.71579" lon="2.4786">
        <ele>30.1</ele>
        <time>2022-11-02T15:05:48Z</time>
      </trkpt>
      <trkpt lat="48.71575" lon="2.47857">
        <ele>30.4</ele>
        <time>2022-11-02T15:05:52Z</time>
      </trkpt>
      <trkpt lat="48.7157" lon="2.47857">
        <ele>30.6</ele>
        <time>2022-11-02T15:05:57Z</time>
      </trkpt>
      <trkpt lat="48.71565" lon="2.47859">
        <ele>30.8</ele>
        <time>2022-11-02T15:06:02Z</time>
      </trkpt>
      <trkpt lat="48.7156" lon="2.4786">
        <ele>31</ele>
        <time>2022-11-02T15:06:06Z</time>
      </trkpt>
      <trkpt lat="48.71556" lon="2.47861">
        <ele>30.5</ele>
        <time>2022-11-02T15:06:10Z</time>
      </trkpt>
      <trkpt lat="48.7155" lon="2.47862">
        <ele>30.9</ele>
        <time>2022-11-02T15:06:14Z</time>
      </trkpt>
      <trkpt lat="48.71545" lon="2.47862">
        <ele>30.7</ele>
        <time>2022-11-02T15:06:18Z</time>
      </trkpt>
      <trkpt lat="48.71539" lon="2.47863">
        <ele>31.8</ele>
        <time>2022-11-02T15:06:22Z</time>
      </trkpt>
      <trkpt lat="48.71534" lon="2.47864">
        <ele>32.4</ele>
        <time>2022-11-02T15:06:26Z</time>
      </trkpt>
      <trkpt lat="48.7153" lon="2.47865">
        <ele>33.1</ele>
        <time>2022-11-02T15:06:30Z</time>
      </trkpt>
      <trkpt lat="48.71525" lon="2.47867">
        <ele>33.4</ele>
        <time>2022-11-02T15:06:35Z</time>
      </trkpt>
      <trkpt lat="48.7152" lon="2.4787">
        <ele>34</ele>
        <time>2022-11-02T15:06:40Z</time>
      </trkpt>
      <trkpt lat="48.71515" lon="2.47872">
        <ele>33.7</ele>
        <time>2022-11-02T15:06:45Z</time>
      </trkpt>
      <trkpt lat="48.7151" lon="2.47873">
        <ele>33.8</ele>
        <time>2022-11-02T15:06:50Z</time>
      </trkpt>
      <trkpt lat="48.71504" lon="2.47874">
        <ele>34.4</ele>
        <time>2022-11-02T15:06:55Z</time>
      </trkpt>
      <trkpt lat="48.715" lon="2.47876">
        <ele>35.3</ele>
        <time>2022-11-02T15:07:03Z</time>
      </trkpt>
      <trkpt lat="48.71498" lon="2.47883">
        <ele>37.7</ele>
        <time>2022-11-02T15:08:03Z</time>
      </trkpt>
      <trkpt lat="48.71499" lon="2.47889">
        <ele>37.5</ele>
        <time>2022-11-02T15:08:08Z</time>
      </trkpt>
    </trkseg>
  </trk>
</gpx>